GFSGBSN_prec_cloud_003.txt.gz
Cloud_Cover
100 100 100 100 100 100 100 100 100 100 100 74 100 100 100 40 87 31 60 100 100 100 100 100 100 100 99 98 100 100 100 5 4 6 8 58 10 0 0 0 0 0 0 0 0 0 0
100 100 83 51 100 100 100 100 100 100 100 89 100 100 100 98 76 91 100 100 100 100 100 100 100 100 100 100 100 100 100 19 5 5 5 4 0 0 0 0 0 3 0 0 0 0 0
73 100 100 100 100 100 100 100 100 100 100 100 100 100 100 100 100 100 100 100 100 100 100 100 100 100 100 100 100 100 100 96 20 5 5 22 2 0 23 2 4 4 1 3 18 2 0
40 100 100 74 100 100 100 100 100 100 100 100 98 100 100 100 100 100 100 100 100 100 100 100 100 100 100 100 100 100 100 100 94 60 7 5 39 4 50 76 54 70 19 5 0 0 0
5 27 100 100 100 100 100 100 100 100 100 100 100 100 91 93 100 100 100 100 100 100 100 100 100 100 100 100 100 100 100 100 90 81 99 17 32 32 18 99 94 14 7 4 18 0 0
5 5 5 41 100 100 100 100 94 100 100 100 100 100 100 28 100 98 100 100 100 100 100 100 100 100 100 100 100 100 100 100 100 92 79 96 74 73 93 95 87 93 93 62 41 3 4
0 0 5 3 14 100 100 100 100 100 100 100 100 100 100 100 100 100 26 100 100 100 100 100 100 100 100 100 100 100 19 54 94 100 100 100 56 85 5 48 5 12 65 69 100 93 5
1 4 5 100 100 35 100 100 100 73 95 95 100 100 100 100 100 100 52 27 93 76 100 100 93 100 100 100 100 100 51 26 9 63 91 40 70 72 46 10 5 5 41 73 100 100 93
7 7 28 65 5 45 100 100 100 68 34 84 100 100 100 100 100 100 57 5 4 8 51 100 97 100 78 96 62 95 100 99 91 43 19 7 42 58 56 5 9 12 24 10 91 58 5
96 95 69 79 100 100 95 26 84 100 38 86 100 100 100 100 100 100 100 5 5 10 39 19 21 14 2 44 31 35 82 98 55 25 5 49 94 73 5 5 15 80 5 5 5 5 21
93 68 73 10 97 69 42 9 100 100 36 70 100 100 100 100 100 100 100 86 30 34 5 6 23 39 100 5 62 10 6 68 81 94 29 38 5 13 5 33 20 62 5 5 5 6 12
81 18 50 37 18 64 5 8 100 100 16 77 100 100 100 100 100 100 100 100 93 62 57 68 100 79 100 73 100 37 38 85 92 100 90 31 32 71 99 92 8 25 75 72 68 32 94
100 20 68 4 40 22 98 100 100 77 68 33 100 100 100 100 100 100 100 86 100 92 100 100 91 100 100 100 100 100 95 100 83 100 100 100 58 73 5 5 74 91 94 100 100 100 100
50 46 19 52 9 82 100 100 100 100 100 34 100 100 100 100 100 100 85 98 99 100 100 92 72 100 100 28 68 75 73 87 98 100 100 100 94 97 40 10 89 98 100 100 100 74 11
59 82 56 21 4 60 100 100 100 100 68 75 100 100 100 100 100 100 58 100 100 100 100 91 100 100 100 57 76 61 100 100 96 41 100 100 57 5 18 98 100 98 96 48 100 100 100
15 11 15 5 41 100 100 100 100 100 100 100 100 100 100 100 100 100 99 66 100 91 96 100 100 85 100 100 76 100 100 10 92 10 6 83 35 96 61 100 89 100 73 98 100 97 100
87 6 13 21 100 100 100 100 100 100 100 87 100 100 100 100 100 100 98 100 99 22 100 100 100 94 100 46 100 100 40 38 75 100 64 95 100 68 63 69 36 91 100 56 47 23 11
100 5 59 7 67 99 87 82 100 100 100 100 100 100 100 100 100 100 100 100 6 75 100 100 100 100 66 100 100 21 96 100 100 100 100 100 100 100 100 100 100 87 54 83 98 26 45
90 5 70 5 43 77 95 90 100 100 100 100 100 100 100 100 100 100 79 28 98 100 90 100 97 99 100 100 78 73 100 100 100 100 100 100 100 100 100 100 100 100 70 16 14 72 100
100 62 75 17 5 5 100 71 100 100 100 100 100 100 100 100 100 92 100 100 93 100 98 97 100 100 100 97 66 100 100 97 100 100 100 100 100 100 100 100 100 100 96 45 65 73 100
100 78 95 5 12 9 99 100 100 100 100 100 100 100 84 100 100 69 100 47 97 100 100 89 100 100 100 100 100 100 99 100 100 100 100 100 100 100 100 100 100 100 100 100 100 100 100
83 42 90 35 5 60 93 100 100 100 100 100 100 99 90 100 100 100 54 100 100 100 100 100 100 100 100 100 100 100 100 100 100 100 100 100 100 100 100 100 100 100 100 100 100 100 100
88 83 92 44 63 100 80 100 100 100 100 100 100 100 100 100 100 96 100 98 100 100 100 100 97 100 100 97 100 100 99 100 100 100 100 100 100 100 100 100 100 100 100 100 100 100 100
99 78 100 87 79 51 100 77 86 100 100 100 100 100 100 100 96 100 100 100 100 100 98 100 100 100 100 99 100 100 96 100 100 100 100 100 100 100 100 100 100 100 100 100 100 100 100
17 89 11 76 52 28 84 100 100 100 100 100 100 100 100 100 100 100 99 100 100 100 100 100 100 100 100 100 100 96 100 100 82 100 100 100 100 100 100 100 100 100 100 100 100 100 100
46 10 96 21 5 92 94 99 100 100 100 100 100 100 100 100 100 100 100 100 100 100 100 100 100 100 100 100 100 100 100 100 97 95 100 94 100 100 100 100 100 100 99 100 100 100 55
5 13 5 8 5 22 80 86 100 100 100 100 100 100 100 100 83 100 100 100 100 100 100 100 100 100 100 100 100 100 100 100 99 76 96 89 100 100 100 98 100 100 100 100 100 100 100
5 5 5 5 5 5 15 82 100 100 100 100 100 98 98 94 100 100 100 100 100 100 100 100 100 100 100 100 100 100 100 100 100 100 53 67 100 97 48 64 80 100 100 98 89 94 69
56 5 6 5 5 8 72 100 100 100 100 100 100 100 100 100 100 100 100 100 100 100 100 100 100 100 100 100 99 100 100 100 100 98 34 96 72 40 74 34 43 100 98 55 5 5 3

GFSGBSN_prec_cloud_006.txt.gz
Cloud_Cover
36 100 100 9 58 100 100 98 100 100 100 100 100 100 100 100 89 70 64 33 27 96 76 90 92 93 100 100 100 100 86 65 6 66 100 100 12 0 0 0 0 0 0 0 0 0 0
2 23 100 5 16 48 100 100 97 99 90 100 100 100 100 100 100 90 14 25 6 73 45 71 100 72 100 100 100 100 100 92 8 79 100 100 70 0 0 0 0 22 0 0 0 0 0
0 4 26 82 89 100 100 100 100 100 100 100 100 100 100 100 100 100 92 42 5 20 81 100 100 100 100 100 100 100 100 100 24 6 100 100 93 5 47 1 0 0 0 0 1 0 0
0 0 0 2 18 78 100 100 100 89 100 100 100 100 100 100 100 100 81 92 14 26 44 31 100 100 100 100 100 100 100 100 100 29 100 99 100 100 6 4 53 43 42 7 0 0 0
0 0 0 0 0 4 19 89 100 100 89 100 100 100 100 100 100 92 100 95 100 100 93 100 100 100 100 100 100 100 100 100 100 94 47 31 47 78 70 84 5 8 17 46 5 5 1
30 0 0 2 0 7 5 38 100 100 100 71 100 100 100 100 100 100 100 100 100 100 100 100 100 100 100 100 100 100 100 100 100 100 100 100 75 100 100 73 18 6 30 5 8 40 0
4 4 2 5 5 5 5 5 100 100 100 100 100 100 100 100 100 100 73 100 100 100 100 100 100 100 100 100 100 100 100 100 100 100 100 100 100 100 100 100 7 5 7 68 29 5 9
94 100 69 53 30 4 0 3 100 63 72 99 99 44 100 100 100 100 100 100 99 98 100 100 100 100 100 100 100 100 100 100 100 100 100 100 97 100 92 72 56 98 95 24 6 5 8
78 24 4 93 20 12 5 5 97 91 72 37 68 46 100 100 100 100 100 100 8 59 100 100 100 100 100 100 100 100 100 100 100 100 98 8 8 18 5 48 46 44 82 60 17 3 0
6 5 5 15 4 23 6 24 5 93 82 95 6 54 100 100 100 100 100 100 67 85 12 92 100 98 21 98 38 32 23 5 24 30 100 63 38 5 5 49 19 66 7 15 5 18 28
5 23 11 9 5 2 4 35 20 100 96 100 38 80 96 100 100 100 100 100 100 50 5 10 39 83 32 62 73 100 67 77 6 5 11 32 5 5 5 5 28 38 5 6 5 39 65
5 4 5 5 5 3 60 98 100 100 82 91 100 88 90 100 100 100 100 100 100 99 33 90 52 94 100 42 71 99 100 100 100 100 100 48 31 79 58 8 11 72 84 100 94 100 100
5 4 1 5 48 3 20 67 89 100 100 100 100 59 71 100 100 100 100 100 74 93 100 100 100 100 100 88 100 100 100 100 86 99 93 99 63 35 86 9 100 99 100 99 100 100 55
5 33 28 30 12 5 19 100 89 100 100 96 100 6 99 100 100 100 100 100 79 100 100 100 100 100 100 100 100 100 100 100 100 98 98 92 40 100 19 11 71 100 100 98 89 100 46
28 36 74 77 87 36 100 100 100 100 100 100 6 100 100 100 100 100 100 100 100 100 100 100 100 100 100 100 100 100 100 100 98 100 97 70 70 5 5 93 100 100 100 72 100 91 99
91 44 5 77 75 30 97 87 100 100 100 100 100 100 100 100 100 100 100 100 100 100 100 100 100 100 100 100 100 100 100 36 73 81 100 97 100 89 83 18 85 100 97 100 100 100 91
87 89 40 17 85 27 88 38 92 100 100 100 100 100 100 100 100 100 99 100 100 100 100 100 100 100 100 100 100 100 52 10 19 98 49 100 100 100 100 100 91 100 100 100 100 100 34
91 100 5 38 94 10 44 34 89 100 100 100 100 100 100 100 100 100 100 100 100 80 82 100 100 100 100 100 100 79 5 11 100 100 100 100 100 100 100 100 100 100 100 100 89 7 7
100 80 6 86 93 5 14 100 96 100 100 100 100 100 100 100 100 100 100 92 100 100 100 100 100 100 100 100 75 15 81 100 100 100 100 99 100 100 100 100 100 100 100 100 50 83 67
98 97 8 100 75 55 11 97 36 100 100 100 100 100 100 100 100 100 100 92 100 100 100 100 100 100 100 98 85 60 100 100 100 100 100 100 100 100 100 100 100 100 100 100 94 98 100
100 24 70 100 100 54 11 57 95 100 100 100 100 100 100 100 100 99 68 16 7 29 65 100 100 100 100 100 100 100 100 100 100 100 100 100 100 100 100 100 100 100 100 100 100 74 100
92 7 58 100 57 14 32 88 100 100 100 100 100 100 100 100 100 71 49 100 100 100 99 100 100 100 100 100 100 100 100 100 100 100 100 100 100 100 100 100 100 100 100 100 100 100 100
100 69 6 29 27 5 5 91 100 100 100 100 100 100 100 100 100 100 41 43 98 97 100 100 100 100 100 100 100 100 100 99 100 100 100 100 100 100 100 100 100 100 100 100 99 100 95
59 100 5 5 32 5 42 58 100 100 100 100 100 100 100 99 100 100 98 100 94 100 99 100 96 100 100 100 100 100 100 98 100 100 100 100 100 100 100 100 100 100 100 100 100 100 100
32 36 47 5 24 5 21 79 100 100 100 100 100 100 100 100 100 95 100 88 93 97 100 100 86 100 100 85 100 100 100 91 100 100 100 100 100 100 100 100 100 100 100 99 100 100 100
37 14 29 5 5 5 12 5 100 100 100 100 100 100 100 100 100 85 98 100 100 100 100 100 100 100 100 100 100 100 100 77 100 100 99 100 100 100 100 100 100 100 100 100 100 82 100
96 77 7 5 5 5 5 10 89 72 100 100 100 100 100 100 100 51 90 91 100 100 100 100 100 100 100 100 100 100 92 100 80 100 99 100 100 100 100 100 100 100 100 100 100 100 94
5 8 5 5 5 5 5 21 100 100 100 100 100 100 100 100 100 100 100 100 100 100 100 100 100 100 100 100 100 95 99 97 100 36 84 90 58 98 100 100 100 100 100 100 100 100 100
5 5 5 5 5 5 5 70 98 100 100 100 100 100 100 100 96 98 100 100 100 100 100 100 100 100 100 100 100 100 100 37 70 25 39 80 90 92 100 98 100 98 100 100 100 100 100

GFSGBSN_prec_cloud_009.txt.gz
Cloud_Cover
5 0 0 5 7 28 86 100 100 53 100 100 100 100 100 100 100 100 20 5 5 1 5 86 28 43 100 100 88 100 100 100 100 100 100 92 7 20 0 0 1 0 0 0 0 0 0
1 1 0 0 0 2 89 96 100 100 100 96 96 100 96 100 100 100 94 5 70 46 5 66 92 89 100 98 57 90 100 100 100 100 100 100 97 70 5 5 5 34 0 0 0 0 0
0 4 0 4 0 1 2 70 27 24 100 100 100 100 100 100 97 100 96 98 100 80 59 100 100 100 100 63 99 100 98 100 100 100 100 100 96 49 19 15 93 99 8 0 0 0 0
0 78 0 0 0 0 2 5 5 48 100 100 99 100 100 100 100 100 100 100 100 100 92 100 100 100 100 98 100 100 99 100 93 100 100 100 100 77 35 5 33 100 97 5 0 0 0
0 1 3 5 5 5 5 5 5 7 100 100 84 95 100 100 100 100 100 100 100 100 76 100 100 100 100 100 100 100 100 99 100 100 100 100 100 86 43 64 67 100 100 98 5 5 0
98 95 9 5 6 0 3 0 3 5 76 100 97 57 100 100 100 100 100 100 100 100 97 100 100 100 100 100 100 100 100 100 100 100 100 100 100 100 100 100 43 74 100 100 84 30 5
94 62 5 4 46 17 5 1 5 5 100 5 61 20 37 100 100 100 100 100 100 100 100 100 97 93 69 70 100 100 100 100 100 100 100 100 100 100 100 100 100 25 18 61 100 58 46
5 9 82 62 58 56 80 5 3 58 5 96 99 68 7 76 100 100 100 100 100 100 99 38 100 75 100 100 100 100 100 100 100 100 100 100 100 100 100 100 100 28 36 67 96 76 5
71 100 83 6 4 14 56 5 0 11 52 48 100 96 66 32 100 100 100 100 100 100 76 77 100 100 100 100 100 100 100 100 100 100 100 100 100 100 100 100 100 100 100 98 96 80 5
78 20 40 5 5 3 5 47 5 83 74 100 94 100 92 100 88 100 100 100 100 100 99 50 100 100 100 100 100 100 100 100 100 100 100 100 100 100 100 100 100 100 24 19 5 63 79
10 73 36 9 5 5 21 12 44 88 84 87 92 100 96 100 96 100 100 100 100 100 78 46 57 100 100 100 100 100 100 100 100 100 100 100 97 32 100 61 6 35 5 5 5 57 92
57 100 10 5 5 9 5 6 12 100 98 98 100 100 100 100 90 100 100 100 100 99 80 53 51 100 100 100 100 100 100 100 99 93 81 46 48 42 68 18 5 58 67 81 37 74 97
97 99 52 5 54 58 21 58 93 96 100 100 93 76 88 100 85 100 100 100 100 97 96 97 100 100 100 100 100 100 100 100 79 98 97 93 90 97 57 60 6 23 100 97 100 100 49
94 99 7 79 100 100 88 65 100 100 100 100 100 100 85 60 100 100 100 100 100 88 99 100 100 100 100 98 100 100 100 100 100 100 98 93 62 97 96 21 11 61 67 98 100 85 39
38 92 7 96 6 73 30 73 100 100 100 100 100 70 56 98 100 100 100 100 28 100 100 100 100 100 100 100 100 100 100 100 100 98 47 94 93 5 5 8 14 96 99 7 100 100 100
18 6 66 64 5 98 83 61 100 96 100 100 100 69 98 92 100 100 100 100 100 100 100 100 100 100 100 100 100 100 100 100 100 90 100 74 84 37 6 16 63 17 94 95 100 100 100
60 61 74 44 33 89 58 6 97 97 100 100 100 99 97 100 100 100 100 96 100 100 100 100 100 100 100 100 100 100 100 100 100 100 62 100 98 50 85 91 17 95 100 100 100 100 100
5 25 48 56 82 34 52 19 100 100 100 100 100 100 100 100 100 100 100 98 100 100 100 100 100 100 100 100 100 100 100 100 89 48 75 100 90 74 25 53 97 100 100 100 100 100 100
0 37 5 59 47 6 46 5 41 100 100 100 100 100 100 100 100 100 100 100 100 100 100 100 100 100 100 100 100 100 100 84 6 99 95 97 99 73 84 100 99 100 100 100 100 100 95
0 6 5 15 95 46 5 48 100 100 100 100 100 100 100 100 100 82 77 88 100 100 100 100 100 100 100 100 100 100 100 10 94 100 100 98 66 58 20 98 100 100 100 100 100 98 78
0 9 8 26 21 21 94 99 96 100 100 100 100 100 89 100 100 100 95 100 98 100 100 100 100 100 100 100 100 100 98 100 100 100 59 100 100 100 95 100 100 100 100 100 100 96 100
5 3 6 4 6 5 8 100 100 100 100 100 100 100 100 100 100 100 100 100 53 100 100 100 100 100 100 100 100 100 100 100 100 100 68 100 100 100 100 100 100 100 100 100 97 84 98
5 3 5 5 5 20 5 68 100 100 100 100 100 100 85 100 100 99 100 86 9 95 100 100 100 100 100 100 95 100 100 100 100 100 100 100 100 100 100 100 100 100 100 100 100 100 98
72 44 70 6 5 6 6 5 92 100 100 100 100 100 100 100 100 100 13 59 86 88 100 100 100 100 100 100 96 100 100 100 96 98 77 100 100 100 100 100 100 100 100 100 100 98 100
19 93 27 24 5 5 10 5 69 100 100 100 100 100 100 100 100 100 99 93 96 96 98 100 100 100 100 91 100 100 100 98 100 87 94 100 99 100 100 100 100 100 100 100 100 100 100
5 5 5 6 5 5 5 5 65 100 100 100 100 100 100 94 87 100 86 100 94 97 89 100 100 100 100 96 100 100 100 95 98 96 92 100 100 100 100 100 100 100 100 100 100 100 100
5 5 4 5 5 5 5 5 5 77 100 100 100 100 100 100 91 100 100 97 100 100 100 100 100 100 100 100 100 100 97 78 66 100 99 99 100 100 100 100 100 100 100 100 100 100 100
5 5 5 5 5 5 5 5 5 98 100 100 100 100 100 100 100 99 100 100 100 95 93 100 100 94 100 100 100 100 92 70 23 89 100 99 82 98 99 92 96 100 100 100 100 100 100
5 5 5 5 5 3 5 5 5 66 98 100 100 100 100 100 100 78 62 100 90 100 100 100 100 100 100 100 100 100 99 89 28 90 43 100 80 94 100 62 85 72 100 100 99 100 100

GFSGBSN_prec_cloud_012.txt.gz
Cloud_Cover
6 36 56 7 41 0 1 66 6 8 17 5 100 100 100 100 100 100 100 100 100 100 100 100 67 24 74 94 98 9 40 99 100 85 100 84 96 52 6 54 5 5 4 0 0 0 0
4 17 23 0 0 10 64 6 5 5 8 31 100 100 95 100 100 100 100 100 100 100 100 100 100 99 73 91 61 12 61 95 94 100 100 100 100 100 100 62 88 61 5 5 1 5 5
0 1 2 5 5 7 11 5 5 5 5 9 82 100 98 99 100 100 82 100 100 100 100 100 92 52 9 1 100 79 31 76 67 95 100 100 100 100 100 100 96 68 22 5 5 5 35
100 53 5 2 3 4 5 5 2 2 5 5 5 100 31 78 100 100 97 100 99 65 40 49 86 6 5 17 12 100 80 80 98 85 100 100 100 100 100 100 99 26 89 57 5 4 5
100 42 6 5 4 39 28 4 4 3 4 3 32 37 5 31 100 100 100 100 100 100 82 100 79 72 48 88 66 100 87 92 98 72 75 92 100 100 100 100 100 100 9 20 10 5 14
6 18 76 86 91 75 36 62 62 5 4 4 12 4 5 1 100 100 100 100 100 100 100 100 100 89 100 100 100 100 100 100 100 100 92 76 70 100 100 100 100 100 89 98 72 15 5
100 100 100 98 38 7 96 5 90 59 5 4 2 1 13 5 9 100 100 100 100 100 100 100 100 100 100 100 100 100 100 100 100 100 100 100 100 100 100 100 100 100 100 90 100 100 5
100 98 100 74 77 5 35 5 2 5 3 5 82 7 88 96 16 100 100 100 100 100 100 100 100 100 100 100 100 100 100 100 100 100 100 100 100 100 100 100 100 100 100 100 100 94 6
100 100 100 47 5 69 42 5 2 5 9 95 56 65 99 92 66 99 100 100 100 100 100 100 100 100 100 100 100 100 100 100 100 100 100 100 100 100 100 100 100 100 78 69 29 6 6
100 100 100 56 33 6 20 54 42 5 5 82 78 18 35 98 14 60 95 100 100 100 100 100 100 100 100 100 100 100 100 100 100 100 100 100 100 100 100 100 87 16 32 7 42 99 50
100 100 100 48 47 77 97 56 82 5 76 94 100 100 24 39 91 11 100 100 100 100 100 100 100 98 99 43 95 98 100 100 100 100 100 100 100 100 100 99 74 94 100 100 100 100 97
100 97 86 56 74 100 52 47 97 62 100 100 100 100 56 46 93 100 100 100 100 100 100 81 100 99 100 92 100 100 100 100 100 100 100 100 100 100 31 52 98 95 80 95 100 100 95
100 64 64 86 99 73 67 60 97 23 100 100 100 100 100 100 51 98 100 100 100 100 86 100 100 100 100 99 96 98 100 100 100 100 100 99 61 77 99 87 54 89 92 46 85 100 4
94 85 87 100 100 85 86 100 13 24 26 100 100 100 22 52 10 98 100 100 100 100 99 100 100 100 100 88 100 97 100 100 100 89 79 72 89 77 92 46 40 75 52 15 2 2 17
83 71 82 82 5 15 51 29 5 20 100 100 100 100 100 86 98 100 100 100 100 100 100 100 100 100 100 100 100 100 100 100 100 98 100 100 99 98 76 5 25 97 93 24 98 6 90
41 7 59 97 5 43 5 5 5 36 94 100 100 100 75 55 79 100 100 100 100 100 100 100 98 100 100 100 96 100 96 98 94 67 81 87 100 100 97 40 11 36 87 90 91 89 100
19 64 6 32 84 5 4 5 89 99 100 100 100 96 100 100 100 100 100 100 100 100 100 100 100 100 95 56 80 99 100 100 100 100 100 100 81 72 63 47 6 99 100 94 100 95 100
11 91 24 5 82 10 5 11 69 99 100 100 100 100 100 100 100 100 100 100 100 100 100 100 100 100 60 100 100 100 100 100 100 100 100 48 99 84 64 5 11 15 76 100 100 100 100
99 68 56 4 28 5 48 36 100 100 100 100 100 100 100 100 100 100 100 100 100 100 100 100 100 100 100 100 100 100 100 100 100 79 53 76 84 76 14 58 70 100 96 100 100 100 100
100 48 55 4 5 5 37 40 95 100 100 100 100 100 100 100 100 100 99 76 100 100 100 100 100 100 100 100 100 100 100 100 96 99 97 99 92 11 68 98 100 100 100 100 100 100 100
94 94 75 5 5 6 46 5 99 100 100 100 100 99 100 100 100 100 100 100 100 100 100 100 100 100 100 100 100 100 100 100 100 100 100 81 99 77 100 85 96 99 100 100 100 100 100
34 100 100 26 5 5 42 18 6 62 64 100 100 100 47 100 100 100 53 65 100 100 100 100 100 100 100 100 100 100 100 100 100 100 100 100 97 90 100 80 99 100 100 100 100 100 100
70 5 75 7 5 5 5 5 5 51 92 100 100 100 100 100 99 81 48 91 98 100 100 100 100 100 100 100 100 100 100 100 100 100 100 100 100 100 100 96 97 99 100 100 100 100 100
5 5 5 52 5 5 5 5 5 26 94 100 100 100 100 100 100 100 72 14 15 100 100 100 100 100 100 100 100 100 100 100 100 100 100 100 100 100 100 99 100 100 100 100 100 100 100
5 5 5 5 5 5 5 5 5 5 59 100 100 100 100 100 100 100 91 5 5 95 100 100 100 100 100 100 100 100 100 100 100 100 100 100 100 100 100 100 97 100 100 100 100 100 100
5 5 5 5 5 5 5 4 5 5 95 100 100 100 100 80 22 40 5 5 32 34 100 100 100 100 100 100 100 100 100 100 100 84 95 100 100 100 100 100 100 100 100 100 100 100 100
5 5 5 5 5 4 4 5 5 5 22 100 100 100 100 100 100 100 99 91 91 40 100 100 100 100 100 96 98 100 100 100 100 68 82 100 100 100 100 100 100 100 100 94 100 100 100
5 5 5 5 5 5 5 5 4 5 8 99 100 100 100 100 76 46 73 100 100 100 92 100 100 100 100 94 100 100 100 100 100 73 30 65 61 100 84 100 100 100 100 99 100 62 100
5 5 5 5 5 5 5 5 5 5 5 100 100 100 100 100 100 47 100 84 100 100 91 100 100 100 100 100 100 100 100 100 100 62 54 96 51 73 100 76 80 100 99 83 65 30 96

GFSGBSN_prec_cloud_015.txt.gz
Cloud_Cover
1 1 4 10 5 5 5 2 22 37 4 2 4 4 6 91 99 99 100 100 100 100 100 100 100 100 100 97 84 74 30 5 12 99 100 100 100 100 100 100 99 5 50 19 5 5 1
0 4 5 6 0 1 5 5 5 5 4 5 5 5 5 5 94 95 100 100 100 100 100 100 100 100 100 100 85 100 46 5 44 54 99 100 100 100 100 100 100 33 8 5 29 21 1
99 97 77 5 1 7 6 5 5 0 0 1 3 5 3 5 2 98 100 100 100 100 100 100 100 100 100 100 100 41 65 62 43 33 97 96 100 100 100 100 100 61 7 10 5 26 6
54 93 13 28 23 57 99 92 7 14 4 4 0 5 5 5 9 37 99 100 100 100 100 100 100 100 100 100 100 100 11 17 61 55 62 100 100 100 100 99 97 52 18 5 5 14 60
4 100 100 40 100 30 81 100 17 44 2 12 9 5 10 4 14 4 62 100 92 100 100 100 100 100 100 100 100 100 100 89 99 96 98 98 97 100 100 100 90 69 100 70 29 6 71
98 100 100 100 58 69 88 83 92 15 6 5 5 0 0 1 5 3 48 100 98 100 100 100 100 100 100 100 100 100 70 100 40 97 100 96 89 89 96 100 100 100 100 100 100 100 92
100 40 24 24 64 7 91 100 99 26 81 11 4 5 5 0 38 81 66 100 100 100 100 100 100 100 100 100 59 100 20 74 100 56 17 100 83 100 24 94 100 100 100 100 100 100 99
5 28 100 100 100 92 100 99 73 19 8 5 18 88 75 12 92 100 81 100 100 100 100 100 100 100 100 100 99 44 10 42 100 99 100 100 100 100 94 57 91 100 100 100 100 100 95
100 100 85 71 55 41 68 74 97 32 74 10 10 36 98 5 5 61 38 100 100 100 100 100 100 100 100 96 48 34 15 53 100 100 100 100 100 100 100 37 18 17 50 34 54 96 100
100 99 56 11 43 82 88 45 73 99 96 80 98 100 100 9 14 82 84 100 100 100 100 100 100 100 100 99 100 97 100 95 100 100 100 100 100 100 100 100 91 28 15 17 5 22 13
95 80 64 58 73 56 81 100 74 73 81 99 100 100 100 99 100 93 100 100 100 100 100 100 100 100 100 100 100 100 100 100 100 100 100 100 100 100 100 100 100 99 99 39 56 75 68
100 96 82 41 11 44 59 100 99 64 99 89 100 100 100 100 85 23 100 100 100 100 100 100 100 100 100 100 100 100 100 100 100 100 100 100 100 100 100 100 100 100 99 100 98 100 63
20 93 80 5 9 68 74 77 12 23 5 100 84 100 92 94 94 96 100 100 100 100 63 100 100 100 100 100 100 100 100 100 100 100 100 100 100 100 100 100 100 100 100 69 81 99 8
27 90 40 18 69 62 70 5 5 16 35 96 100 100 55 100 86 100 100 100 100 94 57 100 100 100 100 100 100 100 100 100 100 100 100 100 100 100 100 100 100 100 100 90 6 4 1
17 33 92 62 7 65 5 13 27 51 80 74 100 78 100 96 89 100 100 100 100 96 100 100 100 100 100 100 100 100 100 100 97 53 57 70 90 92 43 65 52 99 90 15 99 41 70
37 9 63 10 59 55 68 99 100 62 100 100 98 94 100 17 12 86 100 100 100 100 100 100 100 100 100 100 100 100 100 49 97 46 69 83 36 37 100 70 16 14 54 82 91 74 83
99 5 95 88 5 5 89 98 100 100 100 45 91 100 79 86 100 100 100 100 100 100 100 100 100 100 100 100 100 98 64 37 70 96 100 100 100 84 24 57 86 95 91 90 93 88 100
84 59 6 38 5 5 5 56 100 100 100 93 92 100 100 100 100 100 100 100 100 100 100 100 100 100 100 100 92 70 67 48 75 90 80 88 100 100 100 59 84 76 57 63 100 97 100
29 74 21 61 5 5 5 7 79 100 100 53 100 100 100 100 100 100 100 100 100 100 100 100 100 100 100 100 86 70 60 56 73 100 100 100 100 51 97 90 8 70 9 98 100 100 100
18 17 83 5 5 5 5 5 31 99 100 30 100 100 100 99 90 90 100 97 100 100 99 100 100 100 100 96 26 60 40 32 98 100 84 96 76 76 12 31 99 100 100 100 100 100 100
76 64 5 5 5 5 5 5 5 89 41 76 97 94 64 96 100 100 100 97 100 100 98 100 88 90 100 100 38 59 97 100 100 79 100 99 100 69 21 20 43 100 100 100 100 98 100
65 5 85 5 5 5 5 5 5 5 20 44 100 100 100 100 93 56 96 99 100 100 100 100 98 100 100 65 100 100 100 100 100 99 100 100 95 78 100 41 63 100 100 100 100 100 100
16 5 5 5 4 5 5 5 5 22 12 100 100 100 100 83 100 55 54 65 100 100 93 93 100 100 100 100 100 100 100 100 100 100 100 100 100 100 73 82 84 74 100 100 100 100 100
13 5 5 5 5 5 5 5 5 5 52 100 100 100 100 86 71 55 14 37 100 99 100 100 99 100 100 100 100 100 100 100 100 100 100 100 100 100 100 63 94 99 100 100 100 100 100
29 5 5 5 5 2 5 5 5 4 68 100 100 100 100 74 9 60 18 67 100 100 100 100 100 100 100 100 100 100 100 100 100 100 100 100 100 100 100 79 92 100 100 100 100 100 100
6 11 5 5 5 5 5 5 5 5 37 100 100 100 100 100 61 36 9 11 100 100 100 100 100 100 100 100 100 100 100 100 100 100 100 100 100 100 100 100 98 98 100 87 94 99 100
9 63 13 5 5 5 5 5 5 5 5 76 100 100 100 100 98 99 30 10 10 66 100 100 100 100 100 100 100 100 100 100 100 100 100 100 100 100 100 100 99 100 100 66 96 100 100
49 60 53 5 49 22 6 5 5 5 5 50 100 100 100 100 49 16 45 79 56 6 66 100 100 100 100 100 100 100 100 100 100 100 100 100 100 100 96 100 100 100 31 74 54 91 98
6 100 94 5 6 91 58 5 5 5 5 5 67 100 100 100 100 100 95 76 65 50 99 92 100 100 100 100 100 100 100 100 100 100 98 66 100 100 100 100 100 84 91 34 38 10 49

GFSGBSN_prec_cloud_018.txt.gz
Cloud_Cover
34 13 77 52 2 6 4 4 2 2 16 4 10 11 5 4 9 72 100 100 100 100 100 100 100 100 100 100 100 40 5 0 2 40 100 100 100 100 100 100 100 100 100 100 76 46 77
100 100 100 99 99 14 5 62 7 26 5 5 19 97 49 43 4 4 24 100 100 100 100 100 100 100 100 100 100 100 79 7 3 52 49 100 100 100 100 100 100 100 100 100 100 100 9
100 31 84 100 100 100 7 99 78 96 99 97 5 20 58 98 96 92 97 100 100 100 100 100 100 100 100 99 100 100 100 97 56 70 8 100 100 100 100 100 100 100 100 100 100 100 65
100 100 100 100 100 5 38 86 80 100 100 85 4 5 5 1 5 2 5 34 100 100 100 100 100 100 100 99 100 100 100 100 33 100 22 79 72 86 100 100 100 100 100 100 100 100 100
100 94 43 34 100 77 24 78 84 100 96 76 5 5 17 2 4 2 0 13 100 100 99 100 100 100 100 100 100 100 100 100 100 97 97 100 92 90 100 100 100 100 100 100 100 100 100
94 18 98 100 55 99 53 98 67 99 52 72 5 5 5 5 4 1 5 15 98 100 100 100 100 100 100 100 100 100 100 100 100 100 89 100 100 100 12 53 93 100 100 100 100 100 100
100 100 90 46 5 46 32 90 46 56 15 5 67 97 6 83 15 5 28 8 72 100 100 100 96 100 100 100 100 100 100 100 100 100 100 100 100 82 9 5 5 5 78 100 100 100 100
100 99 32 98 64 96 91 95 87 43 8 5 5 5 18 94 23 5 52 54 100 100 100 100 98 92 100 100 100 100 100 96 100 100 100 100 99 87 45 64 78 14 5 11 5 87 13
100 99 81 85 24 50 32 82 7 5 5 5 6 33 95 28 14 7 34 33 100 100 100 100 100 100 100 100 100 100 100 100 100 100 100 100 100 92 97 54 90 82 66 5 5 5 87
100 95 97 20 5 20 8 5 5 5 7 6 99 100 100 100 53 55 36 64 100 100 100 100 100 84 100 100 100 100 100 100 100 100 100 100 99 62 10 28 10 57 94 34 5 5 6
98 86 85 54 99 14 21 5 3 36 22 5 5 81 100 100 100 68 12 100 100 100 100 100 100 100 100 49 99 100 100 100 100 100 100 94 59 58 5 14 99 100 100 98 23 5 5
94 38 100 57 100 34 5 6 92 69 14 88 60 96 92 100 100 50 24 100 100 100 100 100 96 100 45 85 100 100 100 100 100 100 100 99 43 48 100 100 100 100 100 100 54 15 45
5 10 100 5 46 34 6 42 91 100 60 100 100 100 75 58 99 83 100 100 100 100 100 100 96 100 90 100 100 100 100 100 69 80 100 94 100 100 100 100 100 100 100 100 88 96 50
5 21 71 48 88 31 8 94 100 100 100 100 99 70 100 100 100 100 100 100 100 100 100 98 100 100 100 100 100 100 100 94 84 97 100 100 100 100 100 100 100 100 100 100 60 98 100
6 9 61 16 88 12 50 5 84 100 100 72 99 94 5 100 96 100 100 100 100 100 97 100 100 100 100 100 100 100 100 100 100 100 100 100 100 100 100 100 100 100 100 100 100 100 100
98 42 9 27 77 28 5 5 53 100 100 78 93 84 30 92 100 100 100 100 100 100 88 74 74 92 100 100 100 100 100 100 100 100 100 100 100 100 100 100 100 100 100 100 100 100 100
100 100 58 33 2 5 8 18 100 100 100 8 90 100 52 90 98 100 100 100 100 100 99 100 96 100 100 100 100 100 100 96 72 86 64 99 74 76 73 71 96 92 80 76 84 39 24
100 100 51 81 1 5 5 6 88 100 100 89 100 98 100 100 100 100 100 100 100 99 87 100 100 100 97 72 100 100 82 97 20 99 55 99 100 70 97 95 100 93 60 42 97 6 42
100 88 90 8 5 5 5 5 49 100 94 54 98 100 100 100 100 100 100 91 95 100 100 100 100 100 100 100 100 97 100 18 12 11 74 76 100 59 100 84 82 63 15 39 99 100 99
100 87 61 19 6 5 5 2 7 98 34 41 86 100 98 93 54 100 100 100 100 100 100 99 99 100 100 99 100 98 57 23 13 79 78 100 99 98 99 12 27 100 79 90 100 100 76
100 99 64 12 6 5 5 5 5 14 11 51 83 32 73 31 21 18 77 100 100 100 100 80 100 100 100 100 100 97 68 16 46 100 100 100 100 76 15 5 6 7 100 97 100 86 100
100 100 60 5 5 5 5 5 0 5 4 41 70 100 67 12 5 5 26 75 73 27 99 100 100 100 100 100 100 100 100 83 100 100 100 58 76 70 67 5 47 94 100 100 100 100 100
100 100 87 10 11 9 8 5 2 5 10 100 98 100 100 82 5 8 28 100 100 100 100 76 100 100 100 100 55 57 68 100 100 75 96 78 88 100 66 33 27 87 100 100 100 100 100
100 100 100 75 42 5 5 5 0 4 41 100 100 100 100 74 17 28 79 100 100 100 100 98 100 100 100 100 100 100 100 100 91 90 98 100 100 100 99 28 50 100 86 100 100 100 64
100 100 100 100 100 5 5 5 5 1 27 100 100 100 100 99 84 57 50 100 100 100 100 100 100 100 100 100 100 100 100 95 92 82 100 99 100 100 100 87 56 99 88 100 100 48 80
100 100 100 100 100 5 5 5 5 5 3 43 100 100 100 100 45 97 40 28 82 100 100 100 100 100 100 100 100 100 100 100 100 100 100 100 100 100 100 100 89 99 35 100 100 58 63
98 100 100 100 100 46 27 5 5 5 5 4 76 100 100 100 97 94 100 91 82 94 100 100 100 100 100 100 100 100 100 100 100 100 99 100 100 100 100 100 100 100 100 100 71 41 8
100 98 98 100 100 38 40 5 7 5 5 4 5 84 100 100 100 96 90 99 87 11 92 100 100 100 100 100 96 99 100 100 100 100 100 100 100 100 100 100 85 92 100 100 80 49 61
100 100 100 100 100 99 88 5 85 36 5 4 5 43 100 100 49 92 83 25 64 54 36 100 100 100 100 100 65 96 100 100 100 100 100 100 100 98 85 72 83 100 98 22 5 5 5

GFSGBSN_prec_cloud_021.txt.gz
Cloud_Cover
100 100 91 100 76 58 50 81 50 98 99 91 74 40 11 18 100 100 100 100 100 100 100 100 100 100 100 100 100 100 16 2 2 58 100 100 100 100 100 100 100 100 86 100 100 100 79
100 99 100 100 96 92 24 8 4 94 100 98 100 92 14 4 5 100 100 37 100 100 100 100 100 100 100 100 100 100 100 49 68 2 5 80 100 100 100 100 100 100 100 100 100 100 100
100 100 98 21 98 98 74 20 77 94 100 95 61 100 100 9 4 71 7 9 4 97 100 100 100 100 100 100 100 100 100 100 100 38 5 5 100 100 100 100 100 100 100 100 100 100 100
100 38 84 96 100 29 14 5 6 71 96 100 100 96 24 8 0 3 3 4 0 47 100 100 100 100 100 100 100 100 100 100 100 100 76 100 90 50 100 100 100 100 100 100 100 100 100
100 100 90 34 7 57 80 28 60 72 78 92 89 16 52 21 5 1 0 0 1 33 100 100 100 100 100 100 100 100 100 100 100 100 100 70 99 100 59 88 100 100 100 100 100 100 100
100 100 59 66 19 13 11 51 5 7 37 5 4 5 5 4 76 32 1 4 1 38 100 100 100 100 100 100 100 100 100 100 100 100 98 98 100 99 100 98 56 82 100 100 100 100 100
100 100 98 100 20 5 7 39 0 42 5 3 1 6 92 5 10 6 7 5 16 59 100 100 100 96 100 100 100 100 100 100 100 98 84 100 100 100 84 71 58 82 38 100 100 100 100
100 100 99 50 5 5 24 5 2 9 49 9 5 100 86 68 96 35 19 18 84 100 100 100 100 98 100 100 100 100 100 100 100 100 100 100 100 100 84 99 93 83 5 3 5 100 100
100 96 68 10 5 16 9 38 5 8 53 48 7 98 39 90 100 88 68 62 83 100 100 100 100 100 100 100 100 100 100 100 100 100 100 100 100 35 96 100 69 7 5 4 2 2 54
100 100 84 96 20 95 75 8 95 80 100 100 99 98 50 61 100 57 78 89 99 99 100 100 100 100 95 100 100 96 100 100 100 100 100 100 100 100 100 100 100 88 5 5 4 0 2
94 100 100 89 5 99 74 7 66 94 100 100 100 100 98 100 100 100 16 88 100 100 100 100 100 98 63 60 100 100 100 100 100 100 100 100 100 100 100 100 100 100 68 5 5 5 5
100 99 95 100 49 100 47 5 70 100 100 100 100 88 96 83 100 100 29 99 98 100 100 100 100 90 100 87 100 100 100 100 100 100 100 100 100 100 100 100 100 99 99 8 5 5 39
100 96 83 100 74 88 94 15 100 100 100 59 98 77 20 48 98 79 99 88 89 100 99 100 98 85 100 100 100 100 100 100 100 100 100 100 100 100 100 100 100 100 97 34 5 81 26
100 100 100 97 22 14 5 22 81 100 100 100 68 6 100 100 98 100 100 98 100 100 90 100 99 87 100 98 93 100 100 99 100 100 100 100 100 100 100 100 91 12 5 6 24 54 67
100 100 100 100 62 5 26 60 100 100 86 5 5 45 50 74 99 100 100 100 100 100 100 100 100 100 100 92 59 100 100 100 100 100 100 50 57 86 36 5 14 5 7 9 53 100 100
100 99 100 100 16 5 6 42 100 100 21 5 1 15 78 100 100 100 100 100 100 100 100 98 94 100 100 99 93 100 100 100 100 100 100 100 100 76 43 7 43 63 98 100 100 100 100
100 99 100 78 82 5 13 54 96 82 5 5 65 100 100 100 100 100 100 100 100 100 72 70 61 86 99 100 100 100 100 100 100 100 100 100 100 67 83 82 100 100 100 100 100 100 100
100 65 100 100 100 5 5 16 7 74 5 4 31 50 100 100 100 100 100 100 100 94 84 92 76 33 56 93 82 38 85 100 100 100 100 100 100 96 98 100 100 100 100 100 85 35 5
100 83 100 100 100 82 4 4 5 50 8 29 92 60 52 74 46 100 79 22 82 96 60 64 67 40 82 64 86 92 100 100 100 100 91 92 91 88 100 99 100 100 100 82 87 100 21
100 100 93 100 100 88 5 1 5 11 2 7 61 44 5 14 7 96 71 63 34 100 99 100 100 100 100 100 100 100 100 99 72 100 96 87 84 78 100 100 84 48 25 67 97 98 66
100 100 91 68 100 96 55 1 3 2 0 1 43 43 55 9 5 32 8 44 100 100 99 100 96 97 100 100 100 100 100 57 44 46 50 92 58 100 100 22 66 68 57 90 69 64 100
100 100 100 96 100 100 100 6 0 4 0 37 90 94 89 9 5 5 5 92 100 84 63 95 71 100 100 100 100 100 100 100 89 48 6 65 100 100 82 52 5 8 55 100 100 100 100
100 100 71 99 100 100 100 88 5 4 19 100 100 100 100 10 5 5 5 25 96 100 100 100 100 100 100 100 100 100 91 93 58 16 56 88 69 63 42 46 8 89 100 100 73 76 100
100 100 100 100 100 100 98 84 94 5 32 93 100 100 96 18 5 10 94 100 53 96 93 100 100 100 100 100 100 87 66 76 66 100 77 86 100 91 100 78 49 85 100 100 82 100 97
100 100 100 100 100 100 93 72 100 98 5 63 100 91 100 100 62 77 99 100 95 58 45 100 100 100 100 100 100 79 80 91 93 89 100 100 99 100 100 89 37 55 97 100 85 97 92
100 100 100 100 100 100 100 62 91 100 9 5 94 100 100 100 53 100 99 42 92 68 60 81 100 100 100 100 99 94 70 99 90 90 100 100 100 100 100 91 68 96 90 100 60 100 5
100 100 100 100 100 100 100 99 78 86 12 5 39 84 100 100 46 38 100 100 98 99 62 63 86 100 100 100 99 100 65 74 82 83 100 100 100 100 100 98 95 97 99 89 100 100 5
100 100 100 100 100 100 100 100 100 70 85 5 5 44 44 100 58 84 98 100 100 100 100 48 47 100 100 100 100 99 70 94 100 74 99 98 97 100 100 100 98 100 99 100 100 22 5
100 100 100 100 100 100 87 100 51 26 98 9 5 5 8 33 7 84 96 100 100 100 98 98 34 42 100 100 100 100 99 91 96 100 100 100 88 100 100 97 21 45 79 100 16 5 5

GFSGBSN_prec_cloud_024.txt.gz
Cloud_Cover
100 69 99 43 63 100 96 52 25 52 10 98 23 100 100 35 21 12 3 3 7 19 56 76 100 100 100 100 100 100 100 6 60 100 100 100 100 100 100 100 100 100 82 100 100 100 96
99 100 99 100 100 45 10 5 81 33 6 6 39 93 100 100 5 86 12 1 0 5 0 100 100 100 100 100 100 100 100 96 5 37 100 100 100 100 100 100 100 100 100 98 100 100 100
54 22 100 100 88 76 75 86 11 7 6 5 5 5 65 9 5 11 12 2 4 27 0 91 100 100 100 100 100 100 100 100 55 5 35 100 100 100 100 100 100 100 100 100 100 100 98
15 96 96 100 70 100 27 86 90 6 16 5 2 5 0 0 5 4 3 1 0 0 0 100 100 100 100 100 100 100 100 100 100 100 6 5 85 100 100 100 100 100 100 100 100 100 100
49 91 100 96 87 96 5 18 15 10 100 16 2 3 4 5 0 6 9 2 0 0 0 100 100 100 100 100 100 100 100 100 100 100 100 21 46 54 97 100 100 100 100 100 100 100 100
52 95 100 100 88 49 42 98 49 70 65 87 7 5 5 5 5 21 0 0 0 0 1 84 100 100 99 100 100 100 100 100 100 100 100 100 77 80 68 86 100 100 100 100 100 100 100
58 99 100 62 100 96 100 30 15 100 100 100 100 35 86 65 7 5 18 0 5 76 7 100 100 100 100 100 100 100 100 100 100 100 100 98 100 100 98 54 28 84 96 100 100 100 100
34 100 100 90 78 100 100 76 24 100 100 100 100 100 100 100 44 89 49 3 23 92 99 100 100 100 100 100 100 100 100 100 100 100 100 100 100 100 100 100 100 91 5 66 100 100 100
100 42 100 90 100 100 73 64 8 100 100 100 100 100 100 100 88 98 16 14 85 100 93 100 100 100 100 100 100 100 100 100 100 100 100 100 100 100 100 100 92 11 10 5 29 86 100
100 92 100 66 91 67 100 82 76 100 100 100 100 100 100 100 90 100 41 85 93 81 96 100 100 98 87 100 100 100 100 100 100 100 100 100 100 100 100 89 52 8 56 5 5 3 5
92 82 100 6 18 5 83 11 100 99 100 100 100 84 100 100 100 100 36 6 77 80 100 100 100 100 100 60 100 100 100 100 100 100 100 100 100 100 100 100 96 42 75 71 6 5 5
100 55 100 48 91 61 5 78 100 100 100 96 90 77 84 36 94 100 28 50 29 100 100 100 100 100 94 100 100 100 100 100 100 100 100 100 100 100 100 30 100 100 100 15 11 7 30
100 100 100 83 28 6 20 100 100 100 41 5 20 16 58 52 99 88 46 63 100 100 100 100 98 99 93 100 100 100 100 100 100 100 100 100 100 100 100 100 100 100 100 100 35 76 59
100 100 100 76 15 29 30 100 100 84 6 5 5 28 31 98 22 63 65 100 100 100 100 93 76 100 100 100 100 100 100 100 100 100 100 100 100 100 100 100 100 100 100 91 100 98 11
95 100 100 98 54 36 57 100 80 31 3 85 18 44 99 26 100 96 100 99 100 100 100 100 100 99 87 92 100 100 100 100 100 100 100 100 100 100 100 100 100 99 87 100 100 75 58
96 100 100 100 5 19 30 100 100 98 5 9 100 100 95 95 96 96 92 100 100 89 85 73 72 79 99 100 100 100 100 100 100 100 100 100 100 100 100 99 100 99 100 100 100 100 52
100 100 100 100 35 77 9 14 35 98 4 0 40 79 38 100 83 100 100 100 100 100 100 99 13 100 100 100 100 100 100 100 100 100 100 54 76 89 100 100 100 100 100 99 18 5 58
100 100 100 91 65 100 5 3 5 83 18 6 3 4 9 100 43 91 100 100 98 30 5 5 5 5 9 95 100 19 27 98 100 100 100 99 100 62 87 52 5 5 5 30 54 27 10
100 100 100 89 100 100 68 28 0 6 23 16 4 21 5 0 13 88 49 19 22 5 5 5 5 51 28 48 97 78 95 100 100 100 100 100 100 100 100 100 100 89 100 100 28 99 84
100 100 100 100 100 100 78 70 3 0 0 0 0 4 5 41 23 52 11 5 5 5 31 23 8 9 92 100 100 100 100 100 100 100 100 100 100 100 100 100 100 100 99 52 81 98 59
100 100 100 100 100 100 92 100 5 0 0 0 13 27 66 47 8 6 19 1 100 100 100 100 100 100 100 100 100 100 100 100 100 100 100 100 100 100 100 100 99 33 11 49 52 97 82
100 100 100 100 100 100 100 100 55 1 0 27 39 88 100 60 5 5 5 5 59 61 87 100 100 99 100 100 100 100 100 100 100 100 100 100 100 100 100 100 87 57 36 100 92 100 99
100 100 100 100 100 100 100 100 100 33 2 27 10 90 100 5 5 5 5 5 11 5 5 9 76 84 100 100 100 100 100 100 100 92 92 97 81 100 100 33 53 22 31 100 61 99 10
100 100 100 100 100 99 100 100 100 100 15 95 90 99 100 13 5 5 5 5 63 6 8 5 24 95 96 100 96 100 76 94 85 99 83 99 100 98 99 74 56 25 26 96 9 5 38
100 100 100 100 100 98 100 100 100 100 100 42 93 70 100 100 78 5 5 20 82 29 5 7 86 94 93 100 100 100 65 100 100 100 100 100 100 87 100 94 70 9 90 41 13 5 24
100 100 100 100 100 100 100 100 100 100 100 67 93 9 95 100 48 39 5 67 34 82 10 5 52 95 100 100 100 100 100 32 92 100 100 100 100 100 100 90 91 92 83 5 5 46 18
100 100 100 100 100 100 100 100 100 100 97 34 97 13 62 100 79 67 28 84 16 8 5 11 5 47 97 100 100 100 100 97 87 100 100 100 100 100 100 100 95 100 67 14 14 90 96
100 100 100 100 100 100 100 98 100 100 100 80 6 15 5 14 6 18 75 91 48 7 12 7 8 5 55 99 99 100 100 100 100 100 100 98 100 100 100 100 98 89 73 32 37 84 100
100 100 100 100 100 100 100 100 100 100 37 100 100 44 5 48 9 0 74 92 68 94 65 90 15 5 7 82 96 94 100 100 96 97 93 100 96 89 96 100 99 98 7 5 38 78 100

GFSGBSN_prec_cloud_027.txt.gz
Cloud_Cover
100 90 100 100 99 26 67 72 23 85 4 48 12 24 5 5 54 86 100 100 3 0 0 0 87 91 99 100 100 100 100 100 18 68 100 100 100 100 100 100 100 100 100 100 100 100 100
100 48 100 39 100 5 92 41 6 33 58 12 31 78 1 5 5 2 3 78 5 20 39 2 81 100 100 100 100 100 100 100 99 6 100 100 100 100 100 100 100 100 100 100 100 100 100
100 94 100 99 100 21 54 86 66 92 5 99 86 100 5 5 1 0 1 9 7 13 22 82 60 100 100 100 100 100 100 100 100 100 94 100 100 100 100 100 100 100 100 100 100 100 100
100 100 100 75 100 53 100 72 90 84 100 80 100 91 19 20 1 0 4 5 44 15 0 100 99 100 100 100 100 100 100 100 100 100 72 8 75 100 100 100 100 100 100 100 100 100 100
100 86 100 100 46 94 98 100 100 99 97 100 100 100 100 100 14 19 13 5 16 0 53 70 71 100 100 100 95 100 100 100 100 100 100 51 70 93 100 100 100 100 100 100 100 100 100
100 95 100 100 98 76 86 100 100 100 100 100 100 100 100 100 33 69 12 89 0 1 0 55 100 100 100 100 100 100 100 100 100 100 100 100 17 8 100 100 100 100 100 100 100 100 100
100 99 75 100 88 87 100 94 100 100 100 100 100 100 100 100 85 100 42 81 4 13 55 18 100 99 99 100 100 100 100 100 100 100 100 100 100 87 93 100 100 100 100 100 100 100 100
100 100 98 100 95 65 75 48 100 100 100 100 100 100 98 100 100 66 69 33 10 46 20 66 100 100 100 100 100 100 100 100 100 100 100 100 100 100 100 30 91 100 100 100 100 100 100
100 100 92 100 98 83 85 5 97 100 100 99 93 96 88 5 100 70 100 6 25 7 67 100 100 100 87 100 100 100 100 100 100 100 100 100 100 100 100 100 93 98 98 100 100 100 99
100 100 100 100 100 86 37 98 34 100 100 100 100 100 100 100 57 100 100 83 49 5 5 100 100 100 95 100 100 100 100 100 100 100 100 100 100 100 100 100 99 94 31 8 99 100 100
100 100 61 100 100 95 60 96 91 100 8 4 5 8 99 73 100 100 65 59 99 7 100 100 100 55 51 50 100 70 100 100 100 100 100 100 100 100 100 100 100 100 100 37 11 5 9
100 91 100 100 14 100 94 66 91 87 5 5 22 11 5 22 74 100 60 27 38 100 100 100 100 100 73 22 100 100 100 100 100 100 100 100 100 97 100 68 73 100 100 87 5 12 20
100 100 100 96 100 79 100 100 41 88 13 5 51 5 3 56 55 82 11 39 100 100 100 100 100 75 99 100 100 100 100 100 100 100 100 100 100 100 100 100 100 100 100 59 47 8 87
100 100 97 100 100 58 96 98 94 100 71 12 64 79 8 4 84 84 100 100 100 100 100 100 100 96 100 100 100 100 100 100 100 100 100 100 100 100 100 100 100 100 97 67 97 99 54
77 100 100 100 98 100 73 98 100 91 4 5 2 5 5 100 100 100 94 96 100 100 100 99 100 82 100 100 100 100 100 100 100 100 100 100 100 100 100 100 100 100 100 100 100 100 100
78 97 98 100 98 100 23 35 100 96 7 2 6 85 44 53 70 84 72 100 99 100 88 43 100 100 100 100 100 100 100 97 99 84 100 100 100 100 100 100 100 89 100 100 89 100 97
97 100 100 100 100 100 99 76 100 100 26 0 0 21 20 2 5 40 100 100 100 86 8 25 15 80 100 100 100 100 80 61 98 100 100 100 100 100 100 100 100 98 100 100 72 35 85
82 98 100 100 100 100 100 100 47 100 50 0 0 0 5 5 9 86 100 100 37 22 13 7 5 11 53 87 97 99 100 100 100 100 100 100 100 100 100 100 100 100 100 100 100 91 100
55 94 99 100 100 100 100 52 82 10 92 6 0 0 2 3 12 94 42 17 5 5 5 5 5 15 95 100 100 100 100 100 100 100 100 84 100 100 100 100 100 100 100 100 100 93 6
98 83 100 100 100 100 100 97 100 53 1 0 0 6 0 0 5 53 62 5 9 5 4 5 5 40 33 63 100 100 100 100 100 100 100 100 100 100 100 100 100 66 45 59 41 56 65
62 100 100 100 100 100 89 100 100 100 14 0 10 86 100 74 2 6 10 5 60 52 5 4 11 8 42 57 100 100 100 100 100 100 100 100 100 100 100 100 100 100 100 99 92 100 100
72 71 100 100 100 100 100 100 100 100 80 6 41 93 100 72 5 5 5 5 13 100 97 100 55 44 41 65 56 100 100 100 100 100 100 100 100 100 100 100 100 100 100 100 100 100 100
47 100 96 100 100 100 100 84 100 100 100 82 84 98 99 12 5 5 4 5 5 7 28 100 100 69 85 98 100 100 99 100 100 100 100 100 100 100 100 100 100 100 100 100 100 98 100
5 99 88 100 100 100 100 100 100 100 100 95 100 100 98 28 1 3 5 5 5 60 92 72 90 93 100 100 100 100 85 100 100 100 100 99 100 100 100 100 100 100 100 100 100 94 91
20 50 67 100 100 100 100 100 100 100 100 100 5 49 97 93 95 2 1 5 5 5 98 100 100 100 100 100 100 100 94 96 100 100 100 99 100 100 100 100 100 100 76 48 100 97 65
44 92 89 100 100 100 100 100 99 100 100 100 65 20 48 100 44 60 46 5 5 5 46 59 99 100 100 100 100 100 92 73 94 98 100 100 100 99 100 100 65 37 78 15 84 65 98
100 100 100 100 100 100 100 100 100 100 100 100 85 13 50 90 72 69 37 91 8 5 5 16 19 83 100 75 94 100 100 75 68 94 100 100 100 100 100 100 22 95 80 64 58 18 5
100 100 96 100 100 100 100 100 100 100 100 99 91 65 100 100 66 14 18 43 93 100 6 5 6 33 52 99 44 58 100 100 62 88 42 91 98 100 100 100 92 100 100 88 32 17 5
100 100 100 100 100 100 100 100 100 100 100 100 100 100 100 97 69 75 5 5 6 84 84 100 84 5 5 33 97 72 99 100 99 58 34 83 12 84 67 61 95 90 87 50 15 27 5

GFSGBSN_prec_cloud_030.txt.gz
Cloud_Cover
99 95 100 100 100 100 83 15 94 57 92 91 35 93 100 94 91 100 3 0 1 92 100 6 14 66 100 100 100 100 100 100 100 100 100 100 100 100 100 100 100 100 100 100 100 100 100
7 100 92 100 100 98 64 78 99 93 100 100 67 99 100 100 100 100 9 0 0 4 97 100 100 6 100 100 100 100 100 100 100 100 100 100 100 100 100 100 100 100 100 100 100 100 100
25 64 99 69 100 81 100 77 100 40 90 100 100 100 100 100 100 100 49 47 4 71 91 100 100 5 100 100 67 100 100 100 100 100 100 100 100 100 100 100 100 100 100 100 100 100 100
92 80 52 100 100 58 88 43 100 93 93 100 100 100 100 100 100 100 72 95 70 5 86 100 93 35 100 58 42 100 100 100 100 100 100 63 100 100 100 100 100 100 100 100 100 100 100
74 100 100 100 100 75 79 91 27 100 100 100 100 100 100 100 100 100 93 99 86 37 3 92 13 45 93 11 58 100 100 100 100 100 100 97 94 100 100 100 100 100 100 100 100 100 75
71 100 82 100 100 90 80 89 25 53 99 100 100 88 91 100 100 100 88 89 100 3 0 32 70 99 97 66 100 100 100 100 100 100 100 100 88 89 100 100 100 100 100 100 100 100 84
99 100 100 100 100 100 100 100 56 79 100 100 100 100 16 66 100 98 85 68 54 4 0 10 57 99 100 100 100 100 100 100 100 100 100 100 100 100 78 100 100 100 100 100 100 100 100
100 100 93 75 100 100 100 45 49 75 100 99 23 100 100 100 96 72 44 90 5 8 27 82 86 86 80 100 100 99 100 100 100 100 100 100 100 100 93 12 58 100 100 100 100 100 100
100 96 100 95 96 100 100 60 70 46 100 14 5 57 100 100 81 58 89 40 6 64 74 100 100 100 100 100 100 100 100 100 100 100 100 100 100 100 100 93 83 100 100 100 100 100 100
58 100 68 86 100 100 75 86 98 84 62 29 72 9 86 46 56 74 25 9 7 52 97 100 100 100 100 100 100 100 100 100 100 100 100 100 100 100 100 100 100 100 100 100 100 100 100
8 92 94 97 100 100 100 100 100 99 18 13 13 7 5 90 91 77 5 88 25 100 100 100 100 100 100 98 87 100 100 100 100 100 100 100 100 100 100 100 100 100 100 51 91 100 100
62 22 97 98 100 100 100 100 82 100 10 5 55 46 69 98 65 92 5 5 40 84 91 100 100 96 73 60 95 100 100 100 100 100 100 100 100 100 100 100 100 100 100 100 63 100 100
5 42 17 100 100 100 100 100 60 100 71 6 4 3 42 43 3 2 4 3 7 49 100 100 100 54 10 91 100 100 100 100 100 100 100 100 100 100 100 88 95 100 99 100 94 30 63
92 46 5 66 100 100 98 100 99 100 11 1 5 3 22 75 100 98 38 5 79 100 100 100 71 34 81 76 97 100 100 86 100 100 100 100 100 100 100 86 94 100 100 76 66 100 90
100 100 94 56 100 100 100 100 100 92 55 0 2 5 4 70 100 99 72 42 100 100 100 76 48 21 76 38 100 100 100 100 100 100 98 100 100 100 100 100 100 100 100 34 95 62 19
76 83 52 37 96 100 100 100 100 57 100 1 0 4 3 5 27 57 14 100 92 76 62 40 62 88 92 100 100 100 100 100 100 100 100 100 100 100 100 100 100 100 100 62 42 92 81
20 16 23 95 9 100 100 100 94 98 78 0 0 3 5 5 6 5 75 100 72 6 5 5 5 5 77 100 99 97 92 100 100 100 100 100 100 100 100 100 100 100 100 90 100 100 100
99 39 61 100 82 100 100 100 69 100 61 0 0 2 5 5 16 46 100 100 53 5 9 5 7 66 25 30 56 80 100 100 100 100 100 100 100 100 100 100 100 100 100 99 100 100 100
91 95 96 100 94 94 100 100 56 100 86 59 0 0 0 3 69 100 98 95 71 5 5 5 7 8 49 69 96 100 100 100 100 100 100 100 99 100 100 100 100 100 100 99 99 100 89
37 100 100 79 100 97 99 100 100 100 100 3 0 2 0 0 5 72 93 6 6 5 5 5 5 34 36 29 86 100 100 100 86 94 100 100 100 100 100 100 93 97 100 100 100 100 88
49 84 100 100 99 100 100 100 100 40 100 48 16 93 97 72 3 5 5 5 5 5 5 5 5 5 16 19 26 86 98 100 92 91 100 100 100 100 100 100 100 100 100 100 100 98 90
56 48 5 99 100 100 100 100 100 78 100 100 42 96 98 100 7 0 0 5 5 5 5 5 5 5 5 97 100 65 100 62 79 69 100 100 100 100 100 86 82 99 100 100 99 90 100
100 10 5 64 37 89 100 100 100 100 100 100 100 98 97 38 5 1 0 0 5 5 5 5 18 34 56 68 70 98 100 100 92 87 100 100 100 100 100 100 98 100 100 99 84 100 100
100 43 5 72 100 64 100 100 100 100 100 100 100 100 100 69 12 5 5 4 0 5 5 5 24 100 100 70 57 81 100 100 100 74 52 100 100 100 100 100 100 100 100 100 100 100 100
90 22 5 62 100 97 100 100 100 100 100 100 100 73 94 100 67 5 42 5 5 1 5 15 40 100 85 86 98 97 100 95 88 100 100 100 100 100 100 100 100 100 100 100 100 100 100
59 26 100 100 100 100 100 100 100 100 100 100 100 100 100 89 18 99 100 31 6 5 5 3 14 88 100 98 100 100 78 99 55 100 100 100 100 90 98 100 100 100 100 100 100 100 100
93 78 94 100 96 100 100 100 100 100 100 100 100 100 100 100 32 29 91 97 96 18 5 5 5 8 66 100 100 99 99 54 76 57 100 100 100 94 100 100 100 100 100 100 100 100 100
100 100 93 100 100 100 100 100 100 100 100 100 100 100 100 100 90 78 100 96 100 100 81 8 5 6 5 46 86 100 72 70 62 37 34 54 99 100 100 99 87 97 100 100 99 97 90
100 100 100 100 100 100 100 100 100 100 100 100 100 100 100 100 100 100 100 100 98 90 100 100 51 5 5 8 83 93 100 12 48 66 27 14 6 93 73 84 72 73 90 86 96 83 76

GFSGBSN_prec_cloud_033.txt.gz
Cloud_Cover
14 21 100 98 100 100 98 52 100 64 78 49 57 84 100 96 100 100 100 100 100 67 3 0 64 100 21 6 100 32 78 100 94 100 100 100 100 100 100 100 100 100 100 100 100 100 100
20 88 91 99 100 100 88 49 100 57 26 46 26 100 100 100 100 100 100 100 100 48 0 6 100 98 5 96 100 98 100 100 71 100 100 100 100 100 100 100 100 100 100 100 100 100 100
94 97 100 100 58 100 100 99 23 41 7 5 21 63 74 100 100 100 100 100 100 39 5 5 100 34 61 36 97 100 100 100 100 100 100 100 100 100 100 100 100 100 100 100 100 100 100
99 100 100 100 98 100 95 77 99 42 87 81 92 80 21 100 82 100 100 100 98 100 57 76 88 5 90 58 100 100 100 100 100 100 100 100 100 100 100 100 100 100 100 100 100 100 100
100 100 100 100 100 100 100 100 100 100 81 70 60 100 83 5 8 44 100 100 96 70 7 85 45 7 15 3 72 100 100 100 100 100 100 100 100 97 100 100 100 100 100 100 100 100 100
95 97 91 100 100 100 100 100 94 98 100 84 5 11 98 98 100 38 99 70 100 96 35 98 33 90 15 3 59 100 100 100 100 100 100 100 100 62 100 100 100 100 100 100 100 100 100
12 40 74 100 100 100 100 100 52 99 86 94 100 27 20 56 100 100 6 89 77 61 51 4 10 98 19 2 59 100 100 100 100 100 100 100 100 100 100 100 100 100 100 100 100 72 100
63 20 94 34 100 100 100 100 96 25 92 40 99 7 9 99 26 28 82 92 9 14 20 6 78 100 100 18 47 100 100 100 100 100 100 100 100 100 100 100 100 100 100 100 100 95 33
5 43 4 48 38 100 100 100 100 44 40 18 52 10 5 11 30 27 98 16 5 45 70 100 98 100 100 44 97 100 100 100 100 100 100 100 100 100 100 100 100 100 100 100 100 100 99
34 15 9 5 40 100 100 100 100 65 3 0 97 7 67 5 36 38 17 13 99 59 35 87 98 100 100 100 100 100 100 100 100 100 100 100 100 100 100 100 100 100 100 100 100 100 100
5 5 5 5 5 98 100 100 100 80 0 0 7 5 5 7 36 5 10 6 100 58 96 100 100 100 100 62 100 100 100 100 100 100 100 100 100 100 100 100 100 100 100 100 100 100 100
13 5 5 5 5 20 100 100 100 100 0 0 4 5 0 6 5 94 69 68 100 100 100 100 100 100 100 99 98 100 100 97 100 100 100 100 100 100 100 100 100 100 100 100 100 100 100
94 5 6 24 5 41 100 100 100 96 76 6 1 27 0 2 9 5 5 5 6 62 100 100 99 100 100 83 100 100 100 100 100 100 100 100 100 100 100 100 100 100 99 83 90 100 100
15 84 21 100 74 100 100 100 100 100 100 91 0 0 0 0 16 100 67 57 42 100 100 78 57 20 52 67 100 100 100 100 100 100 100 100 99 95 100 100 100 100 100 86 89 55 98
12 82 87 100 86 100 100 99 100 54 100 99 0 0 0 0 0 9 34 77 100 100 97 37 44 66 95 100 100 100 58 93 100 100 100 100 100 99 100 100 100 94 78 98 96 100 100
12 100 96 66 100 62 100 100 55 95 57 16 0 0 0 2 0 35 4 99 97 62 13 5 5 5 6 88 100 100 100 98 100 100 100 100 100 100 100 100 100 98 49 19 100 99 75
54 100 100 26 13 92 59 100 51 99 78 4 0 0 1 3 0 0 90 100 100 82 6 5 5 58 62 55 99 100 100 100 100 100 100 100 100 100 100 100 59 90 14 42 84 100 60
67 97 100 100 50 8 85 100 97 79 100 9 0 0 0 3 5 20 78 63 62 35 5 5 5 11 55 71 99 100 100 99 100 100 100 100 100 100 100 100 75 100 100 100 100 100 100
24 64 79 100 86 5 15 100 100 76 73 100 5 0 0 0 24 100 100 91 59 5 5 5 5 13 30 5 12 29 100 100 100 100 100 100 100 100 100 100 100 100 91 100 100 100 100
34 99 26 64 24 58 5 28 100 100 55 68 52 4 0 0 0 4 4 19 5 5 5 5 5 5 5 5 19 70 98 96 100 100 100 100 100 100 100 100 100 100 100 100 100 100 100
100 100 52 88 12 15 5 8 79 100 100 94 100 88 95 72 3 1 2 5 5 4 4 5 5 5 5 5 6 27 24 98 100 100 100 100 100 100 100 100 100 100 100 100 100 100 100
100 100 76 58 26 76 5 5 94 100 100 93 100 88 93 100 34 3 2 5 5 5 4 5 5 5 5 5 7 5 5 29 59 100 100 100 100 100 100 100 100 100 100 100 100 100 100
100 100 94 32 9 72 5 5 43 92 98 100 100 100 100 91 5 4 3 4 5 4 2 4 5 5 7 8 24 26 5 51 86 97 100 100 100 100 100 100 100 100 100 100 100 100 100
100 100 9 5 38 100 10 90 56 100 100 100 100 100 100 76 13 8 5 5 5 5 4 5 5 5 42 91 87 24 45 76 65 42 65 100 100 100 95 76 81 74 100 100 100 100 100
100 100 82 89 98 100 91 100 95 100 100 100 100 100 100 100 100 17 48 52 5 5 5 5 5 5 38 84 88 88 62 77 87 100 100 100 100 96 100 95 74 46 100 72 70 81 100
93 84 52 100 100 99 100 100 100 100 100 100 100 100 100 100 100 71 62 100 47 5 5 5 5 5 5 98 99 94 85 63 76 100 100 100 100 99 100 98 56 66 100 100 100 100 100
84 97 100 90 98 100 100 100 100 100 100 100 100 100 100 100 98 84 100 48 91 100 100 82 5 5 10 28 100 100 88 83 71 93 100 96 100 100 99 96 35 6 100 100 100 100 100
100 92 76 100 100 100 100 100 100 100 100 100 100 99 100 100 100 100 100 100 100 100 100 100 96 72 56 88 98 96 97 92 75 21 100 97 100 100 99 100 100 45 98 95 100 100 100
94 100 66 100 100 100 100 100 100 100 100 100 99 100 100 100 100 100 100 100 100 100 100 100 100 93 60 97 28 18 85 96 97 66 6 59 96 98 78 45 40 96 100 100 100 100 100

GFSGBSN_prec_cloud_036.txt.gz
Cloud_Cover
1 100 98 99 61 100 98 89 81 6 5 17 5 6 94 79 100 100 95 100 100 100 100 100 51 12 14 19 2 39 91 99 92 6 5 100 100 100 100 100 100 100 100 100 100 100 100
2 13 22 100 100 56 88 87 20 7 5 5 23 71 98 100 100 54 60 100 100 100 98 92 17 25 53 42 1 49 100 53 86 34 85 100 100 100 100 100 100 100 100 100 100 100 100
12 100 68 100 100 76 88 5 5 17 56 80 58 49 94 100 100 99 98 100 100 100 72 5 5 5 56 5 14 89 100 100 99 4 78 100 100 100 100 100 100 100 100 100 100 100 100
6 63 97 100 100 72 47 37 45 83 100 74 20 9 30 100 50 72 100 100 100 100 17 45 5 27 33 0 93 6 98 100 100 100 92 100 100 100 100 100 100 100 100 100 100 100 100
7 33 100 86 100 75 100 80 78 22 99 100 100 40 18 99 82 100 15 82 65 77 9 14 8 97 5 0 69 82 96 99 99 99 98 100 100 100 100 100 100 100 100 100 100 100 100
5 31 4 33 100 100 96 97 12 80 92 52 74 4 5 48 100 100 99 8 5 5 23 20 36 60 4 24 70 100 100 100 82 100 100 100 100 100 100 98 100 100 100 100 100 100 100
6 45 5 5 48 100 50 67 79 89 100 75 90 28 5 63 11 6 30 17 43 5 0 68 65 99 16 5 100 100 94 100 91 100 100 100 100 99 22 100 100 100 100 100 100 100 100
5 82 16 5 5 100 100 92 100 100 100 31 97 1 51 10 5 39 63 48 1 34 6 91 100 100 100 99 100 100 100 100 100 100 100 100 100 100 100 100 100 100 100 100 100 100 100
6 35 5 5 5 67 99 84 99 100 27 6 60 3 0 4 5 4 11 35 5 33 89 100 100 100 84 59 100 100 99 100 95 100 100 100 100 90 100 100 100 100 100 100 100 100 100
9 5 5 41 5 50 100 80 58 98 42 0 2 0 4 4 5 42 36 48 55 100 100 100 100 98 23 78 100 100 100 100 100 100 100 100 100 98 81 100 100 100 100 100 100 100 100
10 12 5 86 34 5 78 100 70 100 100 14 0 0 0 0 2 55 83 26 19 77 92 100 100 100 100 100 98 100 100 100 100 100 100 100 100 80 73 100 99 89 100 100 100 100 100
77 44 17 48 53 15 50 98 86 22 100 100 1 0 0 0 4 17 84 5 10 68 96 100 100 95 100 100 100 100 100 100 100 100 100 100 100 93 100 100 100 97 100 100 100 100 100
9 67 7 23 61 6 15 100 46 39 86 100 66 0 0 0 0 0 14 51 74 66 92 99 100 100 100 100 100 100 100 100 100 100 100 100 100 100 100 100 100 99 100 100 100 100 100
34 100 84 99 13 12 23 84 100 3 46 100 61 0 0 0 0 8 50 11 19 100 87 63 100 100 100 100 100 100 100 100 100 100 100 100 100 100 100 100 100 100 99 100 100 100 100
89 26 100 100 100 94 44 12 98 84 7 91 0 0 0 0 0 46 39 34 71 96 98 97 32 98 98 96 80 91 99 100 100 96 100 87 100 100 100 100 100 100 100 100 100 100 100
61 100 100 98 100 100 54 60 79 100 22 41 0 0 0 0 24 37 11 88 84 35 11 5 5 6 11 39 85 100 65 99 100 99 100 100 100 100 100 100 100 100 100 100 100 98 100
100 99 66 79 10 89 91 48 67 58 96 5 0 0 0 0 23 3 91 94 62 5 5 5 8 16 35 38 23 52 76 100 100 89 100 100 100 100 84 100 100 100 100 100 100 100 100
99 100 85 85 5 19 100 54 100 62 100 91 0 12 0 0 8 8 96 100 100 29 5 5 5 25 8 5 5 5 6 79 100 100 100 100 100 100 100 95 98 100 100 100 100 100 100
100 100 94 30 14 5 5 5 5 39 52 100 19 2 0 0 4 5 5 5 49 5 5 5 5 5 5 30 43 64 100 95 18 98 100 100 100 100 100 100 100 12 48 100 98 80 100
100 100 100 21 41 7 4 2 5 10 89 63 100 97 0 0 0 0 3 1 1 0 0 0 5 5 5 5 5 53 60 100 100 100 100 100 100 100 100 99 100 100 94 77 97 100 76
100 99 86 5 5 6 5 5 4 5 80 100 100 97 93 8 0 0 1 4 5 2 0 5 5 5 5 5 5 43 59 100 100 100 100 100 100 100 100 71 53 99 100 100 100 81 100
59 87 44 5 5 5 5 5 5 8 60 90 100 100 100 100 90 3 2 5 5 5 4 0 5 5 5 5 5 5 76 99 100 100 100 100 100 100 100 100 100 100 100 100 100 100 67
80 89 7 8 5 10 15 11 5 22 93 100 95 99 100 100 42 4 2 3 5 5 1 0 4 5 5 23 23 20 10 18 93 94 100 100 100 100 100 100 100 100 100 100 100 100 100
5 5 76 8 5 33 70 98 24 73 100 100 100 100 100 98 98 42 5 5 5 5 3 5 5 5 5 5 18 79 100 41 44 99 100 88 100 99 100 100 100 100 100 100 100 100 100
5 5 5 5 5 64 60 99 100 98 100 100 100 100 100 100 100 78 96 38 12 5 5 5 5 5 5 28 99 81 70 87 80 100 94 98 95 64 76 75 100 100 100 100 100 100 100
5 7 15 14 6 100 6 52 98 92 100 100 100 100 100 100 100 100 100 78 71 13 5 5 5 5 5 32 100 100 100 100 99 93 94 100 100 76 80 95 58 48 58 14 78 100 100
93 100 34 42 22 79 38 23 100 100 100 100 100 100 100 100 100 100 100 92 100 100 100 78 37 21 22 16 79 100 100 100 100 100 100 79 91 89 96 100 78 87 95 71 94 89 96
51 6 50 10 9 95 96 54 99 100 100 100 100 100 100 100 81 93 100 100 100 100 100 100 100 78 99 98 96 100 67 92 100 100 89 100 99 91 89 98 97 76 82 96 100 98 100
5 5 5 10 22 57 73 99 99 100 100 100 86 100 100 100 98 94 100 100 100 100 100 100 100 100 94 98 81 85 10 5 38 100 89 90 100 100 100 98 75 98 88 100 100 100 100

GFSGBSN_prec_cloud_039.txt.gz
Cloud_Cover
81 96 62 3 2 71 29 6 5 59 55 35 79 81 79 69 100 82 30 78 77 100 100 100 100 100 100 38 2 1 5 48 95 82 27 93 6 100 100 100 100 100 100 100 100 100 100
90 44 76 16 51 100 78 81 5 8 63 50 40 10 5 6 100 100 68 100 100 100 100 100 100 98 79 12 16 5 55 46 79 100 84 5 3 66 100 100 99 100 100 100 100 100 100
11 1 56 4 40 81 42 5 50 24 85 5 100 90 5 5 100 100 95 100 100 100 100 100 100 100 100 27 15 10 100 94 100 98 37 12 22 87 100 100 100 100 100 100 100 100 100
5 10 1 15 27 100 52 26 15 52 93 77 67 31 6 61 61 37 78 92 83 100 100 100 69 32 100 100 2 51 100 87 99 76 64 7 86 97 100 94 100 100 100 100 100 100 100
87 7 4 1 1 96 79 62 14 87 39 76 100 16 2 5 5 52 66 34 57 75 30 5 4 59 5 40 2 0 100 100 59 100 77 27 79 92 100 100 100 88 100 100 100 100 100
10 50 8 5 5 62 98 62 57 54 56 92 4 5 6 5 5 5 54 15 5 7 23 49 90 66 1 5 3 65 97 100 100 100 39 84 97 76 100 86 70 100 100 100 100 100 100
5 5 5 5 5 54 100 100 92 36 28 55 47 75 38 5 5 62 88 93 48 71 34 94 100 100 29 25 19 100 93 100 100 100 36 100 94 29 5 5 88 100 100 100 100 100 100
5 5 5 5 5 32 100 100 100 76 79 13 0 0 3 5 7 61 5 60 98 93 97 87 94 71 100 92 77 100 72 100 98 100 57 100 84 100 96 68 70 90 100 100 100 100 100
7 6 5 5 5 37 82 100 100 100 87 82 0 0 0 5 88 100 100 66 61 100 100 100 87 99 72 68 100 100 100 100 100 99 81 100 88 100 99 96 97 100 100 100 100 100 100
5 19 5 5 5 76 6 84 100 100 100 100 22 1 5 5 44 86 95 78 76 100 100 100 100 100 100 100 100 100 100 100 100 100 100 99 100 100 100 100 98 100 100 100 100 100 100
99 76 5 5 5 7 5 5 5 99 100 100 48 0 3 5 44 5 20 12 35 97 99 100 100 100 100 100 79 100 100 100 100 100 100 100 100 100 100 100 100 100 100 100 100 100 100
100 77 19 64 83 48 5 5 3 5 73 100 100 17 0 13 3 2 2 10 79 94 95 100 100 100 100 100 100 100 100 87 100 100 100 100 100 100 100 100 100 43 100 100 100 100 100
24 11 35 73 100 100 51 5 3 3 0 5 100 96 0 0 27 2 36 100 98 55 93 88 98 100 100 100 100 100 100 100 100 100 100 100 100 100 100 100 100 100 100 100 100 100 100
5 5 20 100 70 100 44 81 8 4 4 0 63 1 0 1 12 58 100 98 37 99 96 85 99 100 100 100 100 100 100 100 100 100 100 100 100 100 100 100 99 100 100 100 100 100 100
6 5 6 62 17 6 99 37 33 5 2 30 0 0 0 0 57 99 96 51 97 84 60 99 88 99 100 91 87 100 100 100 100 100 98 100 100 100 100 96 97 74 99 86 100 100 100
8 20 6 6 5 1 0 0 6 10 2 29 0 0 0 0 36 100 33 60 89 39 10 10 80 46 99 75 60 91 100 100 100 100 100 100 100 100 100 100 100 100 97 98 100 76 100
90 68 49 5 84 0 0 4 1 33 9 3 27 1 0 0 42 62 77 86 87 5 5 18 5 5 58 37 47 98 100 98 8 71 100 75 78 100 97 100 100 100 100 100 100 87 97
13 100 69 5 41 11 0 0 0 1 98 5 81 58 4 0 43 34 17 5 5 5 0 5 16 98 93 100 100 98 98 96 100 65 91 100 96 100 100 100 100 100 100 100 100 100 100
7 92 45 6 39 7 0 0 0 0 4 99 8 100 72 1 83 56 3 5 3 1 4 5 5 31 57 38 30 49 78 42 99 100 100 97 100 100 87 98 100 100 100 100 100 100 100
5 35 10 5 5 30 3 0 0 0 0 71 66 69 77 5 0 19 5 5 5 0 0 0 3 5 5 5 5 11 5 5 7 95 100 100 68 72 35 89 44 100 100 100 100 100 100
5 7 9 5 5 5 5 5 4 0 0 55 96 90 99 91 6 2 2 3 5 6 1 2 6 5 5 5 5 5 20 97 55 43 47 100 100 100 100 91 18 100 68 88 100 100 100
5 5 5 5 5 6 5 5 2 0 0 5 100 98 98 100 10 46 3 12 5 12 1 10 4 5 5 55 5 5 5 16 100 100 100 85 98 100 100 100 52 10 100 100 100 67 100
5 5 5 5 5 5 5 5 5 4 3 4 83 100 99 98 93 59 36 39 46 5 6 0 4 17 15 63 5 5 12 5 50 100 100 94 100 48 99 85 100 100 100 100 100 100 88
5 4 5 5 5 5 5 7 5 5 5 5 59 100 100 69 100 100 33 14 5 34 45 4 4 62 6 5 5 5 5 12 6 59 90 96 100 90 86 74 64 100 100 100 100 100 100
5 8 79 35 5 5 5 5 5 5 5 5 93 100 100 100 100 100 100 67 30 5 10 7 8 7 5 5 54 100 98 94 72 48 98 99 85 100 100 99 100 65 100 100 100 100 100
8 6 98 91 5 5 5 5 6 30 70 42 6 68 100 100 100 100 100 100 100 100 71 22 9 5 5 39 34 100 99 100 100 100 100 88 100 82 100 88 95 100 100 100 100 100 100
20 13 35 6 5 5 61 5 7 18 62 97 86 49 100 100 100 100 100 100 100 100 100 99 98 62 25 51 99 94 100 69 100 100 100 100 98 94 100 97 99 95 98 80 100 100 100
5 5 5 5 5 5 18 6 19 16 64 87 100 96 100 100 100 100 100 100 100 100 100 100 84 70 100 64 100 88 75 56 94 100 100 100 100 100 100 100 78 100 99 67 84 49 91
5 5 5 5 5 6 50 89 79 88 100 100 100 100 100 100 100 100 100 100 100 100 100 100 100 100 99 100 100 100 87 78 11 89 100 100 100 100 100 100 99 99 86 76 65 100 100

GFSGBSN_prec_cloud_042.txt.gz
Cloud_Cover
68 52 0 28 18 99 100 42 5 5 27 32 3 5 5 5 5 79 95 35 100 100 100 100 100 100 100 100 33 5 100 100 98 22 20 4 1 3 90 100 100 100 100 100 100 94 100
5 7 24 69 28 100 86 26 5 12 60 6 100 43 5 5 5 88 100 100 65 80 100 81 100 100 100 100 38 41 100 100 100 75 40 5 5 18 13 100 100 100 100 100 100 60 100
82 9 39 0 0 100 52 8 6 55 20 23 100 95 0 0 5 99 100 9 43 100 100 76 100 100 100 100 36 5 100 100 100 99 80 85 48 98 57 85 100 100 100 100 100 100 100
8 5 5 5 0 59 98 43 59 57 12 100 20 1 1 4 5 5 5 5 22 84 80 84 100 100 100 23 1 3 95 100 100 100 100 100 42 96 100 15 93 100 100 100 100 99 100
5 5 5 5 1 83 94 45 70 39 91 94 99 79 2 96 0 3 0 3 22 48 93 11 65 84 47 39 5 36 97 100 100 100 100 100 78 96 70 62 39 100 100 100 100 97 100
5 6 5 1 3 5 100 100 7 31 99 8 14 18 3 94 80 76 3 0 0 8 5 6 6 21 6 90 25 38 91 100 100 100 100 100 74 5 90 80 28 90 100 100 100 100 100
5 44 5 5 5 5 30 100 97 76 10 100 0 0 5 66 97 100 100 96 42 57 8 81 72 8 4 100 43 0 90 100 100 100 100 45 40 5 4 0 12 5 100 100 100 100 100
5 16 5 5 5 4 5 5 91 98 100 100 84 0 0 93 22 100 100 100 90 82 46 4 92 6 94 98 15 94 100 96 100 100 78 67 42 60 6 5 18 100 83 100 100 100 100
5 17 21 8 3 18 5 17 0 21 100 100 97 67 0 5 54 94 100 100 92 69 95 78 100 100 54 98 100 90 87 100 100 100 47 95 96 55 87 18 20 54 5 89 100 100 100
5 48 5 5 50 100 100 15 0 0 0 60 100 100 1 0 25 11 100 81 88 85 100 90 84 100 100 100 100 100 100 100 100 100 98 84 73 27 95 72 32 100 12 99 94 100 100
5 8 5 2 5 100 52 98 95 0 0 5 5 100 19 0 0 16 8 47 47 100 100 100 100 100 86 100 100 100 100 100 58 85 64 47 40 23 61 81 98 100 17 7 26 100 100
7 11 4 31 5 18 25 28 4 77 0 2 3 100 44 23 32 81 24 14 100 94 69 100 100 100 100 100 96 100 100 100 100 97 100 100 95 99 100 100 100 58 53 33 100 100 62
5 5 5 68 56 0 1 0 1 5 0 0 9 94 45 0 45 16 77 100 100 42 61 99 100 100 100 100 100 100 100 100 95 100 100 100 100 100 100 100 100 100 97 100 100 100 40
5 5 8 4 100 100 2 0 0 3 2 0 2 9 0 0 39 82 100 99 86 99 77 73 100 100 100 100 100 100 100 100 100 100 100 100 100 100 100 100 100 100 100 100 93 100 78
5 5 23 5 52 90 10 2 0 0 5 3 0 48 1 0 20 81 100 86 92 100 100 100 100 100 100 100 99 100 100 100 100 100 100 100 100 100 100 100 100 66 65 96 78 99 100
7 6 74 80 3 100 100 0 0 0 0 5 36 25 5 1 3 72 62 52 86 10 56 48 80 96 99 89 100 100 83 100 100 100 100 100 98 100 100 100 100 100 100 100 98 86 100
9 15 100 97 11 44 96 2 0 0 0 5 61 6 5 84 61 95 67 64 31 4 4 20 13 60 96 80 88 100 99 100 99 100 100 100 93 100 100 100 100 100 90 96 100 100 100
5 21 33 7 5 4 26 0 0 0 0 0 51 64 89 74 29 88 5 5 0 0 0 2 5 5 7 5 53 88 100 100 100 100 100 100 95 100 100 100 100 100 100 67 93 100 73
5 31 9 5 2 0 3 1 0 0 4 97 1 5 60 100 98 83 4 4 4 4 5 5 4 5 5 5 5 52 81 100 100 100 100 98 100 94 85 57 100 100 100 100 100 100 100
5 10 12 6 1 4 5 9 0 0 0 66 8 46 37 100 100 95 34 5 6 0 0 1 4 5 10 48 49 26 28 24 54 98 100 100 100 100 100 100 100 100 100 100 100 100 100
14 8 5 7 5 5 4 5 0 0 0 1 5 77 34 85 100 100 39 23 19 42 3 0 5 6 42 84 11 37 11 14 14 55 38 100 100 96 100 100 100 100 100 100 100 100 100
99 2 5 5 0 4 5 5 0 0 0 0 31 54 8 96 100 100 100 100 22 73 5 84 7 33 5 88 96 100 5 7 13 12 74 93 100 100 100 77 5 5 86 100 100 100 100
3 4 5 5 5 5 5 5 5 3 0 4 2 5 96 99 98 100 100 100 99 13 37 4 16 54 8 53 5 5 16 15 23 45 98 100 95 85 100 98 90 100 99 69 100 100 100
0 5 5 5 5 5 5 6 5 5 5 5 5 49 24 100 100 98 100 100 98 90 42 3 14 100 68 5 5 5 5 5 5 12 100 100 97 100 87 61 100 100 100 97 10 56 91
5 5 5 5 5 5 5 5 7 10 5 14 5 5 14 57 100 100 100 100 100 86 5 13 48 5 5 5 76 22 52 66 80 7 34 93 100 91 91 77 92 87 100 100 100 100 100
5 6 8 6 5 5 5 5 5 5 5 17 59 5 17 84 94 100 100 100 100 100 100 93 16 5 5 33 49 99 100 74 100 100 85 95 100 85 100 100 86 100 98 100 100 100 100
0 2 5 5 5 5 5 5 5 5 5 29 96 40 60 50 73 97 100 100 100 100 100 100 97 67 12 72 100 92 99 45 82 86 56 65 74 70 100 100 99 100 97 100 100 100 100
5 1 5 5 5 5 5 43 90 14 40 88 96 100 100 69 81 84 72 100 100 100 100 100 100 99 100 99 96 82 24 5 37 100 86 22 56 91 88 100 100 100 93 82 100 100 100
5 5 5 99 95 9 5 25 10 5 5 85 100 100 100 100 11 86 90 100 100 100 100 100 100 100 100 100 48 82 87 97 33 26 87 100 35 64 78 89 100 91 100 100 91 98 71

GFSGBSN_prec_cloud_045.txt.gz
Cloud_Cover
99 8 95 5 5 28 98 63 55 59 29 4 100 98 41 0 0 5 57 19 29 31 48 86 100 99 100 100 100 49 3 100 100 100 100 17 0 0 0 20 100 100 100 100 100 100 100
85 32 84 5 5 93 100 91 4 97 96 38 97 49 0 0 0 5 18 98 80 5 78 94 92 100 100 100 100 14 14 97 100 100 100 63 4 0 0 0 94 100 100 100 100 100 100
39 9 100 5 3 38 100 40 51 100 100 20 100 83 19 4 4 33 4 0 7 5 96 72 75 100 100 100 94 69 100 24 100 100 100 100 77 0 0 3 24 100 100 100 100 100 100
9 56 43 5 3 0 100 100 29 95 100 14 8 92 0 5 36 100 14 0 0 5 91 100 100 100 100 100 50 37 100 100 100 100 100 100 100 9 5 23 5 100 100 99 100 100 100
5 68 35 5 5 0 2 96 76 100 38 90 0 0 4 5 99 100 14 1 1 1 5 5 39 100 100 100 91 3 99 100 100 100 100 100 100 42 45 90 51 77 100 100 100 100 100
4 70 9 12 65 1 5 5 49 100 99 1 91 0 0 4 51 100 4 4 5 77 1 4 15 76 79 5 22 1 86 100 100 100 100 100 98 77 8 5 26 3 97 100 100 100 100
5 39 5 32 100 100 8 5 5 15 100 100 93 7 0 0 17 100 91 38 11 19 5 86 6 5 3 4 5 1 98 100 100 100 100 76 18 74 84 16 3 0 8 100 100 100 100
6 5 29 26 100 100 100 96 5 0 6 82 100 17 0 0 2 57 40 5 34 39 27 5 0 0 4 71 20 100 100 100 100 100 100 100 100 90 100 47 12 5 5 60 100 100 100
8 5 65 41 11 100 11 5 31 92 0 1 65 100 80 0 0 4 5 40 28 27 93 92 20 5 12 100 100 100 100 100 100 100 100 100 62 100 86 18 5 5 5 2 86 100 100
8 7 5 47 78 10 3 1 3 5 32 52 11 100 97 10 1 0 9 76 100 100 93 100 97 100 100 66 98 100 90 100 100 100 100 100 20 66 16 61 9 5 5 75 5 98 100
1 6 6 88 60 3 13 0 0 3 14 42 3 53 96 2 0 1 7 5 6 71 100 100 100 100 100 95 100 100 100 100 100 100 100 100 94 8 11 12 5 5 7 100 6 5 100
17 6 4 96 100 100 37 0 7 0 8 1 0 100 96 4 3 22 100 25 44 44 93 100 100 100 100 100 100 100 99 64 100 100 100 100 99 97 70 84 47 22 5 10 93 91 57
4 9 50 87 38 100 100 73 0 0 4 2 0 100 92 0 3 58 82 90 53 84 87 100 99 100 100 100 100 95 100 98 100 100 99 100 96 72 79 62 33 6 36 92 98 43 24
5 11 49 100 52 41 100 100 1 0 0 0 0 1 4 0 0 95 100 91 22 93 95 97 100 93 97 99 100 100 100 100 100 33 100 99 100 100 100 74 64 10 97 85 52 50 5
3 23 100 100 6 66 100 100 24 0 0 0 0 0 0 0 0 68 91 12 22 57 76 100 100 100 100 100 100 100 100 100 55 40 50 82 99 100 100 88 90 99 94 71 100 14 18
17 14 100 100 26 4 100 77 8 4 0 0 1 1 0 4 4 99 64 18 49 53 10 100 100 100 100 100 100 100 100 100 100 100 100 100 100 100 100 100 100 100 100 97 88 95 92
5 14 76 83 1 3 12 1 13 0 0 0 2 6 1 4 42 100 12 40 5 5 8 52 86 85 100 100 100 100 100 100 92 85 38 74 91 100 100 100 100 100 100 98 98 96 100
5 10 32 14 0 12 0 0 22 0 0 0 2 53 2 5 81 91 6 5 2 1 0 1 5 43 41 100 99 50 96 90 100 100 100 100 100 98 100 100 100 100 100 100 100 94 100
5 5 4 0 0 0 4 0 0 0 18 92 40 2 5 36 73 100 8 5 5 3 4 5 5 1 5 5 40 54 100 98 98 82 89 58 54 89 96 100 100 100 100 100 100 100 100
5 5 0 0 0 2 0 0 0 0 0 2 36 47 36 18 100 99 93 5 4 1 0 0 5 5 5 5 5 6 13 44 99 100 100 100 70 57 15 100 60 100 100 100 91 100 100
5 0 0 0 0 0 0 0 0 0 0 0 2 60 13 100 60 100 100 84 5 19 4 0 2 4 5 5 5 5 25 18 51 54 79 98 79 40 100 89 92 96 100 100 100 100 100
4 0 0 1 0 1 6 17 0 0 0 0 4 10 6 58 7 49 96 100 16 100 7 83 4 5 5 5 5 5 5 18 5 48 57 74 97 100 100 95 97 15 97 100 100 100 100
4 4 0 5 0 4 2 0 0 0 0 0 0 5 20 5 94 51 100 100 100 60 44 5 8 34 5 40 89 21 5 5 5 9 53 24 13 6 43 86 60 92 92 41 100 100 97
0 3 5 6 5 3 0 0 0 3 4 1 5 7 5 21 24 89 100 100 100 100 78 5 23 100 69 77 5 5 5 5 5 5 53 99 98 60 100 99 86 100 14 5 5 9 85
0 60 11 60 8 0 0 3 5 5 5 5 4 5 5 32 28 78 98 92 100 100 99 12 6 59 32 5 5 25 5 10 36 41 100 100 100 99 95 98 100 100 100 100 91 19 33
5 5 37 42 5 3 5 5 5 5 5 5 5 5 5 7 41 93 85 100 100 100 100 96 70 38 5 50 53 100 99 80 81 77 62 96 98 99 100 100 100 99 22 58 100 100 99
5 5 62 37 5 5 5 5 5 5 12 5 48 77 14 7 22 28 88 100 100 74 100 100 100 100 79 5 80 100 95 53 37 13 67 85 100 75 57 100 100 83 54 97 100 100 100
11 8 40 15 32 10 5 5 5 5 5 6 79 79 74 68 48 56 32 92 100 80 100 100 100 100 100 98 100 99 83 36 5 5 6 77 100 58 70 98 92 86 78 100 95 68 90
19 12 5 99 100 100 82 5 34 5 12 9 69 100 100 100 15 36 50 62 100 100 84 95 100 100 100 100 100 100 100 87 20 68 5 47 17 99 100 93 60 82 56 72 100 100 100

GFSGBSN_prec_cloud_048.txt.gz
Cloud_Cover
99 40 100 24 2 29 100 98 49 85 100 0 1 100 96 7 5 5 2 0 63 89 4 51 78 45 67 95 48 96 100 100 100 100 100 100 76 84 47 20 15 100 100 100 100 100 100
0 9 85 53 38 1 100 98 98 62 43 28 0 2 0 5 5 4 0 0 0 59 99 5 65 100 99 100 24 66 26 100 100 100 100 100 85 14 0 0 0 100 100 100 100 100 100
0 100 65 5 10 0 1 100 100 98 85 94 0 0 4 5 5 2 0 0 0 0 5 87 14 100 99 100 100 98 51 40 100 100 100 100 100 6 2 0 0 89 100 100 100 100 100
3 16 68 19 80 98 0 6 90 100 100 99 47 0 0 4 4 0 0 1 3 0 80 58 17 100 100 100 100 100 100 48 100 100 100 100 100 100 2 0 0 5 100 100 100 100 100
17 39 69 38 100 100 96 59 19 33 100 100 100 13 0 4 4 3 0 0 0 0 5 5 57 100 100 100 100 86 85 100 100 100 100 100 100 100 5 5 1 4 74 100 100 100 100
4 28 44 100 80 100 84 100 98 49 4 81 100 44 15 4 80 1 5 56 0 0 0 0 14 92 100 98 86 100 100 100 100 100 100 100 100 100 21 3 4 1 8 100 100 100 100
12 2 10 100 100 100 24 7 74 100 74 1 12 99 52 0 4 69 4 58 82 4 4 4 10 93 98 98 4 100 100 9 100 100 100 100 100 75 68 4 0 0 0 100 100 100 100
16 3 2 99 100 40 94 76 100 100 100 100 7 5 100 7 0 25 4 95 100 81 7 4 4 2 10 5 5 100 99 59 100 100 100 100 90 100 96 56 23 5 0 17 100 100 100
22 1 20 65 64 27 100 100 100 100 100 100 100 24 100 99 0 2 5 16 99 100 86 12 5 17 1 10 53 100 100 100 100 100 100 100 100 100 99 72 11 2 3 0 100 100 100
15 3 9 100 100 100 93 99 100 100 23 100 100 6 100 64 8 5 5 5 15 92 67 100 64 92 28 95 96 100 100 100 100 100 100 100 100 100 85 98 37 37 5 5 47 100 100
5 12 13 100 24 100 100 100 100 66 36 100 27 0 100 99 3 4 28 68 5 7 98 100 100 86 100 77 100 100 100 100 100 100 100 100 24 98 100 100 75 57 5 5 5 5 100
0 2 25 100 100 100 74 100 4 14 26 7 0 13 93 3 86 22 100 98 80 5 66 100 100 100 100 100 100 100 100 100 100 100 100 100 96 70 100 99 100 38 25 35 5 10 30
0 0 5 100 100 100 100 100 92 22 100 6 0 0 64 9 0 30 100 92 16 42 40 70 100 100 100 93 50 100 100 100 100 100 100 100 100 54 46 18 64 8 97 70 100 99 23
0 1 33 100 100 100 47 100 98 100 47 0 0 0 3 0 0 54 95 71 7 41 99 100 66 86 100 100 100 100 100 100 77 99 75 100 100 100 76 14 14 92 92 8 16 56 5
0 8 3 100 100 72 94 61 32 88 0 0 0 0 0 0 15 100 93 23 7 5 5 93 100 100 100 100 100 100 100 99 100 100 85 26 97 100 100 71 72 69 82 26 11 6 5
0 20 8 93 100 9 31 4 2 8 0 0 0 0 0 2 77 100 87 22 14 5 64 5 37 55 100 100 100 98 83 87 65 15 63 41 95 100 100 94 99 65 91 82 82 99 10
0 6 49 11 1 2 1 3 2 0 0 0 0 6 5 24 93 100 27 19 5 5 19 100 26 20 44 58 72 45 62 100 88 78 63 86 56 100 100 100 100 100 100 74 69 74 44
0 9 1 0 0 3 10 0 0 0 0 0 0 77 5 33 100 87 11 5 2 0 0 43 100 62 5 7 100 95 98 94 21 8 62 13 45 100 100 100 100 100 94 100 100 87 98
5 0 0 0 3 0 0 0 0 0 0 0 15 4 71 78 98 6 5 5 4 3 0 0 4 65 96 6 32 99 54 94 100 100 100 57 74 99 100 100 100 100 100 100 99 75 68
0 0 1 2 0 0 0 0 3 0 0 0 21 38 74 98 100 46 45 5 4 5 0 0 3 2 4 41 5 5 29 97 88 98 85 81 97 98 77 64 66 100 100 100 100 81 100
2 0 1 2 0 1 1 0 0 0 0 0 6 19 14 95 99 100 100 65 18 16 4 0 0 3 5 5 5 5 5 5 7 13 6 35 96 81 74 18 59 100 71 96 100 100 89
0 2 12 0 0 0 0 0 0 0 0 0 2 4 5 7 67 100 100 100 100 100 77 49 3 5 5 5 12 7 5 5 5 5 5 20 56 83 95 65 6 61 91 100 97 100 100
4 3 2 3 0 0 0 0 0 0 0 0 0 3 18 4 18 69 100 100 100 100 99 83 5 5 43 5 5 5 5 5 5 5 5 5 13 45 93 41 63 56 12 72 99 100 100
40 4 6 11 0 4 1 5 4 2 0 0 1 1 0 3 5 15 40 100 100 100 100 41 8 50 5 5 5 7 6 5 5 5 5 5 5 14 38 8 19 94 14 6 67 36 9
16 13 31 2 0 2 5 5 5 5 0 0 1 0 5 5 3 5 5 73 100 100 100 100 94 96 94 67 10 5 5 5 6 13 5 5 5 26 52 55 92 33 62 32 15 22 26
3 84 5 5 5 5 5 5 6 6 0 2 3 1 5 5 5 5 5 65 92 100 100 100 100 100 95 98 28 5 8 5 7 93 100 100 100 79 94 96 100 90 100 100 91 97 77
16 62 38 17 5 5 6 5 5 5 4 3 5 5 5 5 5 5 29 61 67 80 100 100 100 100 88 68 86 28 5 5 7 12 81 98 100 99 92 97 95 9 53 67 58 52 55
59 98 5 42 6 5 15 5 5 5 5 5 6 22 49 70 9 5 5 18 95 33 97 100 96 100 100 100 95 78 55 21 5 14 5 6 100 81 98 100 50 84 51 40 46 92 36
100 20 9 23 8 20 5 10 74 96 98 5 91 98 70 22 23 5 5 5 66 90 83 99 100 100 100 100 100 100 100 52 76 40 5 8 5 5 87 100 100 98 88 82 97 97 100

GFSGBSN_prec_cloud_051.txt.gz
Cloud_Cover
78 100 23 74 54 11 0 90 52 30 99 100 5 100 57 0 15 4 0 4 0 0 92 99 5 21 51 30 9 100 99 100 100 100 100 100 100 90 4 99 75 40 98 100 100 100 100
5 19 84 59 80 97 18 10 98 56 94 91 99 10 100 12 0 0 0 5 2 0 6 54 7 57 82 81 53 62 83 100 100 100 100 100 100 100 5 50 100 63 99 100 100 100 100
6 5 82 4 100 62 100 41 86 70 100 100 100 93 34 19 0 0 0 25 0 0 4 5 5 71 73 72 24 42 100 60 100 100 100 100 100 100 98 78 1 58 55 100 100 100 100
7 13 5 100 69 98 97 99 100 82 10 99 100 100 47 4 5 0 0 28 0 0 1 0 3 88 100 100 100 100 100 48 100 100 100 100 100 100 100 56 1 4 39 60 100 100 100
5 5 26 90 5 51 42 55 16 98 100 46 100 100 100 21 4 0 0 5 0 0 0 1 73 99 100 76 100 92 100 100 97 100 100 100 100 100 100 100 38 19 1 6 100 100 100
5 32 19 53 7 100 98 100 100 99 100 100 99 87 100 100 2 4 2 36 0 0 0 1 18 80 86 100 100 100 100 94 88 100 100 100 100 100 77 71 14 0 0 0 84 100 100
5 8 71 5 100 100 100 100 100 100 100 100 100 100 56 100 79 5 2 32 48 4 0 2 3 69 58 100 98 94 83 85 91 100 100 100 100 24 44 57 51 4 0 0 4 100 100
5 12 29 63 100 100 100 100 100 100 100 100 100 100 98 100 91 4 4 5 92 8 5 4 5 5 2 27 90 99 55 100 100 100 100 100 100 100 100 28 68 45 0 0 4 100 100
5 5 10 72 12 100 100 100 93 100 100 100 100 100 87 100 4 1 5 32 97 100 52 42 11 5 4 56 17 100 100 100 100 100 100 100 100 100 89 97 27 100 4 0 0 31 100
5 10 28 99 100 100 100 100 100 100 100 100 100 100 26 100 0 4 5 21 11 81 84 100 91 77 45 95 47 100 100 100 100 100 100 100 100 98 29 100 27 100 6 1 0 1 100
5 18 5 16 100 78 99 92 100 100 100 100 100 95 88 100 4 4 18 57 6 58 15 100 98 74 23 79 100 100 100 100 100 100 100 100 100 100 7 100 20 92 5 5 5 5 9
5 5 6 75 100 100 100 100 100 100 100 98 27 13 100 94 98 9 100 94 64 58 79 100 100 97 100 100 99 97 100 100 100 100 100 100 100 85 76 70 49 99 87 57 100 22 12
5 5 7 16 100 100 100 100 42 100 100 25 12 4 82 8 4 36 100 70 35 5 11 100 100 100 100 100 100 100 100 100 100 100 100 100 100 100 98 76 79 90 100 100 100 96 30
5 5 8 5 100 100 100 97 99 100 100 0 10 0 78 0 13 99 100 98 30 25 90 92 100 100 100 20 88 100 100 100 100 100 100 100 100 72 100 94 96 61 86 18 13 56 33
5 5 5 8 5 52 89 99 99 98 7 3 0 0 19 4 100 100 87 35 5 5 58 78 93 100 100 100 100 100 100 100 100 100 100 100 100 100 100 99 94 100 94 97 21 5 5
5 5 22 5 7 1 69 89 70 0 0 0 0 0 5 32 100 95 74 22 8 5 65 92 48 17 100 100 100 95 100 100 100 100 100 100 100 100 100 72 12 6 63 74 53 26 5
5 5 94 5 0 1 31 90 0 0 0 0 0 38 16 100 98 100 72 5 5 5 10 90 97 74 23 99 100 100 100 93 100 100 75 36 100 100 100 100 89 51 98 63 50 6 47
5 5 100 8 3 0 0 9 1 0 0 0 0 64 97 91 100 100 36 5 5 5 5 7 91 100 91 21 39 84 71 100 93 64 45 31 96 100 100 100 100 100 66 45 98 57 18
5 17 70 5 5 0 0 0 0 0 0 0 0 27 73 100 89 30 9 5 10 37 5 5 57 86 78 100 63 25 76 94 95 100 100 100 100 100 100 100 100 100 100 96 96 92 91
19 5 60 5 5 0 0 0 0 0 0 0 4 34 67 97 76 54 5 5 6 5 2 0 4 5 100 55 100 81 28 42 85 83 98 100 100 100 100 100 74 100 100 98 100 100 100
80 7 12 24 3 0 0 0 0 0 0 0 4 15 12 44 64 80 27 12 9 96 6 0 1 5 5 34 7 69 76 96 91 81 96 100 95 86 91 96 45 64 52 68 100 100 65
24 72 5 5 2 0 0 0 0 0 0 0 4 2 5 5 5 12 40 100 35 100 45 19 5 5 5 5 5 5 5 12 81 91 66 13 11 5 5 16 5 17 99 100 100 100 96
100 94 87 6 2 0 0 1 0 0 0 0 0 3 26 1 5 61 17 63 58 75 99 87 46 6 71 74 70 5 5 5 6 35 24 89 78 24 25 5 5 29 43 35 90 100 100
100 100 88 47 2 0 0 2 0 0 0 1 3 1 0 0 4 15 60 29 96 96 100 93 5 5 19 88 97 68 48 23 60 79 70 38 37 22 48 5 57 97 7 5 10 54 54
100 66 100 5 5 1 2 5 5 5 0 4 3 2 2 5 4 4 5 5 49 90 89 100 98 96 93 98 75 79 50 5 6 5 5 5 5 5 10 51 42 7 5 5 15 61 5
91 31 30 99 100 4 5 5 4 1 2 3 5 4 4 5 5 5 4 5 5 53 94 100 100 89 96 100 100 77 23 5 5 36 100 100 60 45 13 64 42 91 6 5 5 34 5
17 52 92 81 24 18 28 4 5 5 3 5 5 5 4 5 5 5 5 5 5 5 19 91 100 100 85 100 98 60 44 13 6 10 6 66 100 78 100 100 96 83 98 26 22 95 24
54 49 75 58 100 100 100 16 14 5 5 5 5 84 6 69 8 5 5 5 5 5 5 63 90 95 97 81 81 98 85 50 5 5 5 5 52 93 100 100 99 87 72 76 70 80 53
50 100 90 100 100 86 30 87 5 26 5 5 9 75 100 5 5 5 5 5 5 92 71 82 98 100 100 100 100 96 100 50 5 5 5 5 5 28 10 96 100 53 69 40 62 78 98

GFSGBSN_prec_cloud_054.txt.gz
Cloud_Cover
31 99 100 55 100 100 100 100 70 8 51 41 100 60 100 100 24 74 5 0 0 0 0 4 5 5 14 22 26 88 71 99 100 100 100 100 96 100 12 10 0 0 59 27 99 100 100
5 46 36 100 42 100 100 100 100 94 3 99 66 95 97 100 79 1 2 0 0 0 0 0 5 5 11 26 5 8 99 100 100 100 100 100 100 100 100 11 5 0 77 97 45 100 100
6 7 74 84 67 98 100 66 44 72 100 81 44 100 78 100 17 8 2 5 0 0 0 0 0 5 12 20 6 5 97 100 99 100 100 100 100 100 100 64 46 5 78 79 64 100 100
5 76 100 14 98 100 100 99 100 95 100 100 100 58 97 55 22 1 0 5 0 0 0 0 18 21 98 71 99 22 99 70 92 100 100 100 100 100 100 100 60 100 100 51 92 100 100
5 24 98 100 87 100 100 100 100 100 100 100 100 100 100 100 17 5 0 31 3 0 1 0 11 29 98 99 94 98 100 98 37 100 100 100 100 100 100 100 100 100 18 9 36 99 100
15 5 76 100 61 100 99 100 100 100 100 100 100 100 100 100 96 48 0 11 5 0 51 1 4 61 100 100 100 100 100 87 68 100 100 100 100 100 100 95 41 16 9 0 0 53 100
88 5 12 100 73 100 69 100 100 100 100 100 100 93 100 100 100 40 1 20 81 2 69 42 1 5 63 98 100 100 86 100 48 78 100 100 100 100 100 94 99 94 8 7 0 0 100
97 6 5 52 100 94 11 100 100 100 100 100 100 21 100 100 100 91 5 4 92 5 90 100 5 5 12 84 94 78 100 100 67 100 100 100 100 100 100 99 97 100 38 92 2 2 97
99 5 5 51 100 95 19 100 100 100 100 100 100 99 100 100 100 5 5 5 13 84 56 100 11 5 7 56 90 100 96 100 77 100 100 100 93 100 58 89 44 100 41 100 14 2 8
100 10 15 23 100 100 13 100 100 100 100 100 100 100 100 100 15 5 5 5 6 100 98 100 99 86 83 32 85 89 99 65 63 100 100 100 100 98 81 61 100 99 84 65 71 0 11
100 5 11 62 100 100 100 100 100 100 100 100 100 99 69 100 22 5 17 48 5 48 93 91 98 84 32 85 7 69 80 36 96 100 100 100 96 97 100 100 99 99 5 9 6 3 5
100 29 8 80 100 97 100 100 100 96 100 100 100 100 100 72 100 10 100 100 44 50 40 99 100 100 100 100 100 100 100 65 66 100 100 100 100 100 97 100 100 24 58 77 5 5 37
100 68 6 96 100 100 100 100 100 97 58 100 100 42 98 0 12 90 100 100 39 20 78 66 100 100 100 100 100 100 100 99 100 100 100 100 100 100 66 96 79 84 96 84 85 92 32
100 32 9 98 100 98 20 100 100 80 25 100 2 66 68 4 97 100 100 69 29 58 98 100 100 100 92 99 100 100 100 100 100 100 100 100 100 100 54 78 99 84 100 5 15 56 5
100 23 7 79 100 78 6 81 82 82 48 66 0 44 12 91 100 100 95 32 6 100 71 100 79 98 97 95 75 100 100 100 100 100 100 100 100 100 93 98 79 32 96 56 24 6 5
100 48 12 99 89 66 93 12 46 10 1 0 0 0 29 100 100 100 90 43 24 90 77 100 100 100 100 95 68 100 100 99 100 100 100 100 99 100 100 96 82 10 91 51 70 25 11
100 92 74 49 85 93 98 5 12 0 0 0 0 40 43 100 100 100 97 23 76 86 17 83 100 100 99 100 88 99 100 100 100 100 100 100 96 100 98 100 98 100 99 98 100 98 54
100 98 88 98 100 89 90 5 5 0 0 0 0 76 100 100 100 100 100 75 76 81 8 5 48 100 100 63 100 100 59 100 100 100 100 100 100 100 100 100 100 100 100 97 100 72 27
100 100 32 98 100 74 85 5 5 0 0 0 0 76 96 100 88 94 91 93 70 5 7 5 35 90 100 82 81 100 100 91 100 99 100 100 100 100 100 86 99 100 100 98 34 14 38
100 100 53 96 100 60 100 5 5 0 0 0 0 21 74 99 74 93 83 28 5 5 41 16 5 5 90 99 67 100 100 100 100 100 98 100 100 100 81 97 89 100 70 100 100 100 77
100 100 93 100 100 49 96 5 5 0 0 0 7 10 5 15 67 100 81 11 8 33 7 13 2 4 11 95 100 23 65 100 100 93 97 100 96 97 90 100 89 94 95 100 100 78 75
100 100 100 100 100 46 63 5 6 0 0 2 1 5 5 5 5 28 98 98 11 35 5 5 5 5 5 5 5 60 51 7 40 86 92 94 98 88 94 71 98 82 100 99 24 8 99
100 100 100 100 100 100 36 5 5 0 0 5 1 5 6 1 5 87 94 90 100 96 96 75 40 5 5 5 5 6 16 5 7 42 60 83 37 17 74 75 93 100 100 42 59 100 76
100 100 100 100 100 100 7 42 10 75 2 4 8 18 0 0 5 43 10 94 100 100 96 100 93 100 12 41 71 39 80 70 27 24 65 27 28 29 72 51 100 100 57 5 33 99 64
100 100 100 100 100 100 11 42 100 72 5 22 10 5 4 5 3 3 5 43 100 99 97 54 100 100 98 96 90 68 22 54 14 54 58 53 7 45 69 49 98 98 32 19 83 29 9
100 100 100 100 100 99 20 21 99 76 100 6 40 8 3 5 5 5 5 4 5 5 5 90 98 100 100 98 96 54 27 6 5 67 93 100 77 55 5 5 17 47 5 25 100 88 70
100 100 100 100 100 100 50 22 34 100 74 33 72 8 1 5 5 5 5 5 9 5 4 60 80 96 100 100 100 91 34 5 17 7 24 61 99 54 47 92 100 5 100 100 57 96 50
100 64 100 100 100 100 28 5 37 100 96 100 100 32 5 10 5 5 5 5 72 5 5 5 53 65 100 100 100 100 40 24 20 5 5 34 44 10 34 85 100 6 15 33 56 87 59
100 93 100 100 100 74 53 100 72 100 85 99 96 5 5 5 5 5 5 5 24 5 5 5 13 99 65 100 100 100 88 91 29 5 8 16 32 74 31 5 20 5 5 5 5 8 78

GFSGBSN_prec_cloud_057.txt.gz
Cloud_Cover
100 100 100 96 100 89 100 100 100 100 100 98 25 23 5 55 24 89 100 5 0 3 0 0 0 5 8 85 66 5 54 45 100 100 100 100 100 99 74 34 4 34 100 100 100 100 93
95 100 100 63 82 38 96 94 100 90 100 100 100 30 0 0 68 59 38 2 4 0 2 0 1 5 3 3 1 5 60 92 100 100 100 100 100 100 48 100 90 1 64 100 100 100 100
43 100 100 100 100 52 93 54 100 100 100 100 100 0 65 53 5 72 1 3 5 2 5 0 3 1 5 8 5 0 66 87 97 100 100 100 100 100 74 100 83 76 0 62 100 100 100
100 100 100 100 96 100 95 83 100 100 100 100 100 100 100 100 90 35 15 2 41 15 76 5 0 4 34 100 85 53 50 93 100 100 100 100 100 100 100 100 100 100 25 0 100 100 36
100 100 93 100 100 100 98 85 100 100 94 100 100 100 100 100 100 33 36 1 39 54 100 5 0 8 62 88 95 100 99 77 80 100 100 100 100 100 100 100 100 100 21 3 51 27 32
100 100 93 100 100 94 95 50 100 100 100 100 100 100 100 100 100 97 6 0 6 97 98 10 0 20 65 55 86 100 88 60 55 100 100 100 100 100 99 100 12 52 33 53 10 62 82
83 100 86 97 100 100 76 100 100 100 100 100 100 100 100 100 98 100 7 0 6 78 59 42 1 5 4 76 83 100 100 96 92 100 100 100 100 90 97 99 95 96 100 73 28 14 100
100 100 100 10 82 100 64 99 100 100 100 100 100 100 100 100 100 97 2 5 5 55 7 28 5 14 5 79 100 100 90 94 100 100 100 100 100 100 98 100 100 88 100 100 7 6 6
100 100 100 22 5 100 87 46 56 100 100 100 100 100 100 100 100 10 4 5 6 34 10 98 95 4 11 27 100 100 100 100 100 100 100 100 100 78 86 100 100 100 100 100 100 10 26
100 100 78 100 22 100 100 98 100 100 100 100 100 100 100 100 2 0 5 5 5 28 5 89 91 99 71 41 97 97 100 100 100 100 100 100 100 51 58 100 100 100 100 100 100 58 11
100 100 100 43 72 100 95 65 100 100 100 100 100 100 100 100 25 4 10 76 47 47 8 85 100 75 93 93 76 62 96 92 9 98 100 100 100 48 87 100 100 100 100 100 100 13 5
100 100 100 20 98 100 76 26 100 100 100 100 100 98 100 92 96 14 100 100 30 30 47 98 100 100 100 100 92 61 56 5 47 100 100 100 67 99 85 100 100 100 100 100 14 16 30
100 100 100 15 100 100 84 55 100 96 43 100 86 48 48 18 6 97 100 88 10 32 72 39 83 100 100 100 100 99 82 30 100 100 100 100 100 97 100 100 93 100 92 96 86 84 26
100 100 100 18 100 100 89 94 99 95 31 99 7 98 5 10 98 100 100 52 38 98 93 62 71 100 96 98 100 100 100 100 100 100 100 100 100 98 100 100 100 100 100 26 21 48 5
100 100 100 100 100 100 100 100 69 21 54 6 7 25 5 98 100 100 93 49 100 100 81 96 93 96 100 100 100 100 100 100 100 100 100 100 100 100 80 73 98 93 91 26 5 5 5
100 100 100 100 100 100 100 100 15 5 15 5 5 5 16 100 100 100 58 82 100 100 95 66 100 100 100 100 100 100 100 100 100 100 100 100 100 100 100 48 93 94 100 90 5 5 5
100 100 100 100 100 100 100 100 88 5 8 5 6 24 47 100 100 98 93 92 100 100 100 98 100 100 100 100 100 66 94 100 100 100 100 100 100 100 100 100 91 64 90 6 37 5 5
100 100 100 100 100 100 100 100 77 5 5 5 5 33 94 100 64 100 100 100 100 100 91 100 100 100 100 100 100 100 100 100 100 100 100 100 100 100 100 100 100 92 57 26 62 33 24
100 100 100 100 100 100 100 100 100 9 5 4 5 78 96 100 80 100 100 100 100 100 89 5 99 98 100 100 92 87 93 88 100 100 100 100 100 100 100 75 86 94 98 81 100 94 62
100 100 100 100 100 100 100 100 100 57 5 4 5 26 72 100 86 97 100 99 100 46 5 5 5 69 100 100 100 100 96 100 75 94 100 100 100 100 100 100 87 100 100 100 100 100 100
100 100 100 100 100 100 100 100 97 85 5 4 5 2 4 26 5 63 98 100 54 38 5 2 2 6 80 100 100 100 100 100 100 84 82 74 35 67 79 73 85 80 95 89 100 100 100
100 100 100 100 100 100 100 100 100 100 26 5 5 5 5 5 5 19 85 91 85 98 14 5 5 5 5 5 80 100 100 100 100 100 63 74 100 100 100 89 41 92 100 98 58 99 100
100 100 100 100 100 100 100 100 100 99 5 5 15 3 0 1 5 41 78 100 100 98 20 35 5 5 5 8 5 42 96 100 99 79 15 70 91 80 100 77 86 100 98 98 95 100 82
100 100 100 100 100 100 100 100 97 65 5 34 4 3 0 0 5 44 36 99 43 100 86 27 5 5 47 7 7 37 28 59 55 45 38 45 19 59 33 5 43 95 20 9 50 12 5
100 100 100 100 100 99 100 100 100 11 5 5 23 5 2 5 2 4 5 65 98 97 100 100 28 22 5 43 58 73 69 15 5 6 26 7 10 27 87 20 71 100 61 54 50 20 15
100 100 100 100 100 100 100 100 100 8 10 23 33 5 5 5 9 5 5 3 5 94 97 100 100 100 97 95 21 27 34 65 74 100 100 100 100 99 100 100 99 5 10 45 14 7 98
100 100 100 100 100 100 100 100 100 7 73 5 23 35 5 6 8 5 5 5 5 4 4 6 87 25 80 100 100 100 96 25 6 5 13 68 95 56 77 86 22 5 10 5 4 23 5
100 100 100 100 100 100 100 100 100 5 5 5 52 9 8 9 18 5 5 5 5 5 5 5 58 72 99 72 100 100 100 90 58 20 14 6 17 22 53 76 67 32 42 95 49 37 98
100 100 100 100 100 100 100 100 100 30 11 26 6 5 3 10 5 48 5 5 5 5 5 5 86 100 92 100 74 100 99 100 76 58 18 35 5 57 5 5 27 26 7 5 78 87 100

GFSGBSN_prec_cloud_060.txt.gz
Cloud_Cover
94 20 43 33 100 100 62 82 100 100 99 100 100 100 84 1 86 65 52 24 9 3 3 0 0 0 2 28 94 95 100 100 68 100 100 100 100 98 5 100 74 100 100 39 100 29 97
99 75 100 100 100 100 89 100 90 71 100 95 100 100 100 100 7 100 10 2 2 5 5 1 1 0 0 4 0 12 99 100 100 100 100 100 100 90 98 100 74 45 100 100 85 35 26
100 100 100 100 100 100 22 53 100 100 100 100 100 100 100 100 100 3 99 0 2 7 5 0 2 8 4 14 4 0 0 80 100 100 100 100 100 100 100 87 100 93 100 100 100 40 63
100 100 100 100 100 100 94 32 58 100 100 100 97 100 100 100 100 100 18 82 2 5 0 0 3 29 6 5 5 28 13 4 94 100 100 100 100 100 100 78 100 100 99 100 90 100 100
100 100 100 100 100 97 100 64 96 100 100 97 75 100 100 100 97 100 18 14 2 5 11 14 9 26 5 5 90 60 13 10 82 100 100 100 100 100 100 100 100 100 44 100 98 100 100
100 100 100 100 100 100 100 96 100 100 100 100 55 100 100 100 100 100 33 1 2 0 2 1 3 51 3 100 78 100 11 38 100 100 100 100 100 100 100 100 94 13 56 100 100 100 100
100 100 100 100 100 100 99 100 100 100 100 100 100 100 100 100 100 100 23 0 1 4 5 13 34 2 5 79 86 97 74 100 24 100 100 100 100 93 99 100 100 100 100 100 100 100 100
100 100 100 100 100 92 99 100 100 100 84 100 99 100 100 100 100 100 21 4 0 5 5 40 98 3 3 74 94 91 100 100 100 100 100 99 100 86 100 81 100 100 100 100 100 100 60
100 100 100 100 100 54 72 100 100 100 97 100 100 100 100 100 100 56 15 5 3 5 5 82 51 8 16 23 100 100 99 60 100 100 99 100 100 100 100 100 98 100 100 100 100 100 39
100 100 100 100 100 27 5 99 82 100 75 100 92 100 100 100 42 4 5 5 5 5 8 55 88 62 38 24 100 100 100 73 100 100 100 100 100 96 100 99 99 100 100 100 100 100 82
100 100 100 100 100 45 5 100 100 100 84 100 100 100 100 99 50 4 3 50 23 5 94 97 100 75 56 36 36 100 100 100 100 100 100 100 100 100 100 100 100 100 100 100 100 100 100
100 100 100 100 100 99 21 96 100 100 98 100 100 100 100 51 26 17 96 61 5 43 72 84 85 84 37 29 82 100 100 86 100 100 100 100 100 100 99 94 91 100 100 100 100 68 62
100 100 100 100 100 56 49 97 100 100 88 52 84 100 11 3 4 66 74 6 41 68 64 46 99 100 100 88 56 99 89 100 100 99 100 100 100 100 99 100 69 95 99 72 83 66 8
100 100 100 100 100 36 6 100 100 100 99 93 40 56 6 8 94 100 35 20 45 92 49 99 100 100 99 100 100 80 100 100 100 100 100 100 100 64 34 72 66 97 92 80 75 14 23
100 100 100 100 100 19 66 100 100 100 90 21 57 11 5 19 98 100 74 54 91 88 52 54 100 97 100 100 89 100 100 100 100 100 100 100 100 99 100 86 100 100 100 100 100 100 99
100 100 100 100 100 15 100 100 100 100 29 13 5 9 8 62 100 88 80 70 75 87 100 69 94 100 100 100 100 100 100 100 100 100 100 100 100 95 100 100 99 100 95 90 96 98 72
100 100 100 100 100 95 100 100 100 100 23 96 6 44 10 99 74 97 78 90 88 14 64 30 90 100 100 100 97 100 100 100 100 100 100 100 94 100 92 100 100 65 23 36 100 18 5
100 100 100 100 100 100 100 100 100 100 19 81 7 55 12 96 98 100 100 97 73 36 5 17 58 77 91 100 100 100 100 100 100 100 100 87 74 100 100 61 48 6 36 48 90 38 5
100 100 100 100 100 100 100 100 100 100 80 33 17 85 83 78 55 99 92 98 98 19 5 6 8 82 14 5 57 56 100 100 100 100 100 100 100 100 99 88 83 44 10 5 5 8 75
100 100 100 100 100 100 100 100 100 98 100 5 84 68 94 99 81 100 90 97 80 44 5 5 7 33 73 15 5 8 75 100 100 100 89 100 100 100 100 86 29 34 20 18 22 74 100
100 100 100 100 100 100 100 100 100 96 98 55 50 5 7 91 11 36 86 7 14 10 5 5 5 5 5 25 7 5 81 89 100 100 100 96 89 71 57 95 100 100 100 100 48 100 98
100 100 100 100 100 100 100 100 100 100 100 13 14 5 5 5 5 9 42 13 7 64 5 5 0 5 5 5 61 98 45 18 96 100 100 100 100 100 100 100 100 100 97 100 100 94 93
100 100 100 100 100 100 100 100 100 100 100 80 5 5 5 4 5 18 17 19 92 62 29 13 5 5 5 5 5 8 71 66 81 79 87 93 79 63 94 89 99 56 100 92 100 87 18
100 100 100 100 100 100 100 100 100 100 100 99 5 5 3 3 7 5 10 68 99 62 52 50 5 5 5 5 6 5 5 5 26 16 5 18 54 10 36 17 54 100 45 5 5 5 5
100 100 100 100 100 100 100 100 100 100 100 88 5 5 0 4 5 5 26 88 9 100 99 94 32 18 5 45 37 43 73 64 78 100 100 90 99 88 64 83 83 73 8 5 5 39 5
100 100 100 100 100 100 100 100 100 100 100 67 5 5 0 5 5 5 5 5 5 5 91 100 94 33 7 7 37 12 68 39 33 84 100 100 99 93 100 84 39 23 20 9 49 58 98
100 100 100 100 100 100 100 100 100 100 100 99 11 5 3 5 5 5 4 1 4 5 4 5 8 43 54 35 95 75 54 5 65 74 20 85 96 67 92 98 37 27 62 70 46 71 52
100 100 100 100 100 100 100 100 100 100 100 93 65 30 5 5 19 5 5 5 5 0 3 2 11 16 98 52 46 49 42 97 70 7 12 70 80 74 85 93 46 76 85 79 100 100 62
100 100 100 100 100 100 100 100 100 100 100 100 63 5 5 5 5 4 5 5 4 5 0 5 37 73 58 100 46 99 100 37 59 100 82 92 76 71 54 94 17 66 6 26 5 7 47

GFSGBSN_prec_cloud_063.txt.gz
Cloud_Cover
82 5 8 97 100 97 96 100 100 99 100 100 100 100 100 62 21 44 67 41 2 0 1 0 0 0 0 28 20 5 34 100 100 62 100 100 100 100 85 60 87 100 62 98 100 52 81
100 86 61 100 68 97 100 97 100 100 94 98 100 94 100 91 100 90 13 100 0 6 0 0 0 0 4 4 1 0 63 99 100 67 97 100 100 100 100 75 100 97 100 80 100 94 63
100 100 100 100 100 100 100 100 100 100 95 100 99 51 98 51 100 100 100 67 89 0 1 2 5 0 5 2 1 0 1 49 100 35 100 100 100 100 100 45 100 100 100 100 100 100 100
100 100 100 100 100 100 100 100 100 100 100 100 92 11 5 97 51 100 100 100 70 7 0 5 4 11 6 2 5 5 62 97 100 100 80 100 100 100 100 68 96 100 100 100 100 100 89
100 100 100 100 100 100 100 100 100 100 100 100 95 20 64 100 100 100 99 46 5 3 5 5 62 72 24 2 12 5 60 100 100 78 100 100 100 100 100 100 100 100 82 100 100 94 100
100 100 100 100 100 100 100 100 100 100 100 100 100 12 23 100 100 100 100 8 0 3 20 5 6 60 59 24 10 5 49 43 100 100 100 100 100 100 100 99 47 21 76 100 100 100 90
100 100 100 100 100 100 100 60 100 82 100 100 99 63 100 100 100 100 26 73 81 73 5 39 80 32 5 42 9 11 68 100 100 100 100 100 100 100 90 15 100 99 100 100 100 100 100
100 100 100 100 100 100 100 39 100 100 100 100 37 100 100 64 100 100 79 70 5 3 52 5 69 4 5 100 76 44 3 100 100 100 100 100 100 100 100 100 100 57 100 100 100 100 100
100 100 100 100 100 100 92 64 100 100 100 100 15 71 86 80 100 90 100 2 5 5 71 66 24 33 76 88 96 100 94 100 100 100 100 100 100 97 62 99 99 96 100 100 82 100 100
100 100 100 100 100 100 97 93 100 100 100 100 78 99 100 31 46 70 37 5 5 5 93 70 92 70 32 74 100 100 100 100 100 100 100 100 100 100 82 96 100 100 100 100 100 100 100
100 100 100 100 100 100 100 100 100 100 100 83 92 84 100 71 100 62 46 43 5 12 100 24 100 7 11 100 78 100 100 100 100 100 100 100 100 100 93 100 100 100 100 100 100 100 100
100 100 100 100 100 93 100 100 100 100 100 63 91 100 85 4 99 31 43 20 62 96 76 82 65 85 91 98 57 100 83 76 50 92 100 100 100 100 100 88 100 100 100 100 100 100 100
100 100 100 100 100 100 100 100 100 100 100 91 60 45 72 72 78 5 6 100 97 99 9 87 98 99 94 91 88 72 87 100 100 100 100 100 100 99 100 92 39 100 100 99 100 100 72
100 100 100 100 100 100 100 100 100 100 100 100 30 32 25 62 43 5 95 98 73 42 99 32 98 100 100 96 98 30 100 100 100 100 100 100 100 100 82 100 97 100 100 100 99 100 53
100 100 100 100 100 100 100 100 100 100 100 100 33 76 84 67 5 35 100 100 45 97 36 100 94 100 100 90 70 55 91 100 100 100 100 100 100 99 47 21 99 100 100 93 76 47 84
100 100 100 100 100 100 100 100 100 100 100 100 99 94 99 19 11 91 99 94 82 86 79 56 82 80 100 100 100 100 99 96 57 100 98 100 100 48 33 70 70 99 100 100 96 100 100
100 100 100 100 100 100 100 100 100 100 100 99 100 100 87 5 50 89 96 100 90 73 43 100 84 96 100 100 81 82 100 84 74 88 28 58 100 100 96 74 44 14 92 100 71 97 100
100 100 100 100 100 100 100 100 100 100 100 100 100 98 98 28 96 76 100 78 10 91 5 21 90 100 100 97 58 94 100 100 85 40 98 95 100 100 100 100 94 99 96 100 100 100 100
100 100 100 100 100 100 100 100 100 100 100 100 100 94 55 96 72 55 9 16 42 59 6 10 35 39 79 97 69 100 100 100 100 100 100 97 86 100 85 100 100 100 100 100 100 95 100
100 100 100 100 100 100 100 100 100 100 100 100 100 84 75 93 68 46 22 28 32 5 5 5 5 5 38 63 17 96 99 100 100 100 100 100 97 62 96 42 61 76 51 58 82 89 25
100 100 100 100 100 100 100 100 100 100 100 100 100 40 8 90 90 5 59 26 60 30 2 3 5 5 39 88 76 79 100 94 90 95 38 100 99 31 14 5 26 77 64 86 100 96 90
100 100 100 100 100 100 100 100 100 100 100 100 100 53 12 6 99 14 46 48 100 5 43 3 5 4 5 25 18 62 100 72 96 64 66 47 99 100 100 99 86 24 46 90 95 94 99
100 100 100 100 100 100 100 100 100 100 100 100 99 70 21 58 84 40 60 93 55 32 30 24 5 14 8 7 1 2 5 9 96 100 100 100 100 99 92 100 100 100 100 100 95 100 99
100 100 100 100 100 100 100 100 100 100 100 100 71 38 21 22 73 58 5 16 97 19 91 52 5 76 5 5 5 5 5 5 5 38 97 97 100 100 100 100 100 100 100 100 100 100 86
100 100 100 100 100 100 100 100 100 100 100 100 22 14 99 30 5 5 4 5 78 47 53 96 5 5 5 5 46 40 62 19 5 5 5 18 81 63 65 80 39 41 17 31 25 67 60
100 100 100 100 100 100 100 100 100 100 100 100 5 40 100 5 5 5 5 5 37 66 41 20 5 5 5 27 52 100 84 85 81 13 5 32 9 51 55 26 16 92 16 5 5 72 27
100 100 100 100 100 100 100 100 100 100 100 100 76 90 88 8 6 5 42 5 5 7 97 5 5 17 5 36 86 95 96 12 76 97 81 92 98 94 98 100 93 39 19 74 5 30 87
100 100 100 100 100 100 100 100 100 100 100 100 87 100 94 21 13 5 5 4 4 5 23 5 6 5 44 42 99 85 89 84 78 96 94 100 100 100 100 100 89 100 100 96 74 78 84
100 100 100 100 100 100 100 100 100 100 100 100 100 100 41 54 38 11 5 2 4 4 0 5 24 15 80 82 65 97 87 53 78 99 58 90 46 80 65 85 6 7 12 22 19 59 66

GFSGBSN_prec_cloud_066.txt.gz
Cloud_Cover
100 100 100 100 100 100 56 100 100 100 100 100 100 99 100 93 100 100 83 0 96 2 2 0 0 0 0 10 10 5 0 56 86 100 100 98 100 86 92 24 100 100 100 100 100 82 100
97 100 100 100 100 100 43 97 100 100 100 100 100 100 100 98 100 89 100 58 53 93 0 9 0 0 5 8 2 2 0 33 100 100 100 80 93 47 86 96 30 100 100 100 100 97 100
100 100 100 100 100 100 100 100 100 96 100 100 100 58 100 91 100 96 100 100 66 84 36 0 2 4 44 5 5 5 3 10 100 100 100 99 100 100 95 100 47 100 100 100 100 100 85
100 100 100 100 100 100 100 100 100 100 100 100 100 79 100 100 61 100 100 95 97 80 85 0 4 2 62 4 0 0 5 12 100 100 100 100 100 100 100 100 100 100 100 100 100 100 100
100 100 100 100 100 100 100 100 100 100 100 100 100 80 100 100 100 100 100 47 66 2 2 4 23 91 22 9 16 48 38 55 100 80 100 100 100 100 100 90 99 100 100 100 95 100 100
100 100 100 100 100 100 100 100 100 100 100 100 100 100 100 100 84 100 38 0 1 0 4 27 43 44 65 18 74 12 50 62 91 84 100 100 100 100 100 95 54 74 100 100 100 97 100
100 100 100 100 100 100 100 100 100 100 100 100 100 91 100 100 100 100 17 34 12 92 26 6 58 5 5 85 31 100 79 5 88 100 100 100 100 92 100 5 71 7 100 100 100 100 100
100 100 100 100 100 100 100 100 100 100 100 100 100 95 100 100 94 100 18 50 24 5 4 6 6 3 17 93 99 56 44 22 100 100 100 100 100 62 100 100 100 100 98 100 100 100 100
100 100 100 100 100 100 100 100 100 100 100 100 87 100 100 100 91 84 36 88 5 5 61 67 79 9 54 48 94 61 82 100 100 100 100 100 100 100 100 100 100 100 82 100 100 100 100
100 100 100 100 100 100 100 100 100 100 100 100 100 100 100 100 97 83 100 18 5 5 100 97 91 51 11 99 99 100 100 100 100 100 100 100 97 100 100 85 75 100 92 100 100 100 100
100 100 100 100 100 100 100 100 100 100 100 100 100 100 100 100 93 88 91 6 5 40 99 42 18 5 14 99 92 100 100 100 100 100 93 100 100 100 100 100 100 99 73 100 100 100 100
100 100 100 100 100 100 100 100 100 100 100 100 100 100 100 100 79 90 51 12 54 100 26 96 34 9 99 78 92 86 99 100 100 100 100 100 100 100 100 79 77 93 92 88 100 100 100
100 100 100 100 100 100 100 100 100 100 100 100 100 100 100 100 74 7 9 68 100 99 8 95 77 83 98 93 100 100 73 84 100 100 100 100 100 100 17 36 27 57 73 74 58 5 5
100 100 100 100 100 100 100 100 100 100 100 100 100 100 100 100 15 5 90 93 90 98 100 45 56 100 100 57 100 100 93 100 100 100 100 100 100 81 100 92 42 94 98 100 99 5 80
100 100 100 100 100 100 100 100 100 100 100 100 100 100 100 100 5 74 100 100 69 99 89 100 100 100 96 38 91 45 72 100 100 100 100 100 100 97 86 100 93 93 97 18 100 98 76
100 100 100 100 100 100 100 100 100 100 100 100 100 100 100 100 5 92 100 100 78 70 24 83 82 57 99 96 96 98 100 95 100 100 100 96 100 100 100 100 100 100 100 100 100 100 100
100 100 100 100 100 100 100 100 100 100 100 100 100 100 100 65 8 100 99 100 96 95 57 100 37 9 100 98 58 94 94 86 70 85 62 95 61 58 100 72 77 100 100 100 100 100 100
100 100 100 100 100 100 100 100 100 100 100 100 100 100 100 95 100 89 100 100 49 87 5 100 100 100 67 92 98 90 54 97 100 100 100 42 82 100 60 46 7 96 100 100 100 100 100
100 100 100 100 100 100 100 100 100 100 100 100 100 100 100 63 89 56 39 23 80 91 34 92 48 46 95 100 78 100 100 94 86 76 98 61 75 70 83 91 100 100 99 99 96 100 100
100 100 100 100 100 100 100 100 100 100 100 100 100 100 100 96 52 85 7 18 57 5 5 5 23 5 70 92 100 91 97 52 19 89 55 87 50 75 77 57 83 90 90 94 100 52 100
100 100 100 100 100 100 100 100 100 100 100 100 100 100 100 98 10 48 6 19 97 5 4 5 6 6 61 92 88 100 98 98 96 96 100 94 96 84 65 100 54 100 67 100 69 100 100
100 100 100 100 100 100 100 100 100 100 100 100 100 100 100 76 28 71 5 5 100 6 5 5 17 5 5 16 18 77 100 56 41 100 100 83 45 7 5 7 5 6 5 5 21 97 100
100 100 100 100 100 100 100 100 100 100 100 100 100 100 100 54 34 85 6 10 100 6 6 7 25 11 3 0 0 5 6 42 37 20 56 21 15 100 18 30 13 11 31 77 64 69 57
100 100 100 100 100 100 100 100 100 100 100 100 100 100 100 78 91 82 23 33 22 5 80 4 5 60 2 0 1 2 5 4 5 88 99 100 100 86 88 8 35 40 3 5 7 8 61
100 100 100 100 100 100 100 100 100 100 100 100 100 100 100 92 100 40 5 5 77 5 5 53 3 5 5 5 9 5 5 57 6 6 45 100 100 100 100 100 100 86 98 100 100 100 100
100 100 100 100 100 100 100 100 100 100 100 100 100 100 100 100 100 79 5 5 46 69 5 5 5 5 5 5 5 86 84 76 53 16 5 2 5 15 14 96 99 100 100 93 32 58 96
100 100 100 100 100 100 100 100 100 100 100 100 100 100 100 100 100 98 47 6 9 42 55 5 5 5 5 5 8 52 72 8 27 8 6 5 5 5 7 31 13 49 100 100 94 57 100
100 100 100 100 100 100 100 100 100 100 100 100 100 100 100 100 100 100 92 25 5 5 73 5 5 5 5 18 89 36 11 5 5 19 83 5 5 10 38 88 44 34 53 74 44 85 86
100 100 100 100 100 100 100 100 100 100 100 100 100 100 100 100 100 100 88 13 4 5 5 5 5 5 11 15 38 5 5 5 5 65 5 48 7 42 56 20 5 5 5 5 6 12 21

GFSGBSN_prec_cloud_069.txt.gz
Cloud_Cover
72 100 100 100 100 100 100 100 100 97 100 100 100 76 100 95 99 100 98 83 5 5 78 10 8 0 0 0 0 0 0 0 0 100 58 100 100 100 56 100 100 31 100 100 100 100 100
92 91 100 100 100 100 100 100 100 100 100 100 100 100 100 100 100 100 25 100 100 5 98 90 5 0 0 21 2 3 2 0 2 95 100 100 100 100 70 98 78 12 100 100 100 100 100
100 58 100 100 100 100 100 100 100 100 100 100 100 100 100 100 100 100 82 68 100 50 55 100 5 17 0 15 0 4 5 0 6 100 100 100 86 100 95 99 57 99 100 100 100 100 100
97 100 72 37 100 100 100 100 100 100 100 100 100 100 100 100 100 100 100 77 68 88 100 85 3 6 8 4 4 5 0 5 28 100 100 100 99 68 91 5 91 97 100 100 100 100 100
100 100 99 96 100 100 100 100 100 100 100 100 100 100 100 100 100 100 100 5 7 9 15 12 0 7 24 6 43 60 6 22 96 100 100 100 100 100 73 73 100 100 100 100 100 100 100
100 100 100 100 96 100 100 100 100 100 100 100 100 100 100 100 100 100 98 5 5 8 0 3 7 77 14 5 69 100 48 94 82 93 100 100 100 100 100 91 98 99 100 100 100 100 100
100 100 100 100 100 100 100 100 100 100 100 100 100 100 100 100 100 100 93 7 5 7 8 4 5 5 5 39 99 26 99 5 86 61 100 100 100 100 100 100 50 97 100 100 100 100 100
89 100 100 100 100 100 100 100 100 100 100 100 100 100 100 100 100 100 82 21 49 4 0 3 9 38 88 55 92 52 87 5 5 100 100 100 99 95 99 100 100 100 100 100 100 100 100
6 80 100 100 100 100 100 100 100 100 100 100 100 100 100 100 100 100 83 18 5 5 8 5 52 31 27 63 100 97 76 88 91 100 100 100 100 100 100 100 100 100 72 100 100 100 100
0 38 89 100 100 100 100 100 100 100 100 100 100 100 100 100 100 100 100 5 5 5 43 54 24 38 40 97 99 100 100 79 100 100 100 100 100 100 100 89 38 98 71 100 100 100 100
1 14 95 16 100 100 100 100 100 100 100 100 100 100 100 100 100 100 99 6 5 3 55 63 6 5 88 82 96 100 100 100 100 100 100 100 100 100 100 100 98 45 74 100 100 100 100
21 100 59 0 100 100 100 100 100 100 100 100 100 100 100 100 100 100 94 7 5 48 6 86 5 10 48 52 88 100 100 100 100 100 100 100 100 100 100 99 49 86 99 100 100 100 100
99 91 64 94 64 100 100 100 100 100 100 100 100 100 100 100 100 100 96 8 87 62 20 59 34 68 80 88 28 17 76 100 100 100 100 100 99 100 100 100 100 53 85 100 100 100 100
100 81 5 100 100 100 100 100 100 100 100 100 100 100 100 100 100 100 82 73 45 80 100 69 92 65 93 99 95 30 74 93 100 100 100 100 100 97 100 100 77 84 100 100 100 100 100
100 100 100 100 100 100 100 100 100 100 100 100 100 100 100 100 100 100 57 64 14 100 99 98 100 98 81 25 83 100 90 100 81 89 95 99 100 100 99 22 5 60 5 8 23 100 100
100 100 100 100 100 100 100 100 100 100 100 100 100 100 100 100 100 100 71 17 55 100 98 93 99 96 81 86 29 87 84 100 100 100 100 100 100 100 75 9 7 69 5 5 5 73 98
100 100 100 100 100 100 100 100 100 100 100 100 100 100 100 100 100 98 99 41 97 84 21 100 90 70 56 85 32 92 76 74 100 82 100 51 91 68 40 72 35 86 96 7 93 92 60
100 100 100 98 100 100 100 100 100 100 100 100 100 100 100 100 100 99 100 68 97 79 64 77 100 100 29 30 97 5 100 93 99 66 78 93 88 60 13 73 49 99 100 96 100 100 100
99 100 99 100 100 100 100 100 100 100 100 100 100 100 100 100 100 100 100 17 100 82 59 100 95 100 100 89 79 68 33 82 88 82 64 43 26 90 100 100 60 32 100 100 100 100 100
13 92 95 100 100 100 100 100 100 100 100 100 100 100 100 100 100 27 52 5 95 63 5 61 39 57 66 83 66 51 74 84 51 9 88 44 28 22 5 8 5 5 5 5 36 41 73
3 66 100 100 100 100 100 100 100 100 100 100 100 100 100 100 97 41 77 5 61 3 5 5 24 7 81 100 100 100 100 100 100 100 97 73 34 9 76 8 5 24 88 5 59 91 15
97 100 100 100 100 100 100 100 100 100 100 100 100 100 100 100 87 71 89 5 97 5 2 5 9 78 6 5 39 94 100 100 72 40 10 38 29 5 5 60 55 6 94 100 100 28 100
100 100 100 100 100 100 100 100 100 100 100 100 100 100 100 100 100 100 88 5 91 6 5 5 5 5 5 26 5 5 69 30 5 17 19 25 6 7 7 7 5 6 7 100 52 55 100
100 100 100 100 100 100 100 100 100 100 100 100 100 100 100 100 100 100 90 41 100 25 4 5 5 4 2 1 5 5 37 16 5 8 15 9 5 10 5 89 28 5 4 5 5 24 43
100 100 100 100 100 100 100 100 100 100 100 100 100 100 100 100 100 100 94 73 47 20 1 4 5 3 4 5 5 5 5 5 5 7 64 78 8 37 5 9 37 27 5 5 20 59 28
100 100 100 100 100 100 100 100 100 100 100 100 100 100 100 100 100 100 99 63 5 5 5 5 4 5 5 5 5 5 5 6 16 5 5 28 33 47 5 61 6 12 57 99 100 100 75
100 100 100 100 100 100 100 100 100 100 100 100 100 100 100 100 100 100 96 71 22 5 5 5 5 5 5 5 5 5 5 8 6 5 5 18 70 83 24 6 6 29 19 5 35 57 78
100 100 100 100 100 100 100 100 100 100 100 100 100 97 100 98 100 100 89 58 26 6 5 5 5 5 5 5 5 5 5 5 5 5 5 5 5 5 24 94 77 55 41 10 5 77 100
100 100 100 100 100 100 100 100 100 100 100 100 100 98 100 100 100 100 100 52 100 89 5 5 5 3 4 5 5 5 5 5 5 5 5 48 4 18 5 5 5 5 5 9 56 72 82

GFSGBSN_prec_cloud_072.txt.gz
Cloud_Cover
100 62 92 62 100 97 100 100 100 100 100 100 100 100 100 96 100 100 100 100 100 100 5 54 95 5 0 3 0 0 0 0 0 0 0 37 100 100 100 6 6 1 73 100 100 100 100
100 100 100 86 8 83 99 100 100 100 100 100 100 100 100 100 100 100 100 100 96 100 7 80 100 28 4 27 0 0 4 15 0 0 0 58 100 91 100 84 5 6 51 100 100 100 100
100 100 100 100 90 100 89 100 100 100 100 100 100 79 100 100 100 100 100 100 100 100 28 56 78 13 19 1 0 0 4 5 2 0 94 98 100 100 100 51 5 20 47 100 100 100 100
96 98 86 100 100 100 84 100 100 100 100 100 100 100 100 100 100 100 100 100 81 7 21 23 24 10 22 0 0 3 5 9 53 41 100 100 96 100 100 41 12 70 86 100 100 100 100
4 66 63 100 88 100 100 92 88 100 100 100 100 100 100 100 100 100 100 79 5 5 38 66 3 7 3 0 3 26 92 92 63 96 100 100 100 100 100 100 42 76 99 100 100 100 100
85 0 51 92 78 100 100 100 100 100 100 100 100 100 100 100 100 100 100 8 5 12 8 2 6 72 0 5 74 68 92 74 28 89 100 90 100 100 100 81 100 74 68 100 100 100 100
37 2 0 0 24 58 100 100 100 100 100 100 100 100 100 100 100 100 100 94 94 57 5 0 4 5 5 33 88 28 42 100 100 27 100 100 100 98 100 60 64 47 86 100 100 100 100
90 50 23 0 1 73 77 100 100 100 100 100 100 100 100 100 100 100 100 100 99 32 2 3 5 17 6 29 92 58 71 42 96 97 100 100 100 76 100 98 43 37 79 100 100 100 100
100 100 96 35 90 100 97 63 100 100 100 100 100 99 100 100 100 100 100 100 100 20 11 5 5 5 5 30 99 78 75 90 34 100 100 100 97 96 97 98 100 97 94 100 100 100 100
100 100 100 100 99 32 51 0 100 100 100 100 100 100 100 100 100 100 100 100 40 5 5 5 5 5 54 100 100 100 100 97 100 98 100 100 100 100 100 99 99 100 99 100 100 100 100
84 100 69 61 100 100 36 0 100 100 100 100 100 100 100 100 100 100 100 100 80 4 35 5 4 3 64 78 80 68 98 100 100 100 100 100 100 100 100 100 96 81 98 100 100 100 100
5 48 95 99 53 85 21 32 87 100 100 100 100 100 100 100 100 100 100 100 8 9 5 42 2 6 91 49 40 90 100 100 100 100 100 100 100 100 100 99 100 85 92 100 100 100 100
6 57 10 89 91 57 24 96 100 100 100 100 100 100 100 100 100 100 100 98 17 5 5 6 8 5 41 52 36 84 100 98 100 99 100 100 100 100 100 87 56 100 24 100 100 100 100
8 28 19 79 100 99 100 100 100 100 100 100 100 100 100 100 100 100 100 84 5 19 80 5 10 92 22 5 5 67 99 100 97 96 100 100 100 100 71 54 77 96 78 100 100 100 100
26 5 91 100 100 100 79 92 98 100 100 100 100 100 100 100 100 100 100 80 5 5 5 42 59 47 10 5 73 98 100 100 100 99 100 99 100 99 100 77 64 94 22 96 100 100 100
5 25 100 100 100 100 100 100 100 100 100 100 100 100 100 100 100 100 100 46 5 40 8 54 86 96 14 5 14 64 50 100 100 82 98 94 94 100 99 69 23 50 97 70 97 100 100
5 91 100 100 97 100 100 100 100 100 100 100 100 100 100 100 100 100 81 7 22 89 80 6 24 40 12 5 35 35 5 81 100 100 100 69 99 100 5 7 2 5 5 5 11 83 100
99 74 100 100 100 100 61 100 100 100 100 100 100 100 100 100 100 100 82 98 22 90 71 19 31 7 5 9 42 6 6 13 5 6 6 28 100 100 43 5 5 5 5 5 23 64 40
100 22 100 94 88 72 100 100 100 100 100 100 100 100 100 100 100 100 96 51 100 56 78 84 97 53 5 5 5 5 5 5 9 6 5 39 34 24 10 44 96 100 98 21 5 10 21
100 90 10 16 23 98 100 100 100 100 100 100 100 100 100 100 100 100 100 91 100 99 95 99 80 100 6 60 5 6 5 11 5 4 4 31 20 5 15 46 17 5 40 100 100 100 99
53 8 45 5 98 100 100 100 100 100 100 100 100 100 100 100 100 100 86 77 89 57 12 5 93 99 79 77 34 5 30 52 5 5 5 63 13 5 11 36 16 5 5 10 71 84 92
99 79 20 100 100 100 100 100 100 100 100 100 100 100 100 100 93 88 98 62 5 5 5 5 12 21 6 5 5 40 100 78 5 8 5 5 39 5 5 5 5 5 5 48 88 5 5
98 100 100 100 100 100 100 100 100 100 100 100 100 100 100 100 93 93 78 79 59 3 5 5 5 5 5 7 5 5 83 8 5 5 5 5 5 5 5 5 5 5 23 2 22 99 95
100 100 100 100 100 100 100 100 100 100 100 100 100 100 100 100 97 100 62 76 99 5 3 5 5 5 5 5 5 20 100 43 5 5 5 5 5 6 5 5 5 1 1 22 20 28 46
100 100 100 100 100 100 100 100 100 100 100 100 100 100 100 100 100 100 65 80 100 60 5 5 5 1 0 5 10 33 32 5 11 90 54 17 5 12 45 5 5 5 0 0 4 7 29
100 100 100 100 100 100 100 100 100 100 100 100 100 100 100 100 100 100 36 73 74 33 5 5 5 5 5 5 5 5 5 5 5 5 74 86 53 52 16 47 5 0 0 0 0 3 4
100 100 100 100 100 100 100 100 100 100 100 100 100 100 100 100 100 100 90 40 32 41 5 5 5 5 5 5 5 5 5 5 5 5 5 58 99 33 8 5 2 0 0 1 3 0 1
100 100 100 100 100 100 100 100 100 100 100 100 100 100 100 100 100 100 100 69 91 88 25 5 5 5 5 5 5 5 5 5 5 4 4 4 10 19 76 97 46 0 4 5 4 5 2
99 100 100 100 100 100 100 100 100 100 100 100 100 100 100 100 100 100 99 100 100 100 74 5 28 5 5 5 5 5 5 5 5 5 5 4 3 5 4 4 0 0 3 5 5 5 5

GFSGBSN_prec_cloud_075.txt.gz
Cloud_Cover
100 100 100 100 92 100 76 71 90 62 100 100 100 100 100 100 100 100 100 100 100 100 100 100 28 100 93 3 0 0 0 0 0 0 3 5 5 16 7 10 10 86 2 13 93 100 100
100 100 100 100 100 100 100 100 21 63 96 100 100 100 100 100 100 100 100 100 100 100 100 100 83 99 14 11 0 0 0 0 0 0 45 22 3 5 13 7 100 5 15 2 85 88 100
3 8 41 97 100 100 91 100 100 53 97 100 100 100 100 100 100 100 100 100 100 100 100 100 77 100 76 14 0 0 0 0 1 3 23 0 5 46 58 91 84 9 28 8 92 100 100
100 3 0 8 48 100 100 69 95 100 99 98 100 100 100 100 100 100 100 100 100 94 98 100 29 93 24 0 0 1 5 7 100 100 19 7 100 69 100 100 100 46 100 39 100 100 100
100 100 97 4 5 5 97 100 99 70 95 61 100 100 100 100 100 100 100 100 100 74 100 72 99 20 4 0 3 5 9 5 63 48 81 100 100 100 100 100 100 75 98 25 100 100 100
100 100 100 100 47 5 61 100 100 2 51 100 100 100 100 100 100 100 100 100 100 100 99 25 16 63 3 5 6 36 46 9 46 67 89 100 100 100 100 100 77 19 8 62 100 100 100
44 100 100 100 100 100 100 100 100 39 4 100 100 100 100 100 100 100 100 100 100 100 100 2 2 5 5 5 5 5 5 35 50 99 75 92 100 100 96 100 100 5 5 96 100 100 100
94 100 100 100 100 100 100 26 100 100 1 99 100 100 100 100 100 100 100 100 100 100 48 0 5 5 5 5 15 5 12 22 68 43 100 100 98 100 100 100 95 5 5 100 100 100 100
100 100 100 100 100 100 100 100 18 100 31 89 100 100 100 100 100 100 100 100 100 100 4 5 5 5 5 7 88 5 4 51 12 100 96 99 100 100 100 100 100 52 6 100 100 100 100
100 84 75 2 1 19 100 100 92 22 11 100 100 100 100 100 100 100 100 100 100 97 5 3 5 5 10 57 82 66 55 55 100 98 100 100 100 92 95 59 97 96 73 100 100 100 100
92 8 97 45 100 90 3 8 99 0 26 100 100 100 100 100 100 100 100 100 100 6 5 3 4 5 5 35 24 100 100 100 98 100 100 100 100 100 86 12 6 5 100 100 100 100 100
98 80 48 81 63 59 96 100 55 5 47 100 100 100 100 100 100 100 100 100 100 7 2 29 3 5 5 37 77 100 100 100 100 100 100 100 90 96 74 40 74 94 100 100 100 100 100
75 61 31 54 81 6 87 100 100 83 54 100 100 100 100 100 100 100 100 100 96 5 5 24 4 5 5 10 44 100 93 100 100 100 100 100 99 100 47 100 99 100 80 100 100 100 100
63 73 47 5 5 11 99 100 100 95 97 100 100 100 100 100 100 100 100 100 54 3 22 5 5 5 5 5 62 95 100 100 100 100 100 100 100 98 100 100 16 46 100 100 100 100 100
88 97 86 11 7 100 100 100 100 100 85 100 100 100 100 100 100 100 100 100 4 3 6 5 5 5 5 5 38 34 97 74 100 100 100 99 100 100 93 11 41 96 100 100 100 100 100
100 99 96 100 89 100 100 100 100 100 91 100 100 100 100 100 100 100 100 100 4 7 5 84 31 5 5 5 7 50 37 100 100 100 100 100 100 100 100 67 10 41 100 86 100 100 100
100 92 100 100 100 99 100 100 100 100 100 100 100 100 100 100 100 100 100 66 5 13 37 8 5 51 6 5 19 46 73 56 95 100 100 98 56 86 25 62 80 35 33 100 100 100 100
100 100 100 98 36 100 100 100 100 100 100 100 100 100 100 100 100 100 100 4 5 36 8 61 5 5 2 5 92 5 50 98 17 6 7 5 20 82 57 5 5 5 37 68 100 100 93
100 100 100 100 94 100 100 100 100 100 100 100 100 100 100 100 100 100 73 5 6 79 54 75 9 4 0 5 5 5 5 5 5 5 4 5 6 22 5 6 8 4 0 0 1 74 100
100 96 98 100 100 98 100 100 100 100 100 100 100 100 100 100 100 100 7 25 83 59 100 98 5 5 5 5 5 5 5 5 5 0 5 5 3 3 5 4 1 4 5 5 24 4 37
100 92 81 100 89 100 100 100 100 100 100 100 100 100 100 100 100 41 22 100 100 78 90 92 31 5 5 5 5 12 5 5 5 2 0 5 4 5 5 5 0 0 1 1 5 15 10
100 63 100 100 100 100 100 100 100 100 100 100 100 100 100 100 99 6 86 100 100 97 44 5 5 5 87 47 4 4 5 5 5 5 5 5 5 5 5 5 5 5 0 0 0 0 5
100 100 100 100 100 100 100 100 100 100 100 100 100 100 100 100 53 23 91 100 80 44 69 5 5 5 7 57 5 5 22 5 5 5 5 5 5 5 5 5 5 5 0 1 4 0 3
100 100 100 100 100 100 100 100 100 100 100 100 100 100 100 100 17 73 100 77 62 5 17 5 5 5 5 5 5 97 94 32 5 5 5 5 5 7 5 4 4 0 0 0 1 3 4
100 100 100 100 100 100 100 100 100 100 100 100 100 100 100 100 36 100 100 100 100 82 5 5 5 5 5 5 9 73 54 29 13 37 30 19 5 7 5 5 0 0 0 0 0 1 5
100 100 96 100 100 100 100 100 100 100 100 100 100 100 100 100 62 95 89 100 100 100 12 5 5 5 5 5 4 5 5 5 5 5 98 100 11 24 5 10 5 0 0 0 0 2 0
100 100 100 100 100 100 100 100 100 100 100 100 100 100 100 100 41 75 68 100 99 100 27 6 5 5 5 5 4 5 5 5 5 5 5 81 100 91 89 14 2 0 0 3 4 1 0
100 100 100 100 100 100 100 100 100 100 100 100 100 100 100 100 39 6 30 89 97 100 56 6 8 6 5 5 4 5 5 5 6 4 5 4 14 11 82 81 45 0 2 4 0 0 4
100 100 100 100 100 100 100 100 100 100 100 100 100 100 100 100 66 22 99 43 81 100 94 64 58 54 60 49 5 5 5 12 7 5 5 5 5 4 5 5 5 5 0 2 3 2 3

GFSGBSN_prec_cloud_078.txt.gz
Cloud_Cover
97 99 99 100 100 100 100 100 100 100 98 44 33 88 100 100 100 99 100 26 100 100 100 100 95 100 100 100 70 5 0 0 0 0 0 0 0 4 40 4 3 2 0 2 1 3 20
100 100 100 100 67 100 100 100 100 100 100 100 83 11 100 100 100 100 100 81 100 100 100 100 99 100 100 98 10 5 0 0 0 0 0 0 0 1 21 75 71 4 0 0 8 5 11
100 100 100 100 100 100 95 100 100 100 100 100 100 15 100 100 100 100 100 100 39 100 100 100 100 99 100 47 5 0 0 0 0 2 3 5 5 5 46 92 33 5 30 62 23 4 11
100 100 100 100 100 88 100 100 100 100 100 86 99 58 100 100 100 100 100 100 100 100 100 100 100 100 100 9 0 0 3 5 5 6 25 100 10 49 31 35 35 74 49 98 5 5 83
100 100 100 100 100 100 100 100 100 94 100 100 9 100 100 100 100 100 100 100 100 100 100 100 100 100 62 0 0 5 5 90 57 99 82 35 86 98 92 100 100 90 78 52 45 97 100
100 100 100 100 100 100 100 100 100 100 99 98 6 88 100 100 100 100 100 100 100 100 100 100 100 79 5 5 5 5 98 26 76 32 64 68 100 100 100 100 100 95 98 100 67 100 100
100 100 100 100 100 100 100 100 100 60 47 68 100 60 100 100 100 100 100 100 100 100 100 100 93 5 5 5 5 5 5 9 87 13 96 90 100 100 100 100 100 100 65 100 41 100 100
100 100 100 100 100 100 100 100 100 33 99 91 100 100 100 100 100 100 100 100 100 100 100 100 91 5 5 5 25 88 7 16 6 26 98 69 87 100 100 100 100 100 71 78 19 100 100
100 100 100 100 100 100 100 99 100 100 18 14 29 100 100 100 100 100 100 100 100 100 100 100 11 4 5 6 73 14 29 3 14 45 58 70 84 96 100 100 100 79 2 46 80 100 100
100 100 100 100 100 19 5 5 30 100 43 4 15 100 100 100 100 100 100 100 100 100 100 77 5 4 5 69 92 51 25 25 91 99 75 100 100 100 100 100 100 19 3 90 100 100 100
100 100 100 98 5 5 5 3 53 5 0 7 3 54 100 100 100 100 100 100 100 100 100 5 4 2 6 53 77 87 98 74 100 100 100 100 100 100 100 100 95 99 99 100 100 100 100
100 100 70 46 5 58 37 5 5 5 5 14 6 100 100 100 100 100 100 100 100 100 96 25 3 7 27 57 96 100 100 100 100 100 100 100 100 87 100 98 74 54 100 100 100 100 100
88 47 65 65 82 100 12 2 3 60 100 100 53 100 100 100 100 100 100 100 100 100 21 38 5 5 5 5 9 97 100 100 100 100 100 100 100 58 90 66 97 36 100 100 100 100 100
92 44 14 47 100 100 75 89 100 100 64 75 100 100 100 100 100 100 100 100 100 96 6 5 5 5 5 5 5 44 100 100 100 100 100 89 100 66 6 100 100 96 100 100 100 100 100
91 97 100 100 100 100 100 100 100 62 100 100 100 100 100 100 100 100 100 100 100 5 3 5 5 5 5 4 37 43 89 100 100 100 97 100 100 100 100 92 53 100 100 100 100 100 100
99 100 100 100 100 100 96 100 100 100 100 100 100 100 100 100 100 100 100 100 64 5 5 1 5 5 4 5 35 11 63 82 100 100 90 66 97 96 100 100 78 100 100 100 100 100 100
100 100 100 100 100 100 100 100 100 100 100 100 100 100 100 100 100 100 100 99 5 5 5 5 5 38 5 5 5 16 5 57 95 76 74 42 43 100 81 11 5 100 100 100 100 100 100
100 100 100 100 100 96 100 100 100 100 100 100 100 100 100 100 100 100 100 8 16 5 5 7 5 5 3 5 5 5 5 5 9 5 5 5 71 100 67 18 5 98 87 90 100 100 100
100 100 100 94 100 100 100 100 98 100 100 100 100 100 100 100 100 100 32 5 86 5 5 5 5 5 0 5 8 5 5 5 5 2 0 1 5 6 8 5 5 6 13 13 98 100 53
100 100 100 100 100 100 100 99 100 100 100 100 100 100 100 100 100 100 5 65 85 6 5 5 5 5 5 5 5 5 5 5 5 5 2 0 4 1 5 0 0 0 4 2 5 6 74
100 100 100 100 100 98 99 100 100 100 100 100 100 100 100 100 100 40 89 85 66 21 6 5 24 5 4 4 5 5 5 2 5 0 0 0 5 5 5 5 4 0 0 0 0 0 0
100 100 100 100 100 100 100 100 100 100 100 100 100 100 100 100 54 34 99 67 97 5 5 5 5 5 5 5 2 5 0 2 4 0 0 0 5 5 5 5 5 0 0 0 0 0 0
100 100 100 100 100 100 100 100 100 100 100 100 100 100 100 96 100 96 100 100 100 8 5 5 5 5 5 5 5 5 5 5 5 5 5 0 5 5 5 3 0 1 0 0 0 0 0
100 100 100 100 100 100 100 100 100 100 100 100 100 93 76 59 94 67 100 100 100 46 18 6 5 5 5 5 5 57 19 5 5 5 5 5 5 6 5 5 4 0 0 0 0 0 0
100 100 100 100 100 100 100 100 100 100 100 100 100 81 83 64 24 100 100 100 63 20 81 8 5 5 5 5 22 16 11 5 5 8 15 5 5 13 5 5 0 0 0 0 0 0 0
98 100 100 100 100 100 100 100 100 100 100 100 100 82 5 5 88 100 100 100 54 5 18 51 13 5 5 5 2 5 5 5 5 5 34 18 41 5 5 5 4 0 0 0 0 0 0
100 100 100 100 100 100 100 100 100 100 100 100 99 69 32 10 38 100 100 73 94 76 5 5 5 5 5 5 5 5 5 5 5 5 5 38 63 50 100 54 5 5 5 5 5 5 4
100 100 100 100 100 100 100 100 100 100 100 100 100 93 8 18 49 94 100 98 90 82 18 5 5 13 5 17 68 58 15 6 37 26 5 5 11 38 83 71 46 5 5 6 21 10 5
100 100 100 100 100 72 100 100 100 100 100 100 100 100 33 53 65 54 76 100 100 95 68 33 9 8 6 10 12 16 45 14 10 9 7 87 8 84 100 73 14 5 34 5 5 5 5

GFSGBSN_prec_cloud_081.txt.gz
Cloud_Cover
100 100 100 100 100 100 100 100 100 100 92 100 100 100 100 36 100 100 96 100 100 100 70 6 100 86 99 95 84 72 93 36 64 6 3 0 0 0 8 4 6 2 0 0 0 1 0
100 100 100 90 100 100 100 100 100 100 100 100 100 100 100 71 100 100 100 99 100 76 100 100 95 100 100 100 78 87 14 5 5 3 0 0 0 0 9 5 12 4 2 2 1 1 5
100 100 100 100 100 100 85 100 100 100 93 100 100 100 100 36 100 100 100 100 99 100 100 53 100 100 100 100 100 93 50 5 0 0 1 5 5 5 5 27 49 16 6 7 17 5 7
100 100 100 100 100 100 100 100 100 100 88 100 100 100 100 100 100 100 100 100 100 100 100 99 100 100 100 100 100 89 5 3 5 6 5 10 5 29 80 86 20 20 100 84 0 4 0
100 100 95 100 100 100 100 100 100 100 100 100 100 100 100 100 100 100 100 63 100 100 100 93 100 100 100 100 79 5 5 15 99 87 100 91 11 52 97 94 93 44 38 93 5 5 0
100 100 100 100 100 100 100 100 100 100 100 100 100 98 22 100 100 100 100 100 100 100 100 93 100 100 100 100 98 26 6 22 17 80 64 76 89 100 98 100 100 99 100 46 7 5 0
100 100 100 100 100 100 100 100 100 100 100 100 100 100 100 100 100 100 100 100 100 100 100 100 100 100 100 100 99 34 5 5 58 100 100 99 100 100 100 94 68 100 100 23 5 3 2
100 100 100 100 100 100 100 99 100 100 100 68 100 98 89 100 100 100 100 100 100 100 100 100 100 100 100 100 97 62 46 8 56 92 84 96 98 96 100 100 100 100 100 100 100 100 6
100 100 98 90 100 100 91 77 93 84 100 88 16 94 52 100 100 100 100 100 100 100 100 100 100 100 100 96 8 9 20 61 69 88 19 99 97 100 100 100 100 100 100 100 100 99 100
100 100 100 100 57 70 38 74 40 38 76 94 5 26 5 100 100 100 100 100 100 100 100 100 100 100 100 68 60 86 65 53 45 82 47 50 95 100 100 100 100 100 100 100 100 100 100
100 100 82 8 53 55 85 100 99 98 90 3 5 19 11 100 100 100 100 100 100 100 100 100 100 100 100 32 17 100 100 100 90 100 100 45 100 100 100 100 91 100 78 100 100 100 100
100 21 99 65 100 100 99 53 95 89 26 8 5 84 100 93 100 100 100 100 100 100 100 100 100 100 62 37 52 91 100 100 100 100 100 96 95 100 85 69 89 100 100 100 100 100 100
95 66 97 100 100 100 100 100 100 100 100 100 100 100 100 100 100 100 100 100 100 100 100 100 100 62 5 14 12 90 100 100 100 100 78 100 96 90 100 66 38 74 100 100 100 100 100
98 100 100 100 100 99 100 91 79 100 100 100 75 48 100 100 100 100 100 100 100 100 100 100 82 5 5 5 6 87 100 100 100 100 100 80 28 72 99 88 100 100 100 100 100 100 100
100 100 100 98 100 100 84 100 100 100 100 100 100 100 100 100 100 100 100 100 100 100 100 61 5 5 5 5 7 93 100 100 100 100 100 99 100 99 54 60 36 100 94 73 100 100 100
100 100 100 100 100 88 98 100 100 100 100 100 100 90 100 100 100 100 100 100 100 100 30 2 4 2 5 77 87 67 92 100 100 99 100 100 100 100 100 96 65 100 100 100 100 100 100
100 100 100 100 100 91 90 100 100 100 100 100 100 100 100 100 100 100 100 100 100 61 4 1 5 5 4 5 5 17 77 99 100 55 73 53 15 95 85 88 100 100 100 100 100 97 100
100 100 100 100 95 96 24 99 100 100 100 100 100 100 100 100 100 100 100 100 99 82 12 5 1 5 2 5 5 38 34 85 95 7 5 5 97 79 14 62 61 100 99 72 9 52 4
100 100 100 100 100 99 77 46 46 73 100 100 100 100 100 100 100 100 100 93 100 80 5 5 5 4 0 5 5 5 55 40 6 15 7 18 6 50 96 5 5 8 25 99 35 6 17
100 100 100 100 100 100 74 100 99 82 100 100 100 100 100 100 100 100 100 100 100 96 66 5 5 0 4 5 5 5 5 5 5 5 3 0 4 0 4 1 3 45 11 46 12 7 11
100 100 100 100 100 100 100 100 26 9 98 99 100 100 100 100 100 100 90 100 99 99 99 69 6 5 0 4 5 5 3 3 0 0 0 0 2 5 5 5 4 0 2 0 3 5 4
100 100 100 100 100 100 100 97 100 68 100 100 97 94 77 100 100 61 8 100 100 48 82 71 5 5 2 0 0 0 0 0 4 0 0 0 5 4 5 5 4 0 0 0 0 0 0
100 100 100 100 100 100 100 100 100 100 98 100 100 93 72 98 22 11 98 99 100 73 5 5 5 5 2 1 2 0 5 4 5 3 0 1 5 5 4 0 0 2 1 5 5 1 0
100 100 100 100 100 100 100 100 100 100 100 100 100 96 5 42 5 73 100 100 100 99 18 5 5 5 5 5 5 5 5 5 5 5 4 0 5 6 5 1 3 0 0 0 0 0 2
100 100 100 100 99 6 43 100 100 100 100 100 92 93 4 55 9 94 59 100 100 98 6 5 5 5 5 5 5 5 5 5 5 5 5 5 5 5 5 4 0 0 0 0 0 0 0
100 100 100 100 100 80 13 76 100 100 100 82 52 5 1 4 61 90 39 100 99 96 5 6 6 5 5 5 5 5 5 5 5 5 5 5 6 5 5 5 4 5 2 1 4 0 0
54 75 100 100 100 100 100 99 100 100 100 89 59 16 5 17 83 98 92 45 81 19 5 17 29 47 39 5 5 5 5 5 27 30 29 30 43 15 17 9 6 5 5 35 5 5 5
100 12 100 100 100 100 100 100 100 100 96 96 88 75 42 9 36 85 53 10 38 5 5 5 12 54 93 59 5 5 5 43 57 51 47 68 97 6 98 30 65 93 48 23 5 5 5
46 83 46 100 98 100 100 100 100 100 100 100 40 55 81 50 21 99 98 56 5 5 34 71 33 42 10 67 63 18 18 37 13 25 47 80 40 100 97 34 83 33 58 5 76 11 12

GFSGBSN_prec_cloud_084.txt.gz
Cloud_Cover
100 100 100 100 68 26 93 100 100 100 100 100 100 100 100 100 100 70 100 100 100 78 43 6 28 5 4 39 6 35 100 100 96 77 5 82 93 39 5 5 5 2 0 0 3 5 5
100 83 98 84 100 100 100 100 100 100 100 100 100 100 100 100 100 7 99 100 100 100 100 81 32 95 84 26 2 23 100 100 80 52 55 19 46 6 4 5 4 1 5 5 5 5 5
100 100 100 100 100 100 100 100 100 100 100 100 100 100 100 100 100 98 100 100 100 94 98 100 9 5 50 34 0 26 100 21 16 5 5 5 5 3 5 6 5 5 4 0 1 3 5
100 100 100 100 100 100 100 100 100 100 100 100 100 100 100 100 100 100 100 100 100 100 100 43 45 34 67 3 11 100 95 5 5 5 4 5 5 6 45 60 18 13 7 44 0 2 2
100 100 100 100 100 100 100 100 100 100 100 100 100 100 100 100 100 100 100 100 100 100 84 100 70 47 4 5 100 100 22 5 5 5 13 6 43 50 88 100 86 100 6 4 3 5 2
100 100 100 100 100 100 100 100 100 100 100 100 100 100 100 100 100 100 100 100 100 97 100 97 46 42 99 100 100 100 99 18 5 5 49 49 73 95 77 100 85 100 95 68 34 16 6
100 100 100 100 100 99 90 61 39 33 96 92 39 12 100 100 100 100 100 100 100 98 97 77 38 63 86 100 100 100 100 18 7 46 100 100 100 61 65 100 100 79 80 94 100 94 87
90 100 79 74 100 100 48 33 62 39 21 47 5 5 5 98 100 100 100 100 97 72 98 100 48 48 100 100 100 100 96 8 15 95 100 88 80 6 76 95 100 100 99 100 77 93 78
93 14 84 37 84 100 98 65 60 47 18 18 6 4 4 4 100 100 100 100 100 100 100 39 47 100 100 100 100 100 33 27 90 88 100 99 13 78 96 100 100 100 100 100 93 100 84
92 10 92 98 100 100 100 100 100 36 37 38 5 5 80 5 100 100 88 100 100 89 43 29 100 100 100 100 100 98 71 21 98 100 100 99 21 95 100 100 100 100 100 100 100 100 95
61 100 96 100 100 100 100 100 100 100 100 98 90 8 13 12 100 99 100 62 100 90 92 80 100 100 100 100 100 44 59 88 96 100 100 69 61 100 100 100 100 100 100 100 100 100 100
96 100 100 100 96 100 100 96 100 66 100 100 99 100 10 10 100 30 100 100 100 89 100 100 100 100 100 92 90 92 100 100 100 100 100 79 41 85 100 100 100 100 100 100 100 100 100
100 100 100 100 100 100 100 100 91 100 100 100 100 100 24 95 100 100 100 100 98 100 100 100 100 100 100 85 86 100 100 100 100 100 95 93 65 93 100 100 99 100 100 100 100 100 100
100 100 100 100 100 100 100 100 100 100 100 100 100 86 63 50 100 100 100 100 100 100 100 100 100 100 60 35 91 100 100 100 100 92 99 87 99 59 94 100 98 99 95 100 100 100 100
100 100 100 100 100 100 74 100 100 100 100 100 100 95 100 69 100 100 100 100 100 100 100 100 98 54 13 5 39 99 99 98 100 100 100 86 60 96 100 94 100 100 100 100 100 100 100
100 100 100 100 100 95 96 100 100 100 100 100 100 100 100 66 100 100 100 100 100 100 99 25 5 12 5 5 13 70 98 100 100 100 100 100 99 100 100 100 100 100 100 100 100 100 100
37 100 100 100 95 84 100 100 100 100 100 100 100 100 100 100 100 100 100 100 100 100 39 5 5 5 5 5 5 17 99 88 84 84 86 100 79 98 100 100 100 100 100 100 92 100 100
97 100 100 100 99 100 90 100 73 81 100 93 46 100 100 100 100 100 100 100 100 91 46 20 3 5 5 5 5 18 86 64 60 99 30 12 7 28 100 99 100 100 99 13 3 8 92
100 100 100 100 100 100 100 33 69 90 76 67 100 100 100 100 100 100 100 79 100 100 80 6 5 1 3 5 5 5 5 5 5 5 5 6 5 8 20 65 76 86 11 2 1 3 3
98 100 100 100 100 44 80 66 55 74 90 75 100 100 100 100 100 100 71 100 100 100 56 5 0 4 3 5 5 5 5 5 5 0 0 0 2 2 3 4 3 25 1 0 0 0 0
99 100 100 60 54 6 19 70 92 100 100 100 100 100 100 100 65 27 99 100 100 94 29 5 5 0 1 2 5 5 3 1 0 0 0 1 5 5 5 5 1 0 0 0 0 0 0
67 100 100 32 17 7 96 83 100 100 100 100 100 100 100 55 5 5 7 85 99 6 5 5 3 2 0 0 0 0 0 0 0 0 0 0 4 1 4 0 0 3 0 0 0 0 0
58 100 80 30 18 28 89 61 45 96 100 100 46 4 5 22 5 5 57 24 55 75 11 5 5 0 0 2 0 0 0 0 0 0 0 0 4 3 3 0 0 0 0 0 0 0 0
96 100 99 87 38 2 5 5 5 5 36 54 28 0 2 27 5 8 5 5 93 63 5 5 5 3 5 5 5 5 5 5 3 0 0 0 3 5 5 5 4 0 0 0 0 0 0
100 100 100 100 17 5 2 0 5 5 5 5 1 0 0 5 5 5 5 5 89 88 5 5 5 4 5 5 5 5 4 5 5 5 5 4 4 5 5 0 0 4 0 0 5 0 0
100 100 98 100 100 41 24 5 5 5 5 5 0 0 0 0 3 5 5 5 8 54 5 5 5 5 5 5 5 6 8 5 5 5 5 5 5 5 5 5 2 0 5 2 0 0 5
85 100 100 100 100 100 100 19 52 5 12 5 2 0 0 5 14 5 5 5 5 5 5 5 5 5 5 5 5 5 5 5 5 5 15 5 6 11 9 5 5 5 5 5 31 7 5
100 88 100 100 99 100 100 100 100 85 84 47 5 5 4 0 9 5 5 5 5 5 5 5 5 5 5 5 15 14 14 16 14 48 13 47 49 10 5 5 5 5 5 6 11 36 14
100 95 100 100 97 60 100 100 100 100 100 78 90 35 5 5 5 5 5 20 14 6 5 5 5 4 5 5 5 5 16 32 37 13 5 5 5 31 22 6 5 5 5 5 21 75 86

GFSGBSN_prec_cloud_087.txt.gz
Cloud_Cover
100 100 100 100 100 100 100 100 100 100 100 100 100 100 100 100 100 100 96 100 100 100 100 33 24 5 8 2 3 0 0 0 0 0 1 84 37 84 88 22 19 5 5 5 5 5 9
100 100 100 100 100 100 100 100 100 100 100 100 100 100 100 100 100 97 100 100 100 100 100 94 3 5 6 3 5 0 0 0 3 2 4 9 97 63 5 5 5 5 58 48 14 5 5
100 100 100 100 100 100 100 100 100 100 100 100 100 100 100 100 100 100 100 100 100 100 100 89 5 7 8 86 77 2 0 0 3 4 5 12 5 5 5 8 30 26 4 5 1 0 0
100 100 100 97 77 90 99 100 100 100 100 100 100 100 100 100 100 100 100 100 100 100 100 97 5 34 11 20 40 0 4 13 72 5 5 22 27 65 91 54 28 79 68 5 3 1 0
100 100 96 40 5 69 100 100 100 100 100 100 100 100 100 100 100 100 100 100 100 100 100 81 57 80 7 4 5 0 4 77 83 37 5 6 23 97 98 100 100 83 46 86 5 5 5
95 32 4 4 5 5 5 5 35 46 6 97 100 100 100 100 100 100 100 100 100 100 100 99 94 65 5 5 2 0 29 91 99 73 42 74 100 99 99 100 52 99 99 92 65 81 89
100 100 14 2 6 12 10 98 99 75 10 5 5 7 100 100 100 100 100 100 100 100 100 99 65 6 8 2 0 4 100 73 54 97 90 80 97 85 79 87 88 86 82 74 85 97 81
100 96 82 38 89 15 87 99 100 100 99 70 100 98 27 64 99 100 95 100 100 100 100 100 97 100 42 11 29 31 94 100 100 96 100 53 95 62 98 100 100 100 100 98 62 87 100
100 100 78 100 87 74 89 100 100 100 83 84 5 23 72 5 56 100 100 95 99 100 100 99 100 18 2 5 45 89 100 100 100 92 100 100 42 84 97 100 100 99 100 100 100 93 61
100 100 100 100 91 100 96 100 100 95 98 100 5 0 5 100 89 100 100 100 100 100 97 88 91 28 0 15 96 100 75 88 100 90 100 100 72 98 100 100 100 100 100 100 100 100 84
100 100 100 100 7 100 100 100 100 100 28 100 100 98 32 76 100 100 100 100 100 100 100 99 76 38 34 100 100 100 39 69 74 86 96 71 99 100 100 100 100 100 100 95 100 98 100
100 99 96 66 56 100 100 100 100 100 100 100 100 100 8 100 100 46 96 99 100 100 100 95 77 93 100 100 100 84 69 91 100 100 100 97 90 72 89 70 100 100 100 100 100 100 100
16 5 4 36 31 59 100 100 94 100 100 100 100 100 38 100 85 67 18 94 100 100 86 59 92 100 100 100 66 69 100 100 100 100 100 51 100 55 100 100 98 100 100 91 100 100 98
5 11 5 5 60 100 97 78 100 100 100 100 100 44 31 98 99 79 79 100 100 96 100 100 100 100 100 100 59 100 100 99 100 100 99 88 94 35 36 100 98 90 100 100 100 100 100
5 5 36 57 100 100 100 100 100 100 100 100 98 98 100 98 78 100 100 100 100 100 100 100 100 100 72 42 72 94 100 97 100 97 100 100 100 100 81 84 75 100 100 100 100 100 100
11 51 100 100 100 75 62 93 100 100 98 100 100 97 77 99 100 100 100 100 100 100 100 100 86 23 61 88 96 99 76 100 95 100 100 97 100 91 100 96 100 100 100 100 100 100 100
100 100 100 100 100 100 100 25 73 26 24 84 59 90 100 100 100 100 100 100 100 100 96 91 5 5 78 85 98 96 100 97 100 90 100 100 100 100 100 100 100 100 100 100 100 100 100
92 100 100 79 52 22 25 90 100 96 99 87 100 100 100 100 100 100 100 100 98 82 3 4 5 6 79 84 100 100 100 92 40 12 95 77 100 100 39 100 100 12 63 57 97 94 59
56 98 100 100 42 100 90 9 53 47 77 100 100 100 100 100 88 100 100 100 100 80 29 30 5 5 5 30 66 98 59 5 5 23 22 32 35 98 89 80 56 29 5 7 5 4 7
55 51 100 54 31 100 100 100 100 100 97 88 100 100 100 100 81 77 97 100 79 5 10 6 5 5 9 5 5 5 4 1 0 0 0 1 5 5 57 65 10 4 5 0 0 0 2
100 100 100 100 96 13 100 100 86 5 3 14 31 55 92 67 52 59 47 92 10 42 5 5 5 6 13 5 5 4 0 0 0 0 0 0 4 3 5 0 2 1 0 0 0 0 0
39 100 100 100 100 100 55 5 99 14 1 16 5 11 14 22 7 33 6 28 5 5 53 5 4 3 4 4 3 0 0 0 0 0 0 0 2 1 0 0 2 0 0 0 0 0 0
34 92 100 100 100 100 100 8 5 5 12 0 0 0 5 5 5 56 84 46 5 17 5 2 4 5 5 0 0 0 0 0 0 3 0 2 2 2 4 0 0 3 0 0 4 0 0
100 100 89 100 100 100 100 100 25 4 0 2 0 4 5 6 25 36 12 5 5 5 8 5 1 9 4 2 2 4 4 5 5 3 2 0 1 2 4 1 8 0 0 0 0 1 0
100 100 98 44 100 100 100 100 100 72 4 0 0 2 5 5 5 20 5 3 2 5 5 5 5 5 5 5 5 5 5 5 5 5 5 5 5 5 5 4 0 0 0 0 0 0 0
100 100 100 55 16 100 100 100 100 100 100 28 5 0 4 5 5 3 5 4 28 5 5 5 5 2 0 1 5 5 4 5 5 5 5 0 0 5 4 2 2 1 0 0 0 1 0
100 100 100 71 89 66 100 100 100 100 100 100 100 45 6 5 5 2 5 5 3 5 14 5 5 5 0 4 1 0 3 1 4 3 0 0 4 5 4 3 3 0 0 0 1 1 0
100 100 100 100 29 6 96 100 72 100 100 100 100 100 83 30 5 5 5 3 3 4 36 5 5 5 4 4 3 2 0 2 0 0 0 5 5 5 5 5 5 5 5 3 5 5 5
100 100 100 100 100 18 6 97 97 10 100 100 100 100 96 88 58 34 5 5 5 5 4 2 8 4 5 5 5 5 5 5 5 6 5 31 64 74 68 48 78 71 43 5 5 5 5

GFSGBSN_prec_cloud_090.txt.gz
Cloud_Cover
100 100 100 100 100 100 100 100 100 100 100 100 94 100 100 100 100 100 51 73 57 97 100 100 100 77 86 33 4 0 0 1 0 0 0 0 0 0 0 0 4 5 5 5 5 5 5
100 100 100 100 100 100 100 100 100 100 100 100 100 100 100 100 100 100 100 100 92 100 100 100 100 100 100 97 16 5 0 2 20 0 0 0 0 0 0 0 0 0 5 12 42 5 5
100 100 100 75 20 100 38 15 64 57 86 100 100 100 100 100 100 100 100 100 99 100 100 100 100 100 100 100 66 5 0 2 2 2 3 4 2 3 1 4 4 5 5 5 4 5 5
96 95 67 4 4 27 100 31 13 8 25 73 99 100 100 100 100 100 100 100 100 100 100 100 100 100 100 100 96 5 0 0 1 1 2 4 5 0 4 6 3 5 5 5 0 1 1
100 100 100 100 48 5 29 5 19 33 84 94 5 25 100 100 100 100 100 100 100 100 100 100 100 100 100 95 50 0 0 2 4 6 3 5 7 5 7 17 6 40 16 5 2 72 90
100 100 100 100 100 100 100 89 46 36 100 85 8 4 5 100 100 100 100 100 100 100 100 100 100 100 100 64 5 5 4 24 42 33 16 40 47 5 38 100 30 7 94 76 59 38 92
100 100 100 100 100 100 100 81 12 57 100 100 100 100 27 5 100 100 100 100 100 100 100 100 100 100 93 12 5 5 2 5 34 96 64 57 10 9 6 5 80 50 54 5 73 3 5
36 93 100 100 100 100 100 84 5 100 100 96 97 100 100 87 100 100 100 100 100 100 100 100 100 97 82 19 14 22 5 52 88 100 84 95 48 4 17 23 64 94 95 66 45 82 92
100 72 24 40 4 12 6 5 5 100 99 9 68 100 100 100 96 100 100 100 100 100 100 100 100 96 98 68 100 100 7 80 100 100 100 100 13 41 44 34 99 63 100 100 100 87 81
96 15 98 26 64 17 42 47 8 20 42 90 84 16 19 100 100 100 100 100 100 100 100 100 100 94 86 100 53 100 7 100 100 99 100 73 5 33 9 70 100 99 100 100 100 100 89
5 92 100 44 100 58 99 94 5 99 32 100 95 94 4 100 100 100 100 100 100 100 100 100 100 100 85 60 54 62 92 100 79 100 57 5 31 65 77 56 84 98 100 100 100 100 99
5 100 100 100 100 100 100 94 97 66 100 100 100 100 83 100 100 100 100 100 100 96 100 100 82 76 69 100 69 100 97 62 100 100 99 85 6 36 8 99 100 100 100 100 100 100 100
5 68 100 93 98 97 100 80 39 97 100 100 100 100 34 83 93 100 100 74 100 90 100 95 97 100 77 80 93 95 100 100 98 93 83 44 42 34 91 100 95 100 100 100 100 100 100
14 100 100 100 100 100 96 44 89 100 100 100 64 7 5 6 100 78 98 100 100 100 97 99 28 98 100 100 100 94 99 99 100 79 94 92 46 12 89 69 99 100 100 100 100 100 100
42 100 100 100 100 93 76 100 92 74 28 100 29 6 13 17 15 14 24 100 100 100 100 100 100 99 100 91 75 27 75 64 96 100 100 89 71 100 100 100 100 100 100 100 100 100 100
19 70 75 100 100 96 28 70 98 48 70 19 5 11 93 99 100 100 100 100 100 100 100 100 54 97 30 20 37 92 48 70 100 100 100 100 95 100 100 100 68 99 100 100 100 100 95
87 89 78 74 19 46 98 99 100 75 68 84 75 100 93 98 100 100 100 100 100 100 93 100 19 40 5 5 47 99 80 71 70 100 98 95 100 100 100 100 100 100 85 100 100 100 100
98 57 100 100 24 5 4 1 64 100 100 79 86 100 100 94 84 100 100 97 71 7 12 3 5 5 31 50 100 100 88 59 98 100 100 49 60 90 71 100 100 100 24 38 92 100 83
100 57 71 100 92 5 1 5 4 8 46 17 100 100 100 29 100 100 99 69 100 100 32 5 5 5 5 46 73 48 56 99 98 37 54 5 10 82 72 27 7 6 5 22 12 63 92
100 61 4 29 57 24 1 5 4 5 35 43 23 98 25 87 37 74 72 48 15 5 2 2 5 5 5 5 5 5 5 1 10 5 5 3 4 20 4 5 4 3 0 3 3 5 3
100 62 6 5 8 6 91 4 5 0 0 3 6 47 29 12 23 5 5 59 5 5 1 3 5 14 17 5 1 0 0 0 0 0 0 0 0 2 3 0 2 0 1 0 0 0 2
100 100 50 5 5 14 8 80 0 0 0 0 14 5 5 5 10 5 5 41 5 5 5 5 5 5 4 1 1 1 0 0 0 2 0 0 0 0 0 0 0 0 0 0 0 0 0
99 100 96 4 5 39 46 19 93 2 0 0 0 3 5 5 22 7 5 5 5 5 4 1 5 4 0 0 0 3 0 0 0 0 0 0 3 2 4 0 0 2 0 0 4 0 0
100 54 64 24 2 5 11 26 32 100 11 5 4 2 5 3 5 5 9 3 0 1 1 0 0 4 0 0 0 0 0 0 0 0 0 0 0 1 16 0 5 0 0 0 0 0 0
100 100 67 35 4 0 5 5 17 6 96 36 5 5 5 4 4 5 5 0 0 0 0 0 0 0 0 0 0 1 0 0 0 0 0 0 0 5 4 4 0 0 0 0 0 0 0
100 100 100 62 5 4 0 4 5 20 4 39 63 5 5 16 10 10 5 2 8 3 0 0 0 0 0 0 0 0 0 0 0 0 0 0 2 1 5 5 0 0 0 0 0 0 0
100 100 100 95 76 58 6 5 3 5 6 57 8 80 32 5 5 5 5 5 5 5 6 0 0 0 0 2 2 0 0 0 0 1 0 1 0 1 3 4 1 0 0 0 0 0 0
100 100 100 100 100 100 35 73 2 0 4 5 79 42 20 96 29 5 5 17 26 21 5 5 3 2 0 3 0 2 4 5 5 5 1 1 3 4 5 5 2 0 0 1 0 0 3
94 100 100 100 40 100 98 76 94 6 5 1 8 98 97 7 56 67 5 5 12 25 5 5 5 5 5 5 2 0 5 5 4 5 0 0 1 2 4 4 4 5 5 5 5 5 5

GFSGBSN_prec_cloud_093.txt.gz
Cloud_Cover
5 35 37 10 98 5 57 53 100 100 100 100 100 100 100 100 100 100 100 100 100 100 100 100 100 76 23 5 4 0 4 0 5 5 0 0 0 0 0 0 0 0 0 0 2 0 0
78 100 100 100 100 98 100 94 100 79 100 100 100 100 100 100 100 100 100 100 100 100 100 100 94 98 98 73 9 2 5 5 5 5 2 0 0 0 0 0 0 0 0 0 0 0 0
96 92 99 100 100 97 100 100 99 51 95 100 100 100 100 100 100 100 100 100 100 100 100 100 100 100 100 44 21 5 98 7 7 89 5 0 0 0 0 0 0 0 0 0 0 0 0
100 96 100 100 100 100 100 100 100 45 44 100 100 100 90 99 96 100 100 100 100 100 100 100 100 100 100 53 60 99 100 100 100 94 40 3 0 0 0 0 1 0 1 1 0 0 0
100 100 100 100 100 90 100 100 100 81 78 72 100 96 80 0 86 97 100 100 100 100 100 100 100 100 100 65 100 100 100 99 36 50 5 2 2 4 4 5 5 5 5 4 1 0 4
50 26 3 20 18 27 5 21 26 18 96 28 100 100 99 1 78 100 100 100 100 100 100 100 100 100 73 100 100 100 100 98 92 42 5 34 14 4 5 6 5 1 5 0 0 4 3
10 93 11 16 82 28 54 22 21 89 100 67 60 100 100 100 49 100 100 100 100 100 100 100 100 100 100 100 100 100 91 100 98 75 20 38 7 70 5 4 5 5 6 15 61 72 98
85 100 40 74 74 100 97 32 67 100 82 12 6 45 100 100 49 100 100 100 100 100 100 100 100 100 100 100 100 100 100 100 97 88 85 51 19 19 5 7 66 6 54 26 6 79 88
100 99 5 94 100 100 100 100 94 10 71 88 5 5 75 100 100 100 100 100 100 100 100 100 100 100 100 100 100 100 100 80 100 100 100 82 4 5 47 6 5 5 43 68 70 86 87
100 66 16 64 100 100 100 100 100 50 93 100 98 3 100 100 100 100 100 100 100 100 100 100 100 98 100 100 100 100 58 80 100 92 100 74 8 5 5 5 42 100 34 93 100 100 75
100 100 100 100 100 100 74 100 100 100 48 100 84 32 100 100 100 100 100 100 100 100 100 100 100 94 100 99 72 94 74 100 96 97 66 12 5 6 41 78 44 37 84 100 100 100 100
100 93 100 100 100 89 100 75 22 100 100 100 98 12 100 100 100 100 100 100 99 100 100 100 99 100 94 80 78 85 97 47 45 78 93 72 12 4 5 56 96 100 100 100 100 90 100
100 100 100 100 100 78 60 26 100 96 92 74 13 14 100 100 100 100 97 82 100 93 100 100 100 100 75 88 26 84 100 94 93 97 68 5 10 10 56 96 96 100 100 100 100 100 100
100 100 56 100 100 100 39 7 5 5 22 5 6 100 60 100 99 100 100 100 59 98 97 100 97 80 86 85 62 84 100 100 97 100 96 66 84 82 98 95 47 84 100 100 100 100 100
100 99 90 84 93 46 91 5 7 4 4 33 23 38 84 40 52 100 99 87 100 100 10 84 100 94 48 78 95 95 100 76 98 82 100 100 98 100 100 100 97 99 100 100 100 100 100
100 95 65 47 4 1 74 5 2 10 19 5 100 100 99 45 33 26 42 100 91 84 36 29 88 98 98 24 84 88 67 83 100 99 100 100 95 68 100 100 100 100 100 100 100 100 100
42 69 71 1 0 1 35 4 25 87 100 32 100 100 99 83 92 97 100 98 71 98 45 75 88 5 5 10 64 82 99 86 94 98 100 84 100 42 96 87 100 100 100 100 100 100 100
94 91 90 5 0 0 4 9 54 5 5 4 100 90 61 7 16 79 89 19 8 5 5 5 6 5 5 28 100 99 36 11 5 72 100 100 98 100 99 100 45 6 86 82 100 87 100
100 17 5 4 0 0 0 2 3 0 3 2 67 37 0 5 89 100 31 5 5 5 5 5 5 4 4 5 20 8 100 3 4 12 85 93 49 48 5 5 5 5 12 98 100 66 96
100 32 12 0 0 0 3 0 0 0 5 5 2 13 4 5 15 18 5 5 5 5 5 4 5 5 5 5 5 3 1 1 0 0 0 4 4 3 5 5 4 5 1 1 0 0 5
37 5 13 0 0 0 2 4 0 0 0 2 2 5 5 5 11 5 5 5 2 2 2 0 3 5 5 5 0 0 0 0 0 0 0 0 0 1 0 0 0 0 0 0 0 0 1
11 11 14 5 0 0 0 0 5 0 0 2 3 0 5 5 5 5 5 5 0 0 0 0 2 0 0 0 0 0 0 0 0 0 0 0 0 0 0 0 0 0 0 0 0 0 5
86 96 10 5 4 1 0 0 0 3 2 0 0 5 5 5 5 5 5 0 0 0 0 0 0 0 0 0 0 0 0 0 0 0 0 0 0 4 5 0 0 2 0 0 0 2 4
100 90 79 6 52 5 0 0 0 0 0 4 0 0 5 5 5 5 5 0 0 0 0 0 0 0 0 0 0 0 0 0 0 0 0 0 0 6 5 1 4 0 0 0 0 0 0
100 100 52 87 24 11 34 3 0 0 0 0 1 4 0 4 5 5 5 2 0 0 0 0 0 0 0 0 0 0 0 0 0 0 0 0 0 0 4 4 0 0 0 0 0 0 0
100 65 100 80 93 36 48 2 5 0 0 0 0 0 3 0 1 5 14 5 5 3 0 0 0 0 0 0 0 0 0 0 0 0 0 2 3 5 5 5 0 0 0 0 0 1 0
96 98 27 65 100 33 48 5 70 3 0 0 1 0 0 0 4 3 2 5 5 6 5 2 0 0 0 0 0 0 3 0 0 0 0 0 1 3 4 5 5 0 0 0 0 0 0
100 100 84 29 73 100 80 78 100 100 66 0 0 3 0 0 0 2 4 5 3 5 29 6 5 5 3 2 2 0 0 0 0 0 0 0 0 2 0 2 0 0 0 0 0 1 4
89 100 100 64 100 71 100 100 63 100 100 94 0 0 3 5 2 0 0 0 2 5 5 5 5 5 5 5 5 5 5 4 0 0 0 0 0 0 4 2 0 0 0 0 0 0 0

GFSGBSN_prec_cloud_096.txt.gz
Cloud_Cover
36 82 10 25 100 100 100 100 100 100 100 100 96 100 100 100 100 100 100 100 100 100 100 100 100 100 85 82 5 5 5 5 2 0 0 0 0 0 0 0 0 0 0 0 0 0 0
38 6 9 5 68 67 100 100 100 100 100 100 100 100 100 100 100 100 100 100 100 100 100 100 100 100 100 100 69 32 63 6 38 4 2 0 0 0 0 0 0 0 0 0 0 0 0
26 88 3 23 23 5 5 58 100 100 100 100 100 100 100 100 100 100 100 100 100 100 100 100 100 100 100 100 100 83 60 57 28 56 5 0 1 0 0 1 0 0 0 0 0 0 0
22 44 55 76 1 36 5 5 6 100 100 100 100 100 100 99 94 100 100 100 100 100 100 100 100 100 100 100 100 100 95 13 52 62 4 2 1 5 92 4 0 0 0 4 0 0 0
90 90 100 55 6 73 42 3 2 9 99 100 100 100 100 28 82 61 100 100 100 100 100 100 100 100 100 100 100 100 100 100 97 56 5 8 6 76 67 5 5 5 3 4 0 0 0
96 100 100 100 5 76 100 98 67 44 96 71 37 76 100 11 3 100 100 100 100 100 100 100 100 100 100 100 100 100 100 100 100 100 100 100 6 7 22 15 0 1 5 5 5 3 5
100 95 41 23 67 100 100 100 100 52 16 5 26 7 40 97 20 84 100 100 100 100 100 100 100 100 100 100 100 100 99 98 87 99 100 10 20 50 9 4 4 5 5 6 5 2 30
100 99 98 100 57 100 100 100 100 57 21 100 53 5 82 51 97 100 100 100 100 100 100 100 100 100 100 100 98 100 100 84 75 70 64 5 87 28 5 5 5 32 21 29 73 3 74
100 99 100 96 100 100 100 100 100 86 54 100 40 11 98 75 90 100 100 100 100 100 100 100 100 100 90 100 99 99 100 58 96 71 69 78 6 12 5 5 10 11 11 6 18 87 100
100 100 100 97 72 98 100 100 88 20 100 52 2 5 42 100 100 100 100 100 100 100 100 100 100 93 99 98 100 97 85 99 100 99 74 20 11 5 5 26 19 96 15 95 100 100 99
100 100 93 59 100 5 10 16 5 22 96 5 5 35 25 100 100 100 100 100 100 100 100 100 99 68 63 42 100 100 85 95 99 100 54 9 4 6 39 11 5 10 6 31 100 100 100
100 90 86 46 5 2 4 5 5 4 5 5 5 27 56 100 100 100 100 100 100 100 100 100 99 58 96 100 100 56 99 90 90 83 99 15 5 10 6 5 6 11 79 97 100 100 100
100 59 94 3 1 58 5 3 5 5 5 4 0 4 54 100 97 100 100 100 100 100 100 100 77 74 76 69 7 100 98 89 92 71 58 5 9 5 5 10 49 78 99 100 80 96 100
61 16 9 69 0 17 73 48 27 0 0 0 4 0 41 18 5 5 92 73 93 100 100 43 20 99 76 50 91 100 100 98 77 100 99 58 5 5 5 58 38 96 100 100 95 100 100
82 5 0 76 3 1 5 5 7 5 1 4 1 11 16 7 5 5 2 87 99 83 52 94 97 94 89 98 92 100 97 95 100 86 49 86 9 6 26 68 100 100 100 100 100 100 100
6 100 50 0 3 0 0 0 5 5 5 4 3 72 84 20 21 5 8 93 78 20 31 5 5 18 66 58 80 98 72 78 70 98 100 99 98 72 100 51 60 100 100 100 100 100 100
8 96 47 12 0 4 0 0 0 1 0 0 0 2 9 36 5 35 66 62 5 5 5 5 5 5 5 72 85 100 12 28 63 99 100 86 100 95 100 100 100 100 100 83 92 97 100
0 0 0 0 0 0 0 0 0 0 0 0 0 6 0 0 5 12 34 44 5 5 5 5 5 5 5 8 6 5 6 9 5 67 33 87 48 96 8 8 6 9 100 100 100 78 95
0 0 1 0 0 0 0 0 0 0 0 0 0 6 0 0 5 5 5 5 5 2 5 5 5 5 5 5 5 5 4 5 0 5 5 5 7 18 5 4 4 4 2 3 84 5 38
16 2 0 0 0 0 0 0 0 0 0 0 0 2 2 1 5 5 5 5 4 0 3 0 5 0 1 5 5 4 0 0 0 0 2 5 4 2 5 2 4 3 0 0 0 2 5
66 11 0 0 0 2 0 0 0 0 0 0 0 0 4 6 5 5 5 0 0 3 0 0 0 0 0 0 0 0 0 0 0 5 3 3 4 1 0 0 2 0 0 0 0 0 1
99 100 3 0 0 0 0 0 0 0 0 0 0 0 2 5 5 5 3 0 0 0 0 0 0 0 0 0 0 0 0 0 0 0 0 1 2 0 0 0 0 0 0 0 0 0 0
27 99 100 2 1 0 4 0 0 0 0 0 0 5 4 3 5 5 4 0 0 0 0 0 0 0 0 0 0 0 0 0 0 0 0 0 0 4 3 0 0 2 0 0 0 0 1
5 96 100 70 12 2 3 0 0 0 0 0 0 0 3 5 4 1 2 1 0 0 0 0 0 0 0 0 0 0 0 0 0 0 0 0 0 7 5 1 2 0 0 0 0 0 0
5 44 100 100 7 5 34 4 1 4 0 0 0 0 0 0 0 3 5 4 0 0 0 0 0 0 0 0 0 0 0 0 0 0 0 0 0 0 5 4 0 0 0 0 0 0 0
100 7 40 100 13 73 35 90 6 76 6 81 2 0 0 0 0 0 0 2 3 5 5 4 4 3 3 0 0 0 0 0 0 0 0 0 0 2 4 5 1 0 0 0 0 0 0
100 100 23 48 5 21 78 9 16 7 94 6 5 1 0 0 0 0 0 0 0 3 2 1 4 5 5 4 5 3 3 0 0 0 0 0 3 4 1 5 1 0 0 0 0 0 0
100 100 98 100 58 22 5 24 5 10 39 43 63 7 5 0 0 0 0 0 1 0 4 0 0 2 5 5 5 5 5 4 0 0 0 0 0 0 3 2 3 0 0 0 0 0 0
76 94 30 69 45 48 95 33 5 37 86 66 11 19 32 13 4 0 0 0 0 0 5 5 5 3 1 4 5 5 5 5 5 5 4 4 1 0 0 0 0 0 0 0 0 0 1

GFSGBSN_prec_cloud_099.txt.gz
Cloud_Cover
93 100 100 100 87 30 31 100 80 67 91 100 100 100 100 48 100 100 100 100 100 100 100 100 100 100 100 66 5 0 0 0 0 0 5 0 0 0 0 0 0 0 0 0 0 0 0
92 63 100 100 84 87 5 5 5 4 4 93 100 100 100 93 99 100 100 100 100 100 100 100 100 100 100 99 79 5 2 1 5 2 0 1 0 0 0 0 0 0 0 0 0 0 0
80 100 99 36 19 100 25 96 21 2 5 8 100 100 100 100 100 100 100 100 100 100 100 100 100 100 100 100 100 16 5 36 42 5 5 4 0 4 4 0 0 0 0 0 0 0 0
100 100 6 5 5 96 86 99 51 5 5 80 6 97 100 100 100 100 100 100 100 100 100 100 100 100 100 100 100 100 89 17 35 70 42 100 11 5 5 1 0 0 0 1 0 0 0
68 16 57 98 36 100 100 89 96 57 7 6 8 92 100 100 100 100 100 100 100 100 100 100 100 100 100 100 100 100 89 76 65 98 97 46 5 4 3 4 0 0 3 2 0 0 0
38 88 85 100 100 100 100 100 100 91 71 100 7 99 100 86 100 100 100 100 100 100 100 100 100 100 100 100 100 100 94 100 100 100 78 10 5 5 5 5 0 0 5 5 5 0 0
98 99 100 100 100 100 100 100 100 86 96 100 38 97 100 50 100 100 100 100 100 100 100 100 100 100 100 100 100 100 100 70 100 100 21 5 5 14 5 2 0 3 5 6 4 2 25
100 99 100 98 100 100 100 100 100 40 100 100 4 6 61 91 32 100 100 100 100 100 100 100 100 100 100 100 100 100 100 100 100 57 45 53 29 5 3 0 5 5 21 44 5 5 86
100 81 62 86 94 4 49 60 53 97 81 46 90 89 100 100 95 100 100 100 100 100 100 100 100 100 100 100 100 100 100 100 65 37 5 5 5 3 2 5 5 5 31 16 80 36 100
100 90 18 0 3 0 33 5 7 39 4 17 46 7 72 100 100 100 100 100 100 100 100 100 100 100 100 100 100 100 99 76 54 5 32 20 5 1 1 5 5 83 5 23 97 100 100
93 1 0 7 3 5 5 5 13 55 5 100 92 98 100 100 100 100 100 100 100 100 100 100 97 59 46 45 14 58 81 95 100 100 40 4 2 5 6 5 5 5 19 85 100 100 100
0 100 91 99 1 0 4 4 4 25 5 96 100 86 100 100 100 100 100 100 100 100 100 100 95 74 54 25 50 74 97 75 91 68 94 16 8 5 5 5 6 17 19 87 94 96 100
48 88 18 100 70 84 3 4 0 3 0 2 13 5 5 46 100 100 93 84 59 85 97 96 46 57 75 76 97 100 71 67 84 61 38 5 5 5 5 5 5 25 100 74 100 100 100
20 57 0 8 0 0 0 1 4 0 0 1 4 20 58 78 40 13 54 71 41 96 92 39 42 43 96 90 79 42 100 100 37 100 95 42 4 5 6 75 80 100 100 100 100 100 100
91 68 0 0 0 0 0 0 0 5 0 0 0 2 3 6 71 100 100 100 88 40 5 27 55 11 52 58 14 5 65 96 98 97 92 100 81 95 88 66 93 100 82 99 100 100 100
34 0 6 0 1 0 0 0 0 0 2 0 0 0 2 2 0 2 2 75 55 32 5 5 14 11 41 82 58 69 48 64 84 100 100 81 99 31 100 35 96 11 74 94 96 100 92
0 2 0 0 0 0 0 0 0 0 0 0 0 0 0 0 0 0 54 51 5 5 5 5 5 5 5 39 62 73 29 28 69 100 100 89 92 90 24 89 100 91 19 86 83 73 100
0 4 0 0 0 0 0 0 0 0 0 0 0 0 0 0 0 5 60 8 5 5 5 5 5 5 6 32 97 100 89 10 5 13 61 42 81 86 0 2 20 98 5 17 88 96 91
2 1 4 0 0 0 0 0 0 0 0 0 0 0 0 0 4 11 5 5 3 4 4 5 5 4 5 5 5 5 4 0 0 5 5 4 5 30 0 0 0 0 3 0 5 26 6
4 4 1 0 0 0 0 0 0 0 0 0 0 0 0 0 4 3 2 2 4 5 3 5 4 4 5 5 3 0 0 0 3 0 3 5 5 2 5 0 0 0 0 0 0 5 5
48 5 4 0 0 0 0 0 0 0 0 0 0 0 1 3 1 1 4 2 0 0 1 2 3 0 0 0 0 0 0 0 0 3 5 4 4 0 1 0 0 0 0 0 0 0 1
83 70 5 5 5 3 0 0 0 0 0 0 0 0 0 0 5 1 0 0 0 0 0 0 0 0 0 0 0 0 0 0 0 0 0 2 3 4 5 0 0 0 0 0 0 0 0
100 99 42 92 1 4 5 0 0 2 0 0 0 0 0 0 0 0 2 0 0 0 0 0 0 0 0 0 0 0 0 0 0 0 0 0 0 5 4 0 0 2 0 0 0 0 0
9 96 86 60 38 5 22 4 3 0 0 0 0 0 0 0 0 0 0 0 0 0 0 0 0 0 0 0 0 0 0 0 0 0 0 0 0 6 5 1 0 0 0 0 0 0 0
75 91 15 80 100 8 6 42 5 4 0 5 0 0 0 0 0 0 0 0 0 0 0 0 0 0 0 0 0 0 0 0 0 0 0 0 0 2 5 11 0 0 0 0 0 0 0
100 63 88 18 5 11 79 8 20 6 5 5 5 1 0 1 2 2 1 0 0 0 0 0 0 0 0 0 0 0 0 0 0 0 0 0 0 2 5 5 0 4 1 5 0 0 0
100 100 100 100 70 17 15 86 12 51 42 7 42 9 5 5 2 1 2 4 0 1 4 4 2 2 0 0 0 2 4 0 0 0 0 0 0 2 4 5 3 0 0 1 1 0 0
100 86 100 98 100 5 5 5 10 21 30 41 54 15 5 5 35 50 0 0 0 5 5 4 4 2 2 0 2 5 5 5 5 5 4 0 0 4 4 5 4 0 0 0 0 0 0
100 100 86 23 100 100 5 71 100 9 6 11 41 58 25 5 4 3 6 13 5 4 2 4 2 2 6 5 5 5 0 5 7 19 5 5 5 0 0 0 0 0 0 0 0 0 0

GFSGBSN_prec_cloud_102.txt.gz
Cloud_Cover
99 80 100 79 50 93 4 0 2 2 0 4 8 52 100 100 100 100 86 100 100 100 100 100 100 100 100 100 76 6 2 0 0 0 0 0 0 1 3 8 5 5 5 2 2 2 0
100 100 100 62 5 68 44 89 5 4 1 0 5 23 100 100 100 100 100 100 100 100 100 100 100 100 100 100 100 71 10 2 2 0 0 0 0 0 0 0 1 1 0 0 0 0 0
100 91 56 87 72 100 100 100 100 35 9 0 5 53 100 100 100 100 66 100 100 100 100 100 100 100 100 100 100 100 93 17 5 5 5 2 0 0 0 0 0 0 0 0 0 0 0
9 93 100 92 100 100 100 100 100 51 66 6 5 4 100 100 69 100 65 100 100 100 100 100 100 100 100 100 100 100 100 70 61 40 11 0 1 0 0 0 0 1 0 0 0 0 0
100 100 90 100 100 84 100 100 100 100 100 13 31 3 43 100 99 100 99 100 100 100 100 100 100 100 100 100 94 98 100 96 100 100 100 37 23 11 5 5 5 5 4 1 0 0 0
100 98 97 32 64 37 100 100 100 100 100 100 64 75 100 87 100 100 98 100 100 100 100 100 100 100 100 100 80 100 100 100 100 100 100 41 11 78 44 5 5 4 0 3 4 0 0
100 71 1 2 83 34 99 14 100 94 38 44 5 52 100 99 100 100 100 100 100 100 100 100 100 100 100 100 100 100 100 100 100 100 100 89 11 5 5 5 14 23 5 5 4 0 5
8 2 48 22 33 43 4 3 2 5 5 1 4 50 26 100 100 100 100 100 100 100 100 100 100 100 100 96 100 100 100 100 100 68 55 44 74 83 5 5 9 13 19 12 5 1 38
100 82 23 57 57 3 5 40 86 21 78 30 2 2 98 100 100 90 100 100 100 100 100 100 100 100 100 100 100 100 100 100 86 97 98 86 41 67 99 24 5 6 30 5 12 42 32
65 100 54 3 2 5 5 51 26 4 86 100 92 30 99 95 56 100 100 100 100 100 100 100 100 100 100 100 100 100 100 95 75 24 7 6 10 25 5 5 4 96 2 5 87 100 100
1 100 84 0 0 2 7 45 86 10 100 18 100 100 100 100 100 100 100 100 100 100 100 100 100 100 100 90 47 28 82 86 90 13 8 7 5 5 7 5 4 5 5 75 100 100 100
4 3 99 6 0 0 6 31 0 5 25 100 100 86 59 68 100 100 100 100 100 86 100 100 87 91 43 37 6 74 96 54 42 42 6 5 5 5 5 5 5 6 41 100 100 100 99
0 11 4 0 0 0 0 0 3 4 12 81 87 43 40 72 74 82 100 100 100 95 70 44 32 63 80 37 44 90 6 30 51 6 5 3 4 4 5 5 5 86 100 73 28 69 75
0 10 2 15 1 0 0 0 0 0 0 1 5 5 10 100 98 42 13 89 100 99 100 43 68 100 85 30 5 8 9 49 15 18 13 48 4 1 5 7 37 96 100 98 97 100 92
0 0 0 0 2 4 42 18 2 0 0 0 4 5 0 4 2 2 12 42 80 45 39 13 5 5 5 59 22 5 5 10 93 96 27 94 8 68 12 27 93 99 96 100 100 100 100
2 0 0 0 0 0 0 1 32 13 0 0 0 0 0 0 0 4 5 71 12 4 1 5 5 5 5 5 11 6 6 9 68 100 5 56 91 47 100 100 32 14 41 75 89 99 100
0 0 0 0 0 0 0 0 0 7 20 0 0 0 0 0 0 0 53 62 5 5 5 5 5 4 5 5 5 5 9 5 27 73 100 100 88 31 62 8 9 4 10 22 75 47 100
100 50 0 0 0 0 0 0 0 0 0 0 0 0 0 0 0 4 76 8 5 5 5 5 5 5 5 5 5 5 5 7 5 37 92 95 100 77 4 4 0 0 5 5 8 100 53
8 79 16 0 0 0 0 0 0 0 0 0 0 0 0 0 1 7 5 5 5 5 4 5 5 5 5 5 3 0 0 0 5 5 5 6 24 39 0 0 0 0 2 0 5 51 6
86 5 3 2 0 0 0 0 0 0 0 0 0 0 0 0 0 0 0 0 4 5 2 0 0 0 3 5 5 4 1 0 5 5 5 8 5 5 4 0 0 0 0 0 4 41 5
98 84 3 9 8 0 0 0 0 0 0 0 0 0 0 0 0 0 0 0 0 0 0 0 2 4 5 2 1 0 0 0 0 4 5 5 4 5 1 2 0 0 0 0 0 0 2
93 84 38 6 6 2 4 0 0 0 0 3 0 0 0 0 0 0 0 0 0 0 0 0 0 0 0 0 0 0 0 0 0 0 0 3 3 5 5 2 0 1 0 0 0 0 0
100 95 72 24 85 3 0 1 0 5 1 0 1 0 0 0 0 0 0 0 0 0 0 0 0 0 0 0 0 0 0 0 0 0 0 0 4 5 5 2 0 2 0 0 0 0 0
100 100 99 96 97 12 5 4 5 2 4 4 0 0 0 0 0 0 0 0 0 0 0 0 0 0 0 0 0 0 0 0 0 0 1 5 4 7 20 2 0 0 0 0 0 0 0
100 100 100 100 5 9 5 5 5 5 5 5 1 4 0 0 0 0 0 0 0 0 0 0 0 0 0 0 0 0 0 0 0 0 0 5 5 2 5 54 1 0 0 0 0 0 0
100 100 99 100 100 5 27 6 83 35 51 5 5 4 5 5 2 2 0 0 0 0 0 0 0 0 0 0 0 0 0 0 0 0 0 5 5 5 5 6 0 0 0 0 0 0 0
92 100 100 98 64 74 88 5 6 82 90 5 97 25 5 5 5 5 5 4 5 3 2 0 0 0 0 1 0 0 3 0 0 0 0 2 4 5 5 18 4 0 0 0 0 0 0
100 100 100 100 9 13 91 5 6 11 32 9 6 36 5 5 14 5 5 5 5 5 5 2 0 0 4 5 5 5 0 0 0 0 0 0 1 5 5 23 13 0 0 0 0 0 0
100 100 100 100 16 31 36 5 5 5 5 10 20 74 99 44 91 11 5 5 5 5 5 5 5 5 5 5 2 4 0 0 2 0 0 0 0 0 0 0 5 5 5 2 0 0 0

GFSGBSN_prec_cloud_105.txt.gz
Cloud_Cover
4 5 5 48 91 96 100 38 100 100 34 5 50 5 63 100 100 100 100 5 35 100 58 100 100 100 100 100 100 100 4 0 0 0 0 0 0 2 6 89 100 96 20 5 14 31 53
8 26 60 20 100 100 100 100 100 100 100 95 71 3 12 100 100 100 100 68 50 99 100 86 100 100 100 100 100 96 100 56 5 0 0 0 0 0 0 0 0 0 1 3 5 15 37
96 99 96 46 5 69 100 100 100 100 100 100 68 5 100 100 100 100 100 88 98 98 100 100 100 100 100 100 89 100 100 98 23 36 3 0 0 0 0 0 0 0 0 0 0 0 0
100 100 80 1 0 39 61 100 100 100 100 100 94 2 100 100 100 100 100 58 96 100 100 100 100 100 100 100 100 100 100 91 100 100 83 6 5 0 0 0 0 0 0 0 0 0 0
48 100 5 38 30 6 5 25 40 99 98 99 76 48 92 100 100 59 100 100 100 100 100 100 100 100 100 100 100 58 100 100 100 100 95 92 82 8 0 0 0 0 0 0 0 0 0
39 100 39 70 12 24 15 100 5 2 5 26 30 96 100 100 43 100 100 100 100 100 100 100 100 100 100 100 88 7 14 100 100 100 100 100 99 85 10 4 2 4 1 2 2 4 0
5 100 49 48 75 35 5 100 0 1 0 63 100 66 47 100 100 100 100 100 100 100 100 100 100 100 100 94 5 68 100 95 100 100 100 100 100 100 48 56 67 46 7 12 5 4 1
3 72 100 79 65 11 19 69 76 7 4 31 5 52 100 100 100 100 100 96 100 100 100 100 100 100 100 83 25 5 20 5 12 100 100 100 100 74 57 40 58 9 15 19 5 1 5
1 85 100 100 51 16 63 23 100 77 100 91 61 100 100 100 100 100 100 100 100 100 100 100 100 100 97 95 26 5 5 7 73 63 55 100 100 100 74 29 6 5 40 5 5 26 5
0 10 99 100 100 66 99 42 82 100 100 100 65 100 100 100 84 100 100 100 100 100 100 100 100 100 83 27 14 5 6 35 67 88 87 100 100 99 85 35 5 95 4 5 54 99 71
0 0 7 25 0 0 0 0 5 13 10 10 97 100 100 100 70 95 100 100 100 100 100 100 97 75 100 82 93 97 100 100 76 97 100 94 68 79 20 5 5 5 5 46 100 100 100
3 20 0 0 0 0 0 0 0 4 83 5 8 100 89 100 100 100 66 100 100 100 100 95 88 96 81 80 86 99 100 86 97 95 24 10 5 5 5 5 5 5 83 70 100 100 87
17 0 38 3 0 0 3 0 0 0 1 5 5 54 38 100 99 98 100 100 100 100 90 97 91 100 99 100 100 99 87 81 48 14 9 4 3 4 5 5 6 75 74 59 42 23 5
2 0 0 0 0 0 0 1 4 1 0 0 0 5 65 36 49 62 4 5 59 100 99 51 100 67 35 5 5 5 5 22 5 5 5 38 4 1 5 5 5 89 66 74 95 71 78
0 0 0 0 0 0 0 0 4 0 0 0 0 0 0 0 3 5 10 32 49 5 21 5 6 5 13 60 5 5 5 5 5 5 5 38 5 0 5 5 2 80 86 100 100 96 99
60 0 0 15 0 0 0 0 19 30 5 0 0 0 0 0 0 0 2 49 13 4 1 5 5 3 5 5 9 5 5 5 5 16 5 38 54 2 24 91 55 25 68 30 58 87 96
100 96 1 0 0 0 0 0 0 23 1 0 0 0 0 0 0 0 46 23 5 5 5 5 3 2 2 5 5 5 5 5 5 5 5 39 44 5 0 3 5 48 12 10 68 73 100
100 100 99 24 0 0 0 0 0 4 0 0 0 0 0 0 0 4 80 5 5 5 5 5 5 5 5 5 5 5 2 3 5 5 100 100 100 75 4 1 1 5 5 2 6 96 99
100 100 60 33 3 0 0 0 0 0 0 0 0 0 0 0 0 9 2 4 5 5 4 5 5 5 5 4 0 0 0 0 5 5 6 46 66 70 0 0 0 0 0 0 5 7 38
100 41 79 46 27 7 4 0 0 0 0 0 0 0 0 0 0 0 0 0 1 0 0 0 0 0 0 0 2 2 0 0 1 5 5 37 37 5 4 0 0 1 0 0 1 6 5
100 98 88 25 100 20 0 3 0 0 0 0 3 0 0 0 0 0 0 0 0 0 0 0 0 0 0 0 0 0 0 0 0 0 5 5 8 8 5 1 2 5 5 5 5 0 4
100 100 31 100 37 5 5 5 5 1 0 4 0 0 0 0 0 0 0 0 0 0 0 0 0 0 0 0 0 0 0 0 0 0 0 2 5 5 7 1 4 5 2 1 5 1 0
17 100 18 8 49 5 5 4 22 3 5 2 3 0 0 0 0 0 0 0 0 0 0 0 0 1 2 5 5 1 0 0 0 0 0 3 6 5 5 2 3 0 0 4 0 0 0
98 18 99 5 5 7 5 5 5 5 5 5 5 3 3 0 0 0 0 0 0 0 0 0 0 0 0 0 1 1 0 0 2 4 5 5 5 6 27 2 0 0 0 0 0 0 0
96 72 82 46 5 5 5 38 27 12 5 6 5 5 3 5 4 0 0 4 0 0 0 0 0 0 0 0 0 0 0 0 0 0 0 4 5 5 5 57 0 0 0 0 0 0 0
100 98 99 100 8 5 11 5 97 47 5 40 94 5 5 5 5 5 4 5 2 0 0 0 0 0 0 0 0 0 4 5 5 5 0 4 8 57 6 5 4 0 3 5 1 0 0
100 100 100 100 98 4 5 5 7 86 52 10 100 56 6 12 5 5 5 5 5 5 3 1 0 0 0 0 0 1 3 0 0 0 4 8 50 56 29 48 4 0 0 5 1 0 4
100 100 100 100 100 98 5 38 37 6 94 8 19 99 24 5 5 5 5 5 5 5 5 5 5 5 3 0 4 5 5 2 2 2 0 4 3 5 30 52 42 4 0 1 31 76 55
100 100 100 100 100 100 100 19 100 99 7 100 87 7 98 5 5 70 5 24 58 5 5 5 18 5 5 5 5 5 4 5 5 44 5 4 3 0 0 5 5 5 4 0 0 45 96

GFSGBSN_prec_cloud_108.txt.gz
Cloud_Cover
98 56 77 0 1 24 96 100 100 100 100 100 85 5 11 4 100 100 100 12 6 47 97 100 100 100 100 100 95 94 100 52 4 0 0 38 48 34 95 100 100 100 100 100 100 100 100
100 95 3 8 98 93 98 100 100 100 100 100 98 5 5 0 100 100 75 5 5 13 83 100 99 100 100 100 99 5 98 100 99 48 0 0 0 0 0 2 12 100 100 98 100 100 100
3 7 64 41 65 67 26 100 100 100 100 100 85 69 5 3 100 100 63 5 41 48 60 100 100 100 100 100 72 5 9 88 100 97 30 4 0 0 0 0 0 4 79 98 16 61 83
7 23 96 76 54 26 6 13 1 13 99 100 94 3 4 100 100 100 65 3 52 59 97 100 100 100 100 100 98 24 0 4 53 96 100 100 48 1 0 0 0 0 0 0 0 0 2
0 96 100 100 97 13 20 4 1 52 27 22 100 76 100 100 100 100 9 24 80 42 100 100 100 100 100 100 100 100 5 0 48 96 100 100 100 39 7 12 2 0 0 0 0 0 0
0 28 100 100 100 5 75 5 5 7 27 5 30 100 87 84 100 86 55 100 83 100 100 100 100 100 100 100 88 64 5 0 11 100 100 100 100 100 99 6 5 5 0 0 0 0 0
0 100 100 100 97 48 49 4 61 31 100 100 100 89 100 100 100 100 100 100 100 100 100 100 100 100 100 100 98 90 5 5 4 8 100 100 100 100 100 100 15 5 5 5 0 0 3
0 1 77 100 100 100 16 64 68 98 100 100 100 100 100 100 97 100 100 100 100 96 100 100 100 100 100 100 34 5 5 2 5 28 67 93 100 100 80 42 43 28 41 39 9 5 5
0 0 0 91 100 84 75 18 70 86 100 100 100 100 100 100 100 100 100 100 100 100 100 100 100 100 80 48 5 5 3 5 4 5 5 5 93 100 100 97 68 32 55 90 100 69 6
86 6 0 0 0 27 68 45 92 100 99 100 83 100 100 100 54 87 100 100 97 96 91 100 100 63 13 16 99 68 37 5 0 5 94 100 52 7 34 21 5 5 10 14 33 24 45
37 97 100 14 3 3 2 2 2 11 55 52 36 11 97 99 91 100 92 92 58 95 48 84 94 100 100 72 45 58 9 5 5 5 5 4 5 8 55 33 5 5 5 5 62 100 74
13 3 0 8 4 11 54 2 5 5 26 7 5 51 100 60 86 100 93 97 100 100 96 59 27 7 12 26 26 6 5 5 5 16 34 21 85 36 5 5 5 5 14 87 94 96 89
0 44 50 3 2 48 1 7 0 2 9 40 37 5 35 100 100 100 100 100 100 94 69 81 93 89 97 90 78 42 57 93 62 82 95 93 19 5 5 5 5 8 60 94 73 78 5
30 0 37 73 53 2 17 24 23 2 0 0 3 0 1 6 20 48 7 40 100 100 98 100 100 100 100 96 23 15 13 14 5 5 5 6 21 11 5 5 10 15 7 78 93 61 46
100 98 1 78 3 6 0 0 25 6 0 0 0 0 0 0 0 0 0 30 62 42 54 13 5 5 30 7 5 5 5 5 5 5 17 18 5 0 4 5 2 41 83 72 100 76 94
100 100 100 38 0 0 0 0 0 10 0 0 0 0 0 0 0 0 1 59 13 4 5 4 5 3 5 5 5 5 5 5 5 5 5 11 55 0 1 3 12 18 33 88 95 84 42
98 100 100 100 17 0 0 0 0 18 0 0 0 0 0 0 0 0 65 5 5 5 5 0 2 1 1 5 5 5 5 5 5 5 5 6 12 4 0 2 7 61 69 42 26 48 37
6 100 100 100 81 5 1 0 0 0 0 0 0 11 0 0 3 0 0 4 0 0 0 0 0 0 3 5 5 5 5 0 3 5 5 5 8 6 0 0 3 4 4 5 5 32 49
100 68 90 100 100 5 5 3 0 1 5 4 0 0 0 0 0 0 0 0 0 0 0 0 0 0 0 0 2 0 0 0 0 2 5 4 11 9 0 0 0 1 0 3 3 4 5
100 100 74 44 97 5 5 5 5 0 2 2 0 22 0 0 0 0 0 0 0 0 0 0 0 0 0 0 0 0 0 0 0 0 0 5 15 3 0 0 0 0 2 5 5 9 0
92 81 67 6 7 14 5 8 5 5 4 0 5 5 5 0 0 0 0 0 0 0 0 0 0 0 2 5 5 5 5 5 3 0 2 10 19 5 5 0 3 5 4 5 27 3 4
100 96 40 5 5 5 5 5 32 5 5 5 4 5 0 5 5 0 0 0 0 0 0 0 0 0 0 0 0 0 0 1 4 4 3 3 35 5 5 0 2 5 0 0 4 5 5
48 76 88 35 7 5 5 5 5 5 9 5 19 8 2 4 4 4 5 4 0 0 0 0 0 0 0 0 0 0 0 0 0 0 0 3 5 5 4 0 0 0 0 0 0 0 0
100 100 69 91 63 5 3 14 9 7 36 26 5 12 24 5 5 5 5 5 5 5 0 0 0 0 0 0 0 0 0 1 0 1 0 5 5 5 42 5 4 0 0 0 0 0 0
100 100 100 45 100 78 73 0 98 6 32 57 5 5 5 5 5 5 5 5 5 5 5 4 4 2 0 0 0 1 5 4 3 5 6 5 46 71 56 5 3 5 5 1 0 0 0
100 100 100 93 100 100 100 19 7 46 93 100 15 5 5 5 5 27 22 5 4 5 5 5 5 4 2 0 5 5 30 5 5 5 5 8 55 75 80 16 16 9 5 5 4 0 0
100 100 100 100 100 100 100 100 85 57 93 97 76 99 6 5 5 6 23 64 8 17 5 8 5 8 4 5 5 5 5 2 4 0 5 38 97 83 100 100 10 10 5 5 3 5 0
100 100 100 100 100 93 100 100 100 100 100 98 4 100 100 16 37 5 5 11 97 20 38 34 73 65 33 12 5 5 5 5 4 5 5 4 5 23 56 84 49 8 5 5 5 3 5
100 100 100 100 100 100 91 100 100 100 98 100 84 100 100 26 46 94 5 5 11 100 93 6 26 36 69 5 5 5 5 5 5 5 5 5 6 26 5 5 5 5 5 5 5 5 5

GFSGBSN_prec_cloud_111.txt.gz
Cloud_Cover
3 10 94 84 40 25 21 100 100 100 100 100 100 71 5 29 5 84 100 65 5 4 58 100 100 100 100 99 100 4 78 100 100 100 100 100 100 100 100 100 53 46 38 7 13 5 5
23 17 100 100 25 5 6 8 38 85 100 100 100 99 73 11 4 99 100 88 5 5 90 100 86 100 100 100 89 5 5 84 100 79 58 100 100 100 100 100 86 70 51 30 41 84 89
10 94 88 100 55 50 18 4 1 9 87 100 100 100 91 7 0 100 100 7 5 5 96 100 11 98 100 100 98 88 5 100 100 100 83 25 69 99 100 32 80 100 100 44 5 5 62
0 2 6 100 28 35 98 18 3 2 14 31 10 2 3 78 65 100 96 5 5 35 76 100 96 100 100 100 100 89 49 6 8 61 100 78 10 5 0 0 0 16 56 57 95 23 33
0 27 30 100 83 100 100 100 94 36 9 41 92 100 100 100 100 100 40 83 41 100 100 100 100 100 100 100 100 54 86 20 72 98 90 96 100 66 10 4 0 0 0 0 0 2 1
4 2 3 29 100 100 100 100 100 100 95 73 100 100 98 26 78 34 58 100 94 100 100 100 100 100 100 100 76 69 85 2 1 5 70 49 90 100 100 100 58 4 5 0 0 0 0
0 0 0 3 21 100 88 100 100 100 100 100 100 100 100 100 38 7 100 100 100 100 100 100 100 100 100 100 100 100 10 4 0 0 4 5 5 96 100 100 100 100 100 100 5 0 0
2 2 0 0 11 5 100 69 100 76 88 100 98 100 100 100 99 96 100 100 100 100 100 100 100 100 100 100 99 48 16 27 6 3 3 4 5 5 63 100 100 100 100 100 12 5 4
100 100 60 2 47 49 33 97 100 100 21 75 94 88 100 100 98 70 100 98 100 100 100 100 100 100 100 100 100 97 17 4 3 5 1 2 3 5 5 54 100 100 100 100 70 32 13
51 8 99 100 94 100 41 58 77 76 42 5 7 5 100 100 100 100 100 100 99 100 100 100 100 100 100 100 100 72 2 1 2 1 4 0 0 5 64 100 100 100 100 100 98 26 17
100 95 87 100 100 99 65 5 50 99 98 21 10 90 55 100 92 96 43 94 7 57 99 100 91 100 100 99 10 69 5 3 4 2 1 4 2 5 5 5 5 17 6 6 40 98 67
100 68 97 87 100 100 100 100 3 3 28 100 94 94 22 44 99 100 100 98 49 88 100 76 100 50 77 40 5 4 5 0 0 1 2 0 0 3 2 5 5 5 10 97 100 58 75
100 100 88 2 8 36 28 100 93 3 0 0 6 95 100 100 100 100 77 100 73 69 35 58 65 9 12 55 5 5 5 5 6 75 89 2 3 4 2 47 5 16 39 42 76 90 31
38 100 100 56 4 1 16 22 100 69 1 0 0 0 7 98 100 100 100 100 100 92 84 6 12 3 5 5 5 5 5 5 5 5 5 23 5 4 5 7 13 11 5 15 78 81 75
100 99 100 100 44 1 0 13 0 65 0 0 0 0 0 0 0 2 4 26 82 74 81 83 84 74 6 5 4 5 5 5 5 5 18 32 32 0 0 0 7 77 84 16 27 60 86
98 91 90 100 48 4 7 5 3 0 0 0 0 0 0 0 0 0 2 5 5 5 5 5 0 2 2 5 4 5 5 2 4 3 2 4 12 2 3 0 8 27 10 56 77 75 23
75 100 100 90 65 6 11 5 5 5 4 0 0 0 0 0 0 0 35 5 5 1 4 4 2 1 3 5 5 5 5 0 2 5 2 5 4 4 0 2 9 64 20 6 5 12 25
74 6 100 100 79 7 34 6 9 39 5 5 5 5 0 0 0 2 12 5 4 1 0 1 1 5 5 2 5 5 5 1 0 2 2 2 4 5 3 0 0 0 3 6 6 3 71
14 67 5 78 76 19 5 5 5 54 5 9 22 8 5 5 5 3 0 0 0 0 0 2 1 1 0 0 0 0 0 0 0 1 1 3 5 3 0 0 0 1 0 1 5 8 0
21 8 13 5 5 7 5 12 23 43 37 6 24 99 80 16 30 22 5 2 0 0 0 0 0 0 1 2 4 5 4 0 0 3 2 2 5 3 0 0 0 2 2 6 29 33 0
96 31 5 5 5 5 5 5 7 63 31 65 18 15 68 70 6 5 11 5 5 5 1 0 0 0 0 4 0 0 1 1 1 5 5 6 9 5 5 5 7 5 0 1 7 5 76
19 37 61 46 5 6 5 5 5 8 45 17 74 91 63 6 72 55 5 5 5 5 5 5 4 0 0 0 0 0 0 0 0 5 5 18 16 62 60 5 5 5 5 4 0 0 5
95 100 99 100 96 78 71 2 5 5 5 5 40 22 42 78 68 48 14 5 5 5 5 5 5 4 3 5 0 0 0 0 3 5 5 12 7 22 5 5 5 5 21 5 4 0 0
100 100 88 57 100 100 92 8 1 5 5 5 5 20 6 29 64 86 100 99 9 15 5 5 5 3 5 5 5 3 5 5 5 7 5 5 48 78 35 5 5 5 5 4 2 3 5
100 100 100 88 100 100 100 62 34 37 6 5 5 21 5 6 28 31 13 46 100 78 10 7 5 5 5 3 5 2 5 5 5 5 6 5 36 80 54 5 2 1 0 0 5 0 0
100 100 100 100 100 100 100 100 99 18 74 79 8 38 5 5 5 49 100 10 5 12 47 90 50 6 10 7 5 5 4 0 4 4 3 22 48 54 14 83 4 4 5 5 5 4 0
100 100 100 100 100 100 88 99 100 97 80 100 100 5 43 5 5 36 25 44 100 100 86 5 9 5 5 17 9 7 5 5 5 5 11 39 97 89 74 87 34 4 1 0 2 0 5
100 100 100 100 100 100 100 100 100 100 100 100 98 100 100 63 100 66 57 5 99 100 90 63 87 47 8 5 5 5 5 5 6 5 6 5 6 59 37 73 21 5 5 2 0 5 0
100 100 100 100 100 100 100 100 100 100 100 93 100 100 100 100 100 92 100 16 3 98 99 74 93 5 24 64 5 5 10 47 5 9 5 4 6 5 5 3 0 0 0 1 5 4 3

GFSGBSN_prec_cloud_114.txt.gz
Cloud_Cover
15 100 100 100 5 18 5 0 92 100 100 98 25 100 100 100 100 100 5 18 3 4 5 78 100 100 100 81 61 8 1 73 100 100 100 100 100 100 100 100 80 100 100 62 5 5 8
22 99 100 100 17 69 83 10 5 78 100 100 97 52 100 99 68 40 79 5 5 20 47 100 100 100 100 88 21 2 0 0 86 100 100 100 100 100 100 100 100 90 87 30 7 5 5
1 2 46 26 6 67 100 100 3 1 8 100 100 100 89 7 5 14 39 5 5 52 98 100 100 100 100 99 86 4 5 0 3 62 100 98 83 100 100 100 100 100 72 38 25 5 5
6 1 5 22 14 56 94 94 96 68 5 14 22 21 78 100 100 8 41 7 9 74 100 100 100 100 100 100 98 24 0 0 0 18 50 94 67 67 90 100 100 100 100 70 96 36 23
93 0 8 5 5 99 89 100 100 100 69 90 68 100 90 100 60 60 100 5 26 100 100 86 100 100 100 100 91 54 0 0 0 1 5 76 98 76 8 23 90 100 100 100 98 83 52
4 16 20 38 55 100 100 100 100 72 100 100 100 100 100 100 98 54 6 100 100 100 100 100 100 100 100 100 97 93 6 5 4 5 5 5 5 21 28 11 5 50 30 10 5 5 0
99 43 46 98 5 80 73 100 100 96 65 52 100 64 5 5 1 68 100 100 100 100 100 100 100 100 90 100 100 89 96 10 3 0 0 0 2 11 97 100 100 100 38 5 79 60 74
35 48 8 84 100 100 100 98 97 100 42 46 97 32 18 0 93 100 97 100 100 87 100 100 100 65 20 90 70 92 25 5 0 0 0 10 3 17 20 13 5 5 5 5 5 5 5
100 100 100 100 100 25 47 67 74 100 100 11 5 28 6 97 100 100 100 100 100 100 100 100 100 100 100 100 60 50 45 16 1 0 0 0 0 3 5 5 2 4 4 2 22 82 91
100 100 100 99 100 100 80 34 4 5 56 46 5 5 5 47 100 100 100 100 100 100 92 100 100 100 100 100 98 49 6 2 0 0 0 0 0 0 0 0 0 4 0 4 5 5 6
99 100 100 84 84 100 100 99 5 5 5 10 64 5 48 47 100 99 99 100 100 100 100 100 100 100 100 100 100 100 100 9 3 0 1 3 0 0 0 10 0 3 0 2 31 43 87
100 100 100 100 100 100 67 89 23 12 5 2 11 25 3 100 97 30 100 42 100 100 100 100 100 100 98 98 99 100 80 6 0 0 0 0 0 0 0 0 0 0 0 72 98 90 81
100 100 100 100 86 100 100 10 3 9 0 4 4 5 69 90 54 56 89 42 87 80 11 26 14 6 2 5 4 5 0 0 2 38 68 0 0 0 0 3 4 5 36 23 48 96 14
100 98 100 100 67 10 100 34 17 1 0 0 0 0 1 5 4 2 24 5 34 78 54 19 4 3 3 0 3 1 5 2 0 3 2 25 2 1 0 1 1 5 2 5 5 5 5
100 98 75 87 88 34 8 6 9 5 0 0 0 0 0 0 0 2 3 7 5 5 5 4 5 5 3 3 4 5 5 3 2 0 3 70 5 0 0 0 1 14 36 2 5 5 18
100 95 100 8 17 2 6 5 5 4 0 0 0 0 0 0 0 0 1 4 4 3 2 1 0 0 4 3 4 5 5 0 1 0 2 2 30 0 1 0 0 3 4 9 41 31 5
99 100 22 99 3 2 5 5 5 5 5 3 0 3 0 0 0 0 29 2 5 3 3 2 0 0 0 0 4 1 0 0 0 0 0 4 3 5 4 1 1 2 4 2 2 2 5
13 76 63 6 100 5 5 5 5 5 5 6 5 30 5 5 6 0 4 0 2 1 2 3 4 0 1 0 0 0 2 0 0 0 3 1 3 2 0 0 0 0 1 3 5 0 5
8 48 15 5 5 23 5 14 5 5 5 21 59 87 47 5 9 5 5 5 2 1 0 0 2 0 0 0 2 0 0 0 0 0 0 0 3 4 0 1 0 0 0 0 1 4 0
22 9 99 5 5 5 5 5 62 5 80 28 5 52 40 88 29 6 5 5 5 4 2 0 0 0 0 0 0 0 0 0 1 5 5 5 4 2 3 0 0 0 0 0 1 4 1
83 57 100 35 5 5 5 5 5 43 26 59 94 62 20 28 56 71 69 48 7 5 5 5 2 0 0 0 0 0 0 1 4 5 22 5 6 23 5 5 5 5 3 0 0 0 4
78 100 67 69 44 19 5 5 5 5 5 91 6 47 14 99 6 16 5 16 64 7 5 5 5 5 1 0 0 0 0 0 4 2 0 4 5 5 5 2 0 1 3 2 0 0 0
100 96 100 72 31 100 82 17 5 4 6 5 15 70 6 13 63 44 44 5 5 5 5 10 5 5 5 5 5 5 5 5 5 1 1 4 5 7 4 0 0 2 0 0 3 1 1
100 100 100 70 71 94 96 100 72 5 17 5 5 5 35 57 51 23 7 17 6 8 28 5 5 5 5 5 5 5 4 5 5 4 5 5 5 50 23 5 29 5 5 5 5 5 5
100 100 100 100 100 100 100 100 100 100 20 86 4 12 5 5 5 18 99 44 99 5 5 13 6 5 5 5 5 6 5 3 1 1 1 5 5 67 15 10 2 1 5 5 5 5 5
100 100 100 100 100 100 91 100 100 100 74 6 60 65 100 81 78 100 29 5 67 100 16 6 7 5 5 4 5 3 0 5 4 5 5 5 8 67 7 64 4 0 3 2 3 5 5
100 100 100 100 100 100 98 100 100 100 100 100 40 34 80 98 100 100 100 99 100 72 79 99 100 19 58 98 5 30 19 8 7 28 6 8 94 79 98 98 5 0 2 0 3 4 5
100 100 100 100 100 100 100 100 100 100 100 100 100 100 100 100 100 91 75 100 100 85 77 99 100 60 96 100 40 96 100 30 92 37 54 5 86 79 77 88 24 73 5 4 7 38 100
100 100 100 100 100 100 100 100 100 100 100 100 100 100 100 100 100 100 100 98 82 98 96 66 100 100 100 89 100 27 100 100 100 100 86 5 97 100 100 64 100 61 95 76 25 6 12

GFSGBSN_prec_cloud_117.txt.gz
Cloud_Cover
86 1 5 4 5 5 11 12 2 100 100 69 100 100 100 100 100 100 89 100 43 43 94 100 95 100 100 41 2 0 1 89 100 100 100 100 99 92 100 97 100 85 36 20 5 5 41
8 38 7 97 81 95 60 61 5 15 75 94 86 100 100 100 100 100 90 100 66 98 98 81 97 99 100 90 4 0 0 0 48 100 100 100 100 100 100 100 99 99 100 75 83 92 56
85 26 80 52 80 100 73 86 98 74 3 100 100 100 94 100 100 100 100 82 98 78 90 46 24 100 100 90 5 2 0 0 0 1 74 100 100 100 100 100 100 90 15 5 5 7 5
100 97 75 63 100 100 100 41 100 89 97 7 84 98 94 100 100 100 52 67 100 98 34 100 100 100 100 100 5 5 0 0 0 0 0 5 46 95 100 100 100 100 72 12 5 16 5
96 69 30 100 70 100 100 7 90 63 21 98 84 62 18 5 52 58 10 57 100 100 85 99 100 100 90 76 7 0 0 0 0 0 0 4 5 41 45 54 98 100 88 83 85 14 25
100 88 20 55 100 79 51 64 5 24 5 93 99 49 14 4 12 62 57 100 100 100 99 100 100 100 100 46 40 5 0 0 0 0 0 0 2 5 5 18 29 35 37 55 43 12 20
100 100 100 18 6 88 5 34 7 5 5 30 4 5 40 33 48 79 94 100 100 100 100 100 100 100 100 90 59 16 0 0 0 0 0 0 0 2 5 5 5 5 5 23 34 8 5
100 100 100 100 10 10 9 20 43 5 5 4 8 99 53 100 57 100 100 75 52 100 100 100 100 100 100 100 39 5 0 0 0 0 0 0 2 0 0 0 0 3 2 0 0 5 3
100 99 100 100 94 33 5 15 2 5 6 100 87 94 98 63 72 97 100 100 100 100 100 100 100 100 100 100 100 16 5 1 0 0 0 0 0 0 0 0 0 2 4 0 1 2 0
100 100 90 100 100 96 76 5 5 0 5 5 76 11 53 60 100 100 100 100 81 100 100 100 100 100 100 70 88 34 57 2 0 0 0 0 0 0 0 0 0 0 0 0 3 2 5
100 100 100 66 100 100 100 2 5 2 0 1 100 100 97 100 100 100 100 95 97 100 59 100 100 30 5 51 82 29 0 0 0 0 0 0 0 0 0 0 0 0 0 0 4 6 34
100 100 100 100 100 96 100 73 28 1 1 2 5 6 14 62 100 100 100 100 100 100 64 99 95 63 74 36 36 24 7 0 0 0 0 0 0 0 0 0 0 0 0 30 100 95 59
88 100 100 100 100 96 54 92 0 1 0 0 4 4 1 2 75 38 36 61 48 32 8 64 97 100 100 100 100 99 91 2 1 0 14 0 0 0 0 0 0 0 26 58 59 83 9
66 59 82 85 94 100 46 8 48 2 0 0 0 0 4 0 1 5 15 56 17 5 7 46 9 13 7 16 16 5 2 0 0 0 44 6 0 0 0 2 1 4 2 5 0 24 5
99 73 18 8 1 7 6 3 0 9 0 0 0 0 0 0 0 0 0 6 5 4 3 2 3 0 0 0 0 0 0 0 0 0 1 17 5 0 0 0 0 5 5 2 5 5 28
100 52 29 1 2 4 5 11 11 4 0 0 0 0 0 0 0 0 0 8 2 0 0 1 0 0 0 0 0 4 0 0 0 0 0 1 6 0 0 0 0 0 2 5 17 6 5
54 95 37 5 4 4 4 5 5 5 5 1 0 1 0 0 0 0 0 1 1 0 0 0 0 0 0 0 0 4 0 0 0 0 0 0 1 3 2 0 0 1 4 2 1 3 5
7 71 10 9 5 4 5 3 5 5 5 10 5 5 5 4 0 0 0 0 0 0 0 0 0 0 0 0 0 0 0 0 0 0 0 0 4 5 0 0 0 0 0 1 5 0 0
52 24 92 11 36 5 5 2 5 5 5 6 29 24 5 5 4 2 4 5 3 0 0 0 0 0 0 3 2 0 0 0 0 0 0 2 0 5 1 1 0 0 0 0 1 4 4
77 76 83 49 28 5 5 5 5 5 5 5 5 32 5 5 5 5 5 1 0 3 5 5 3 1 0 0 0 0 0 0 0 0 0 0 0 0 0 0 0 0 0 0 0 2 1
87 17 96 13 32 12 5 8 2 5 5 5 5 5 11 5 5 5 5 5 5 5 3 5 5 5 4 4 3 0 0 0 0 0 0 0 2 0 0 0 0 0 0 0 1 1 4
100 100 59 45 16 27 5 95 30 5 54 23 5 3 5 5 5 32 5 47 5 5 7 20 5 4 0 0 0 0 0 0 0 0 5 2 5 5 5 0 0 1 0 1 5 5 5
100 100 100 99 79 99 62 75 3 49 37 88 34 1 5 33 6 5 14 6 5 6 7 5 6 5 5 5 1 0 0 2 0 0 3 5 5 5 5 2 5 5 5 5 5 4 1
100 100 100 100 100 99 100 100 62 20 94 18 57 36 38 6 64 7 5 28 5 9 5 3 5 5 5 5 2 4 0 4 5 4 2 1 4 8 5 5 9 5 4 4 5 7 32
100 99 100 100 100 100 100 100 100 98 93 92 13 99 97 93 12 10 5 5 34 71 5 5 5 5 7 90 6 5 5 5 49 5 67 74 28 43 5 28 4 5 22 46 86 87 20
100 100 100 100 100 100 99 100 100 100 100 93 96 100 100 100 100 16 8 14 39 15 70 5 7 5 9 96 58 5 98 82 100 96 23 47 26 100 100 100 6 100 100 97 100 100 100
100 100 100 100 100 100 100 100 100 92 100 88 100 100 100 100 100 100 100 100 100 100 11 4 57 100 28 5 84 70 9 29 100 100 100 100 100 74 95 97 100 5 91 100 100 100 100
100 100 100 100 100 100 100 100 100 100 100 100 100 100 100 100 100 100 100 100 100 100 100 100 88 78 88 100 78 71 91 74 33 9 23 32 100 100 100 82 96 94 80 98 100 83 100
100 100 100 100 100 100 100 100 100 100 100 100 100 100 100 100 100 100 100 100 100 100 100 100 100 100 100 91 100 100 100 100 93 100 97 97 90 100 60 67 99 100 100 100 100 100 100

GFSGBSN_prec_cloud_120.txt.gz
Cloud_Cover
100 90 5 76 49 6 5 26 1 33 95 100 75 100 100 100 100 100 100 73 4 99 100 100 100 100 100 29 0 0 5 5 4 84 100 100 100 100 100 100 100 100 99 69 80 85 64
36 100 16 92 100 7 5 0 5 1 69 100 74 99 100 100 100 100 100 100 8 65 93 100 100 99 100 99 2 0 3 5 5 4 74 100 100 100 100 100 100 100 37 36 7 49 86
95 65 97 98 55 5 4 7 95 36 21 100 100 100 100 100 100 100 100 63 75 82 100 100 100 100 100 82 3 0 5 5 5 5 5 40 98 18 100 100 100 58 7 5 5 5 5
10 38 31 79 72 5 5 0 0 85 53 8 34 100 100 100 100 100 99 100 100 80 100 96 100 98 100 58 4 0 3 20 5 5 5 18 12 94 100 100 100 100 44 62 45 18 5
82 55 13 44 51 81 8 8 5 98 95 5 5 67 29 43 31 100 44 86 100 100 100 100 92 84 74 96 5 0 2 68 14 25 3 0 5 5 94 100 100 100 100 87 26 74 10
100 93 34 45 57 21 98 9 5 48 12 5 4 6 44 84 91 90 100 100 100 32 88 89 32 55 39 83 5 4 0 5 20 5 4 2 0 1 0 4 77 100 100 100 99 40 21
6 100 100 3 53 2 94 14 62 73 70 3 1 3 5 95 98 100 100 100 72 81 23 78 88 5 5 30 5 1 0 5 5 5 3 0 0 0 0 0 0 1 5 5 17 98 97
100 70 98 81 82 9 0 58 14 100 100 100 80 15 34 95 100 100 100 88 92 100 100 100 97 25 68 26 5 0 0 0 5 5 0 1 2 0 0 0 0 0 0 0 0 0 5
100 100 100 100 97 87 2 0 10 100 100 100 100 100 62 97 100 92 100 100 100 100 100 100 100 100 95 88 6 5 0 0 0 0 0 0 0 0 0 0 0 0 0 0 1 0 0
48 100 100 100 100 96 0 0 0 21 75 100 100 100 100 100 100 100 100 100 100 100 100 100 100 95 74 68 14 4 0 0 0 0 0 0 0 0 0 0 0 0 0 0 0 3 2
100 90 100 100 100 100 78 5 0 5 58 88 100 100 100 100 92 100 100 97 96 99 100 100 76 35 95 41 4 4 0 0 0 0 0 0 0 0 0 0 0 0 0 0 4 5 5
100 100 100 100 100 98 100 98 10 1 3 8 100 96 78 100 98 98 99 75 13 12 95 33 100 90 99 5 4 5 2 0 0 0 0 0 0 0 0 0 0 0 0 2 5 5 5
20 51 100 100 61 8 72 66 96 2 0 0 2 26 92 68 21 16 55 100 48 39 48 14 12 5 5 14 68 2 10 0 0 0 14 0 0 0 0 0 0 0 4 5 2 17 5
5 1 4 9 60 4 0 7 30 12 0 0 0 0 0 1 40 5 32 62 100 100 97 100 88 67 80 73 4 5 1 0 0 0 36 3 0 0 0 2 0 0 2 5 0 5 5
43 5 2 0 0 5 18 5 12 1 0 0 0 0 0 0 0 0 0 9 5 4 4 1 1 4 89 38 84 85 0 0 0 0 1 44 3 0 0 0 0 4 3 2 5 6 57
99 84 10 0 0 1 21 95 37 3 0 0 0 0 0 0 0 0 0 8 0 0 0 0 0 0 0 0 0 0 0 0 0 0 0 0 4 0 0 0 0 0 0 4 5 1 4
83 48 14 5 2 0 0 13 77 17 4 0 0 0 0 0 0 0 1 1 0 0 0 0 0 0 0 0 0 0 0 0 0 0 0 0 2 3 3 0 0 2 4 4 3 5 5
91 96 28 5 5 5 0 2 17 14 1 5 5 0 0 0 0 0 0 0 0 0 0 0 0 0 0 0 0 0 0 0 0 4 5 5 5 5 5 4 0 0 2 0 5 0 0
100 49 97 60 5 5 5 1 6 0 3 0 4 5 5 3 3 0 0 0 0 0 0 0 0 0 0 0 1 4 4 5 5 5 5 5 4 5 0 0 0 0 4 5 3 2 5
100 43 9 86 99 17 31 4 5 0 0 1 1 2 1 5 12 5 3 1 0 0 0 0 0 0 0 0 0 0 4 4 4 36 19 5 5 5 4 2 3 5 1 1 0 37 5
98 89 50 5 94 100 52 69 5 5 2 0 2 5 5 5 5 5 6 5 5 4 0 0 0 0 0 0 0 2 1 0 1 2 4 1 5 2 4 5 5 0 5 5 5 5 14
100 100 100 100 5 41 100 100 61 11 5 5 0 4 4 5 5 5 5 5 29 5 6 22 4 5 1 0 0 0 0 0 0 0 0 0 4 5 10 5 5 5 5 62 54 16 10
99 100 100 100 84 5 9 100 98 45 33 7 5 5 12 4 2 4 5 5 5 5 5 58 62 66 29 5 6 4 4 4 5 5 3 4 14 5 5 4 5 4 5 5 5 93 28
100 100 100 100 100 94 70 26 95 49 60 18 96 33 54 23 3 2 0 5 4 2 5 4 5 6 5 59 9 5 6 5 5 5 3 5 3 5 7 5 4 5 21 19 44 49 100
100 100 100 100 100 100 100 100 100 100 89 47 100 100 39 51 24 5 5 4 5 5 4 0 0 3 0 5 5 5 5 66 5 17 5 14 25 5 6 46 5 16 91 94 71 44 93
100 99 100 100 100 100 100 100 100 100 100 100 98 62 100 100 100 94 27 24 86 64 89 7 7 5 3 5 4 5 3 3 7 20 89 15 100 96 100 78 20 14 24 88 100 100 100
100 100 100 98 100 100 100 100 100 100 100 100 100 100 37 100 100 100 100 89 89 58 96 100 100 100 100 100 92 100 27 10 81 100 38 24 85 100 100 34 47 100 100 100 100 100 100
100 100 100 100 100 100 100 100 100 100 100 100 100 100 100 100 100 100 100 100 100 100 100 68 79 99 100 100 100 100 100 100 100 100 100 100 100 100 97 98 100 100 100 100 100 100 100
100 100 100 100 100 100 100 100 100 100 100 100 100 100 100 100 100 100 100 100 100 100 100 47 27 5 7 44 5 99 99 88 88 99 38 23 100 100 100 100 100 100 100 100 100 100 100